Missouri River (Missouri), Napolean (06894650)

StateMissouriLatestUnknown (34900 cfs)
RiverMissouri RiverRatingObservedEstimated
Updated2021-02-25 10:00 (24 minutes ago)Flood - The river is flooding. Obstacles can be treacherous or deadly. The river should be avoided at this stage for casual trips and definitely for the inexperienced. Trips should be attempted only with protective gear and equipment.Flood(none)(none)
Discharge34900 cfs (median: 71600 cfs)High - The river is high and potentially dangerous, especially for the young and / or inexperienced. Normal stream obstacles are sometimes difficult to navigate. Extended distances can be attempted, but canoe travel may not be advisable.High(none)(none)
Height5.77 feetGood - Conditions are ideal for a canoe or kayak. Boats typically will drag on fewer than one-quarter of riffles, if at all, and portages are unnecessary or rare. Normal float lengths can be attempted without a problem.Good(none)(none)
TrendRising (rising over 24 hours)Low - River is low but can still be floated. Some riffles are okay but most come with significant dragging and might need a portage. Float lengths should be reduced to accommodate low flow, dragging, and portages.Low(none)(none)
USGSExternal icon USGS Site (External icon Google Maps)Poor - River is too low to float comfortably. Most or all riffles will drag or must be portaged and some obstacles (such as slick shelf rock) cause undue problems. Avoid the river at this stage for casual paddling trips.Poor(none)(none)

Trending Data

Plot Image

Trips for Missouri River (Missouri), Napolean (06894650)

DateStartEndDistanceConditionDischargeHeightFishingDetails

A total of 0 rows are displayed.

Condition Descriptions

Fishing Conditions

Fish Species

Notes

Classic Trip List

The classic River Trips application is still available for use. It is updated with the new system using a data retrofit. It is no longer maintained. The original River Trips application is no longer updated (as of 1 Dec 2016) but can be checked for errors or for the condition of the data before it was converted to the new system.

Gauge Data Table

ObservationHeightDischargeMaximum
Discharge
Minimum
Discharge
Mean
Discharge
P05P10P20P25P50
(Median)
P75P80P90P95
2021-02-25 10:00 5.77 34900 74900 (2019) 40600 (2018) 61400 41800 43600 71600 74100 74600
2021-02-25 09:00 5.75 34800 74900 (2019) 40600 (2018) 61400 41800 43600 71600 74100 74600
2021-02-25 08:00 5.77 34900 74900 (2019) 40600 (2018) 61400 41800 43600 71600 74100 74600
2021-02-25 07:00 5.73 34700 74900 (2019) 40600 (2018) 61400 41800 43600 71600 74100 74600
2021-02-25 06:00 5.74 34800 74900 (2019) 40600 (2018) 61400 41800 43600 71600 74100 74600
2021-02-25 05:00 5.73 34700 74900 (2019) 40600 (2018) 61400 41800 43600 71600 74100 74600
2021-02-25 04:00 5.72 34700 74900 (2019) 40600 (2018) 61400 41800 43600 71600 74100 74600
2021-02-25 03:00 5.73 34700 74900 (2019) 40600 (2018) 61400 41800 43600 71600 74100 74600
2021-02-25 02:00 5.73 34700 74900 (2019) 40600 (2018) 61400 41800 43600 71600 74100 74600
2021-02-25 01:00 5.71 34600 74900 (2019) 40600 (2018) 61400 41800 43600 71600 74100 74600
2021-02-25 00:00 5.72 34700 74900 (2019) 40600 (2018) 61400 41800 43600 71600 74100 74600
2021-02-24 23:00 5.69 34600 76500 (2016) 40900 (2018) 60600 42100 43900 69400 73000 75100
2021-02-24 22:00 5.67 34500 76500 (2016) 40900 (2018) 60600 42100 43900 69400 73000 75100
2021-02-24 21:00 5.69 34600 76500 (2016) 40900 (2018) 60600 42100 43900 69400 73000 75100
2021-02-24 20:00 5.67 34500 76500 (2016) 40900 (2018) 60600 42100 43900 69400 73000 75100
2021-02-24 19:00 5.67 34500 76500 (2016) 40900 (2018) 60600 42100 43900 69400 73000 75100
2021-02-24 18:00 5.69 34600 76500 (2016) 40900 (2018) 60600 42100 43900 69400 73000 75100
2021-02-24 17:00 5.65 34400 76500 (2016) 40900 (2018) 60600 42100 43900 69400 73000 75100
2021-02-24 16:00 5.67 34500 76500 (2016) 40900 (2018) 60600 42100 43900 69400 73000 75100
2021-02-24 15:00 5.69 34600 76500 (2016) 40900 (2018) 60600 42100 43900 69400 73000 75100
2021-02-24 14:00 5.63 34300 76500 (2016) 40900 (2018) 60600 42100 43900 69400 73000 75100
2021-02-24 13:00 5.67 34500 76500 (2016) 40900 (2018) 60600 42100 43900 69400 73000 75100
2021-02-24 12:00 5.66 34400 76500 (2016) 40900 (2018) 60600 42100 43900 69400 73000 75100
2021-02-24 11:00 5.63 34300 76500 (2016) 40900 (2018) 60600 42100 43900 69400 73000 75100
2021-02-24 10:00 5.66 34400 76500 (2016) 40900 (2018) 60600 42100 43900 69400 73000 75100
2021-02-24 09:00 5.61 34200 76500 (2016) 40900 (2018) 60600 42100 43900 69400 73000 75100
2021-02-24 08:00 5.63 34300 76500 (2016) 40900 (2018) 60600 42100 43900 69400 73000 75100
2021-02-24 07:00 5.59 34100 76500 (2016) 40900 (2018) 60600 42100 43900 69400 73000 75100
2021-02-24 06:00 5.60 34200 76500 (2016) 40900 (2018) 60600 42100 43900 69400 73000 75100
2021-02-24 05:00 5.57 34000 76500 (2016) 40900 (2018) 60600 42100 43900 69400 73000 75100
2021-02-24 04:00 5.59 34100 76500 (2016) 40900 (2018) 60600 42100 43900 69400 73000 75100
2021-02-24 03:00 5.56 34000 76500 (2016) 40900 (2018) 60600 42100 43900 69400 73000 75100
2021-02-24 02:00 5.56 34000 76500 (2016) 40900 (2018) 60600 42100 43900 69400 73000 75100
2021-02-24 01:00 5.56 34000 76500 (2016) 40900 (2018) 60600 42100 43900 69400 73000 75100
2021-02-24 00:00 5.56 34000 76500 (2016) 40900 (2018) 60600 42100 43900 69400 73000 75100
2021-02-23 23:00 5.54 33900 80600 (2016) 40800 (2018) 58000 42000 43800 52200 75200 78500
2021-02-23 22:00 5.55 33900 80600 (2016) 40800 (2018) 58000 42000 43800 52200 75200 78500
2021-02-23 21:00 5.52 33800 80600 (2016) 40800 (2018) 58000 42000 43800 52200 75200 78500
2021-02-23 20:00 5.54 33900 80600 (2016) 40800 (2018) 58000 42000 43800 52200 75200 78500
2021-02-23 19:00 5.52 33800 80600 (2016) 40800 (2018) 58000 42000 43800 52200 75200 78500
2021-02-23 18:00 5.52 33800 80600 (2016) 40800 (2018) 58000 42000 43800 52200 75200 78500
2021-02-23 17:00 5.52 33800 80600 (2016) 40800 (2018) 58000 42000 43800 52200 75200 78500
2021-02-23 16:00 5.50 33700 80600 (2016) 40800 (2018) 58000 42000 43800 52200 75200 78500
2021-02-23 15:00 5.48 33600 80600 (2016) 40800 (2018) 58000 42000 43800 52200 75200 78500
2021-02-23 14:00 5.49 33700 80600 (2016) 40800 (2018) 58000 42000 43800 52200 75200 78500
2021-02-23 13:00 5.46 33600 80600 (2016) 40800 (2018) 58000 42000 43800 52200 75200 78500
2021-02-23 12:00 5.45 33500 80600 (2016) 40800 (2018) 58000 42000 43800 52200 75200 78500
2021-02-23 11:00 5.45 33500 80600 (2016) 40800 (2018) 58000 42000 43800 52200 75200 78500
2021-02-23 10:00 5.42 33400 80600 (2016) 40800 (2018) 58000 42000 43800 52200 75200 78500
2021-02-23 09:00 5.40 33300 80600 (2016) 40800 (2018) 58000 42000 43800 52200 75200 78500
2021-02-23 08:00 5.41 33300 80600 (2016) 40800 (2018) 58000 42000 43800 52200 75200 78500
2021-02-23 07:00 5.37 33200 80600 (2016) 40800 (2018) 58000 42000 43800 52200 75200 78500
2021-02-23 06:00 5.36 33100 80600 (2016) 40800 (2018) 58000 42000 43800 52200 75200 78500
2021-02-23 05:00 5.36 33100 80600 (2016) 40800 (2018) 58000 42000 43800 52200 75200 78500
2021-02-23 04:00 5.32 32900 80600 (2016) 40800 (2018) 58000 42000 43800 52200 75200 78500
2021-02-23 03:00 5.32 32900 80600 (2016) 40800 (2018) 58000 42000 43800 52200 75200 78500
2021-02-23 02:00 5.31 32900 80600 (2016) 40800 (2018) 58000 42000 43800 52200 75200 78500
2021-02-23 01:00 5.29 32800 80600 (2016) 40800 (2018) 58000 42000 43800 52200 75200 78500
2021-02-23 00:00 5.27 32700 80600 (2016) 40800 (2018) 58000 42000 43800 52200 75200 78500
2021-02-22 23:00 5.24 32600 75000 (2016) 39800 (2018) 57000 41200 43200 49700 74500 74800
2021-02-22 22:00 5.25 32600 75000 (2016) 39800 (2018) 57000 41200 43200 49700 74500 74800
2021-02-22 21:00 5.23 32600 75000 (2016) 39800 (2018) 57000 41200 43200 49700 74500 74800
2021-02-22 20:00 5.22 32500 75000 (2016) 39800 (2018) 57000 41200 43200 49700 74500 74800
2021-02-22 19:00 5.22 32500 75000 (2016) 39800 (2018) 57000 41200 43200 49700 74500 74800
2021-02-22 18:00 5.21 32500 75000 (2016) 39800 (2018) 57000 41200 43200 49700 74500 74800
2021-02-22 17:00 5.20 32400 75000 (2016) 39800 (2018) 57000 41200 43200 49700 74500 74800
2021-02-22 16:00 5.19 32400 75000 (2016) 39800 (2018) 57000 41200 43200 49700 74500 74800
2021-02-22 15:00 5.16 32300 75000 (2016) 39800 (2018) 57000 41200 43200 49700 74500 74800
2021-02-22 14:00 5.16 32300 75000 (2016) 39800 (2018) 57000 41200 43200 49700 74500 74800
2021-02-22 13:00 5.14 32200 75000 (2016) 39800 (2018) 57000 41200 43200 49700 74500 74800
2021-02-22 12:00 5.15 32200 75000 (2016) 39800 (2018) 57000 41200 43200 49700 74500 74800
2021-02-22 11:00 5.15 32200 75000 (2016) 39800 (2018) 57000 41200 43200 49700 74500 74800
2021-02-22 10:00 5.14 32200 75000 (2016) 39800 (2018) 57000 41200 43200 49700 74500 74800
2021-02-22 09:00 5.13 32100 75000 (2016) 39800 (2018) 57000 41200 43200 49700 74500 74800
2021-02-22 08:00 5.14 32200 75000 (2016) 39800 (2018) 57000 41200 43200 49700 74500 74800
2021-02-22 07:00 5.13 32100 75000 (2016) 39800 (2018) 57000 41200 43200 49700 74500 74800
2021-02-22 06:00 5.12 32100 75000 (2016) 39800 (2018) 57000 41200 43200 49700 74500 74800
2021-02-22 05:00 5.11 32100 75000 (2016) 39800 (2018) 57000 41200 43200 49700 74500 74800
2021-02-22 04:00 5.10 32000 75000 (2016) 39800 (2018) 57000 41200 43200 49700 74500 74800
2021-02-22 03:00 5.09 32000 75000 (2016) 39800 (2018) 57000 41200 43200 49700 74500 74800
2021-02-22 02:00 5.09 32000 75000 (2016) 39800 (2018) 57000 41200 43200 49700 74500 74800
2021-02-22 01:00 5.10 32000 75000 (2016) 39800 (2018) 57000 41200 43200 49700 74500 74800
2021-02-22 00:00 5.07 31900 75000 (2016) 39800 (2018) 57000 41200 43200 49700 74500 74800
2021-02-21 23:00 5.09 32000 75900 (2020) 39600 (2018) 54900 40900 42800 49800 69500 73300
2021-02-21 22:00 5.08 31900 75900 (2020) 39600 (2018) 54900 40900 42800 49800 69500 73300
2021-02-21 21:00 5.08 31900 75900 (2020) 39600 (2018) 54900 40900 42800 49800 69500 73300
2021-02-21 20:00 5.08 31900 75900 (2020) 39600 (2018) 54900 40900 42800 49800 69500 73300
2021-02-21 19:00 5.07 31900 75900 (2020) 39600 (2018) 54900 40900 42800 49800 69500 73300
2021-02-21 18:00 5.06 31800 75900 (2020) 39600 (2018) 54900 40900 42800 49800 69500 73300
2021-02-21 17:00 5.07 31900 75900 (2020) 39600 (2018) 54900 40900 42800 49800 69500 73300
2021-02-21 16:00 5.06 31800 75900 (2020) 39600 (2018) 54900 40900 42800 49800 69500 73300
2021-02-21 15:00 5.03 31700 75900 (2020) 39600 (2018) 54900 40900 42800 49800 69500 73300
2021-02-21 14:00 5.05 31800 75900 (2020) 39600 (2018) 54900 40900 42800 49800 69500 73300
2021-02-21 13:00 5.02 31700 75900 (2020) 39600 (2018) 54900 40900 42800 49800 69500 73300
2021-02-21 12:00 5.01 31600 75900 (2020) 39600 (2018) 54900 40900 42800 49800 69500 73300
2021-02-21 11:00 5.00 31600 75900 (2020) 39600 (2018) 54900 40900 42800 49800 69500 73300
2021-02-21 10:00 4.97 31500 75900 (2020) 39600 (2018) 54900 40900 42800 49800 69500 73300
2021-02-21 09:00 4.97 31500 75900 (2020) 39600 (2018) 54900 40900 42800 49800 69500 73300
2021-02-21 08:00 4.98 31500 75900 (2020) 39600 (2018) 54900 40900 42800 49800 69500 73300
2021-02-21 07:00 4.96 31400 75900 (2020) 39600 (2018) 54900 40900 42800 49800 69500 73300
2021-02-21 06:00 4.98 31500 75900 (2020) 39600 (2018) 54900 40900 42800 49800 69500 73300
2021-02-21 05:00 4.95 31400 75900 (2020) 39600 (2018) 54900 40900 42800 49800 69500 73300
2021-02-21 04:00 4.96 31400 75900 (2020) 39600 (2018) 54900 40900 42800 49800 69500 73300
2021-02-21 03:00 4.94 31300 75900 (2020) 39600 (2018) 54900 40900 42800 49800 69500 73300
2021-02-21 02:00 4.92 31300 75900 (2020) 39600 (2018) 54900 40900 42800 49800 69500 73300
2021-02-21 01:00 4.93 31300 75900 (2020) 39600 (2018) 54900 40900 42800 49800 69500 73300
2021-02-21 00:00 4.94 31300 75900 (2020) 39600 (2018) 54900 40900 42800 49800 69500 73300
2021-02-20 23:00 4.94 31300 73200 (2020) 38100 (2018) 53500 39800 42400 50200 66200 70400
2021-02-20 22:00 4.92 31300 73200 (2020) 38100 (2018) 53500 39800 42400 50200 66200 70400
2021-02-20 21:00 4.92 31300 73200 (2020) 38100 (2018) 53500 39800 42400 50200 66200 70400
2021-02-20 20:00 4.92 31300 73200 (2020) 38100 (2018) 53500 39800 42400 50200 66200 70400
2021-02-20 19:00 4.90 31200 73200 (2020) 38100 (2018) 53500 39800 42400 50200 66200 70400
2021-02-20 18:00 4.89 31100 73200 (2020) 38100 (2018) 53500 39800 42400 50200 66200 70400
2021-02-20 17:00 4.90 31200 73200 (2020) 38100 (2018) 53500 39800 42400 50200 66200 70400
2021-02-20 16:00 4.87 31100 73200 (2020) 38100 (2018) 53500 39800 42400 50200 66200 70400
2021-02-20 15:00 4.87 31100 73200 (2020) 38100 (2018) 53500 39800 42400 50200 66200 70400
2021-02-20 14:00 4.85 31000 73200 (2020) 38100 (2018) 53500 39800 42400 50200 66200 70400
2021-02-20 13:00 4.86 31000 73200 (2020) 38100 (2018) 53500 39800 42400 50200 66200 70400
2021-02-20 12:00 4.86 31000 73200 (2020) 38100 (2018) 53500 39800 42400 50200 66200 70400
2021-02-20 11:00 4.86 31000 73200 (2020) 38100 (2018) 53500 39800 42400 50200 66200 70400
2021-02-20 10:00 4.85 31000 73200 (2020) 38100 (2018) 53500 39800 42400 50200 66200 70400
2021-02-20 09:00 4.85 31000 73200 (2020) 38100 (2018) 53500 39800 42400 50200 66200 70400
2021-02-20 08:00 4.85 31000 73200 (2020) 38100 (2018) 53500 39800 42400 50200 66200 70400
2021-02-20 07:00 4.87 31100 73200 (2020) 38100 (2018) 53500 39800 42400 50200 66200 70400
2021-02-20 06:00 4.85 31000 73200 (2020) 38100 (2018) 53500 39800 42400 50200 66200 70400
2021-02-20 05:00 4.86 31000 73200 (2020) 38100 (2018) 53500 39800 42400 50200 66200 70400
2021-02-20 04:00 4.89 31100 73200 (2020) 38100 (2018) 53500 39800 42400 50200 66200 70400
2021-02-20 03:00 4.87 31100 73200 (2020) 38100 (2018) 53500 39800 42400 50200 66200 70400
2021-02-20 02:00 4.86 31000 73200 (2020) 38100 (2018) 53500 39800 42400 50200 66200 70400
2021-02-20 01:00 4.88 31100 73200 (2020) 38100 (2018) 53500 39800 42400 50200 66200 70400
2021-02-20 00:00 4.86 31000 73200 (2020) 38100 (2018) 53500 39800 42400 50200 66200 70400
2021-02-19 23:00 4.86 31000 70600 (2020) 36400 (2018) 52000 38700 42200 51100 62300 67300
2021-02-19 22:00 4.84 30900 70600 (2020) 36400 (2018) 52000 38700 42200 51100 62300 67300
2021-02-19 21:00 4.85 31000 70600 (2020) 36400 (2018) 52000 38700 42200 51100 62300 67300
2021-02-19 20:00 4.86 31000 70600 (2020) 36400 (2018) 52000 38700 42200 51100 62300 67300
2021-02-19 19:00 4.85 31000 70600 (2020) 36400 (2018) 52000 38700 42200 51100 62300 67300
2021-02-19 18:00 4.84 30900 70600 (2020) 36400 (2018) 52000 38700 42200 51100 62300 67300
2021-02-19 17:00 4.83 30900 70600 (2020) 36400 (2018) 52000 38700 42200 51100 62300 67300
2021-02-19 16:00 4.82 30900 70600 (2020) 36400 (2018) 52000 38700 42200 51100 62300 67300
2021-02-19 15:00 4.83 30900 70600 (2020) 36400 (2018) 52000 38700 42200 51100 62300 67300
2021-02-19 14:00 4.82 30900 70600 (2020) 36400 (2018) 52000 38700 42200 51100 62300 67300
2021-02-19 13:00 4.82 30900 70600 (2020) 36400 (2018) 52000 38700 42200 51100 62300 67300
2021-02-19 12:00 4.83 30900 70600 (2020) 36400 (2018) 52000 38700 42200 51100 62300 67300
2021-02-19 11:00 4.83 30900 70600 (2020) 36400 (2018) 52000 38700 42200 51100 62300 67300
2021-02-19 10:00 4.83 30900 70600 (2020) 36400 (2018) 52000 38700 42200 51100 62300 67300
2021-02-19 09:00 4.85 31000 70600 (2020) 36400 (2018) 52000 38700 42200 51100 62300 67300
2021-02-19 08:00 4.85 31000 70600 (2020) 36400 (2018) 52000 38700 42200 51100 62300 67300
2021-02-19 07:00 4.86 31000 70600 (2020) 36400 (2018) 52000 38700 42200 51100 62300 67300
2021-02-19 06:00 4.85 31000 70600 (2020) 36400 (2018) 52000 38700 42200 51100 62300 67300
2021-02-19 05:00 4.85 31000 70600 (2020) 36400 (2018) 52000 38700 42200 51100 62300 67300
2021-02-19 04:00 4.86 31000 70600 (2020) 36400 (2018) 52000 38700 42200 51100 62300 67300
2021-02-19 03:00 4.85 31000 70600 (2020) 36400 (2018) 52000 38700 42200 51100 62300 67300
2021-02-19 02:00 4.85 31000 70600 (2020) 36400 (2018) 52000 38700 42200 51100 62300 67300
2021-02-19 01:00 4.85 31000 70600 (2020) 36400 (2018) 52000 38700 42200 51100 62300 67300
2021-02-19 00:00 4.85 31000 70600 (2020) 36400 (2018) 52000 38700 42200 51100 62300 67300
2021-02-18 23:00 4.85 31000 66700 (2020) 35500 (2018) 50100 38000 41800 48700 59000 63600
2021-02-18 22:00 4.86 31000 66700 (2020) 35500 (2018) 50100 38000 41800 48700 59000 63600
2021-02-18 21:00 4.86 31000 66700 (2020) 35500 (2018) 50100 38000 41800 48700 59000 63600
2021-02-18 20:00 4.87 31100 66700 (2020) 35500 (2018) 50100 38000 41800 48700 59000 63600
2021-02-18 19:00 4.86 31000 66700 (2020) 35500 (2018) 50100 38000 41800 48700 59000 63600
2021-02-18 18:00 4.87 31100 66700 (2020) 35500 (2018) 50100 38000 41800 48700 59000 63600
2021-02-18 17:00 4.86 31000 66700 (2020) 35500 (2018) 50100 38000 41800 48700 59000 63600
2021-02-18 16:00 4.88 31100 66700 (2020) 35500 (2018) 50100 38000 41800 48700 59000 63600
2021-02-18 15:00 4.86 31000 66700 (2020) 35500 (2018) 50100 38000 41800 48700 59000 63600
2021-02-18 14:00 4.86 31000 66700 (2020) 35500 (2018) 50100 38000 41800 48700 59000 63600
2021-02-18 13:00 4.86 31000 66700 (2020) 35500 (2018) 50100 38000 41800 48700 59000 63600
2021-02-18 12:00 4.88 31100 66700 (2020) 35500 (2018) 50100 38000 41800 48700 59000 63600
2021-02-18 11:00 4.88 31100 66700 (2020) 35500 (2018) 50100 38000 41800 48700 59000 63600
2021-02-18 10:00 4.89 31100 66700 (2020) 35500 (2018) 50100 38000 41800 48700 59000 63600
2021-02-18 09:00 4.87 31100 66700 (2020) 35500 (2018) 50100 38000 41800 48700 59000 63600
2021-02-18 08:00 4.88 31100 66700 (2020) 35500 (2018) 50100 38000 41800 48700 59000 63600
2021-02-18 07:00 4.87 31100 66700 (2020) 35500 (2018) 50100 38000 41800 48700 59000 63600
2021-02-18 06:00 4.88 31100 66700 (2020) 35500 (2018) 50100 38000 41800 48700 59000 63600
2021-02-18 05:00 4.87 31100 66700 (2020) 35500 (2018) 50100 38000 41800 48700 59000 63600
2021-02-18 04:00 4.88 31100 66700 (2020) 35500 (2018) 50100 38000 41800 48700 59000 63600
2021-02-18 03:00 4.86 31000 66700 (2020) 35500 (2018) 50100 38000 41800 48700 59000 63600
2021-02-18 02:00 4.86 31000 66700 (2020) 35500 (2018) 50100 38000 41800 48700 59000 63600
2021-02-18 01:00 4.85 31000 66700 (2020) 35500 (2018) 50100 38000 41800 48700 59000 63600
2021-02-18 00:00 4.84 30900 66700 (2020) 35500 (2018) 50100 38000 41800 48700 59000 63600
2021-02-17 23:00 4.83 30900 64900 (2020) 35100 (2018) 49900 37800 41900 49000 58400 62300
2021-02-17 22:00 4.83 30900 64900 (2020) 35100 (2018) 49900 37800 41900 49000 58400 62300
2021-02-17 21:00 4.81 30800 64900 (2020) 35100 (2018) 49900 37800 41900 49000 58400 62300
2021-02-17 20:00 4.81 30800 64900 (2020) 35100 (2018) 49900 37800 41900 49000 58400 62300
2021-02-17 19:00 4.80 30800 64900 (2020) 35100 (2018) 49900 37800 41900 49000 58400 62300
2021-02-17 18:00 4.79 30700 64900 (2020) 35100 (2018) 49900 37800 41900 49000 58400 62300
2021-02-17 17:00 4.78 30700 64900 (2020) 35100 (2018) 49900 37800 41900 49000 58400 62300
2021-02-17 16:00 4.79 30700 64900 (2020) 35100 (2018) 49900 37800 41900 49000 58400 62300
2021-02-17 15:00 4.77 30700 64900 (2020) 35100 (2018) 49900 37800 41900 49000 58400 62300
2021-02-17 14:00 4.78 30700 64900 (2020) 35100 (2018) 49900 37800 41900 49000 58400 62300
2021-02-17 13:00 4.78 30700 64900 (2020) 35100 (2018) 49900 37800 41900 49000 58400 62300
2021-02-17 12:00 4.78 30700 64900 (2020) 35100 (2018) 49900 37800 41900 49000 58400 62300
2021-02-17 11:00 4.77 30700 64900 (2020) 35100 (2018) 49900 37800 41900 49000 58400 62300
2021-02-17 10:00 4.77 30700 64900 (2020) 35100 (2018) 49900 37800 41900 49000 58400 62300
2021-02-17 09:00 4.76 30600 64900 (2020) 35100 (2018) 49900 37800 41900 49000 58400 62300
2021-02-17 08:00 4.77 30700 64900 (2020) 35100 (2018) 49900 37800 41900 49000 58400 62300
2021-02-17 07:00 4.77 30700 64900 (2020) 35100 (2018) 49900 37800 41900 49000 58400 62300
2021-02-17 06:00 4.74 30500 64900 (2020) 35100 (2018) 49900 37800 41900 49000 58400 62300
2021-02-17 05:00 4.74 30500 64900 (2020) 35100 (2018) 49900 37800 41900 49000 58400 62300
2021-02-17 04:00 4.77 30700 64900 (2020) 35100 (2018) 49900 37800 41900 49000 58400 62300
2021-02-17 03:00 4.75 30600 64900 (2020) 35100 (2018) 49900 37800 41900 49000 58400 62300
2021-02-17 02:00 4.76 30600 64900 (2020) 35100 (2018) 49900 37800 41900 49000 58400 62300
2021-02-17 01:00 4.76 30600 64900 (2020) 35100 (2018) 49900 37800 41900 49000 58400 62300
2021-02-17 00:00 4.76 30600 64900 (2020) 35100 (2018) 49900 37800 41900 49000 58400 62300
2021-02-16 23:00 4.75 30600 67200 (2020) 34400 (2018) 51000 37400 42000 51100 60000 64300
2021-02-16 22:00 4.74 30500 67200 (2020) 34400 (2018) 51000 37400 42000 51100 60000 64300
2021-02-16 21:00 4.73 30500 67200 (2020) 34400 (2018) 51000 37400 42000 51100 60000 64300
2021-02-16 20:00 4.71 30400 67200 (2020) 34400 (2018) 51000 37400 42000 51100 60000 64300
2021-02-16 19:00 4.69 30300 67200 (2020) 34400 (2018) 51000 37400 42000 51100 60000 64300
2021-02-16 18:00 4.49 29500 67200 (2020) 34400 (2018) 51000 37400 42000 51100 60000 64300
2021-02-16 17:00 4.51 29600 67200 (2020) 34400 (2018) 51000 37400 42000 51100 60000 64300
2021-02-16 16:00 4.51 29600 67200 (2020) 34400 (2018) 51000 37400 42000 51100 60000 64300
2021-02-16 15:00 4.53 29700 67200 (2020) 34400 (2018) 51000 37400 42000 51100 60000 64300
2021-02-16 14:00 4.54 29700 67200 (2020) 34400 (2018) 51000 37400 42000 51100 60000 64300
2021-02-16 13:00 4.56 29800 67200 (2020) 34400 (2018) 51000 37400 42000 51100 60000 64300
2021-02-16 12:00 4.57 29800 67200 (2020) 34400 (2018) 51000 37400 42000 51100 60000 64300
2021-02-16 11:00 4.59 29900 67200 (2020) 34400 (2018) 51000 37400 42000 51100 60000 64300
2021-02-16 10:00 4.62 30000 67200 (2020) 34400 (2018) 51000 37400 42000 51100 60000 64300
2021-02-16 09:00 4.62 30000 67200 (2020) 34400 (2018) 51000 37400 42000 51100 60000 64300
2021-02-16 08:00 4.63 30100 67200 (2020) 34400 (2018) 51000 37400 42000 51100 60000 64300
2021-02-16 07:00 4.66 30200 67200 (2020) 34400 (2018) 51000 37400 42000 51100 60000 64300
2021-02-16 06:00 4.66 30200 67200 (2020) 34400 (2018) 51000 37400 42000 51100 60000 64300
2021-02-16 05:00 4.67 30200 67200 (2020) 34400 (2018) 51000 37400 42000 51100 60000 64300
2021-02-16 04:00 4.69 30300 67200 (2020) 34400 (2018) 51000 37400 42000 51100 60000 64300
2021-02-16 03:00 4.68 30300 67200 (2020) 34400 (2018) 51000 37400 42000 51100 60000 64300
2021-02-16 01:00 4.70 30400 67200 (2020) 34400 (2018) 51000 37400 42000 51100 60000 64300
2021-02-16 00:00 4.70 30400 67200 (2020) 34400 (2018) 51000 37400 42000 51100 60000 64300
2021-02-15 23:00 4.70 30400 70300 (2020) 34000 (2018) 50900 36300 39700 50400 62300 67100
2021-02-15 22:00 4.72 30400 70300 (2020) 34000 (2018) 50900 36300 39700 50400 62300 67100
2021-02-15 21:00 4.72 30400 70300 (2020) 34000 (2018) 50900 36300 39700 50400 62300 67100
2021-02-15 20:00 4.72 30400 70300 (2020) 34000 (2018) 50900 36300 39700 50400 62300 67100
2021-02-15 19:00 4.73 30500 70300 (2020) 34000 (2018) 50900 36300 39700 50400 62300 67100
2021-02-15 18:00 4.74 30500 70300 (2020) 34000 (2018) 50900 36300 39700 50400 62300 67100
2021-02-15 17:00 4.76 30600 70300 (2020) 34000 (2018) 50900 36300 39700 50400 62300 67100
2021-02-15 16:00 4.77 30700 70300 (2020) 34000 (2018) 50900 36300 39700 50400 62300 67100
2021-02-15 15:00 4.78 30700 70300 (2020) 34000 (2018) 50900 36300 39700 50400 62300 67100
2021-02-15 14:00 4.78 30700 70300 (2020) 34000 (2018) 50900 36300 39700 50400 62300 67100
2021-02-15 13:00 4.77 30700 70300 (2020) 34000 (2018) 50900 36300 39700 50400 62300 67100
2021-02-15 12:00 4.79 30700 70300 (2020) 34000 (2018) 50900 36300 39700 50400 62300 67100
2021-02-15 11:00 4.81 30800 70300 (2020) 34000 (2018) 50900 36300 39700 50400 62300 67100
2021-02-15 10:00 4.81 30800 70300 (2020) 34000 (2018) 50900 36300 39700 50400 62300 67100
2021-02-15 09:00 4.82 30900 70300 (2020) 34000 (2018) 50900 36300 39700 50400 62300 67100
2021-02-15 08:00 4.82 30900 70300 (2020) 34000 (2018) 50900 36300 39700 50400 62300 67100
2021-02-15 07:00 4.85 31000 70300 (2020) 34000 (2018) 50900 36300 39700 50400 62300 67100
2021-02-15 06:00 4.84 30900 70300 (2020) 34000 (2018) 50900 36300 39700 50400 62300 67100
2021-02-15 05:00 4.86 31000 70300 (2020) 34000 (2018) 50900 36300 39700 50400 62300 67100
2021-02-15 04:00 4.85 31000 70300 (2020) 34000 (2018) 50900 36300 39700 50400 62300 67100
2021-02-15 02:00 4.82 30900 70300 (2020) 34000 (2018) 50900 36300 39700 50400 62300 67100
2021-02-15 01:00 4.83 30900 70300 (2020) 34000 (2018) 50900 36300 39700 50400 62300 67100
2021-02-15 00:00 4.83 30900 70300 (2020) 34000 (2018) 50900 36300 39700 50400 62300 67100
2021-02-14 23:00 4.82 30900 72900 (2020) 34200 (2018) 50100 35100 36400 50800 63500 69100
2021-02-14 22:00 4.82 30900 72900 (2020) 34200 (2018) 50100 35100 36400 50800 63500 69100
2021-02-14 21:00 4.80 30800 72900 (2020) 34200 (2018) 50100 35100 36400 50800 63500 69100
2021-02-14 20:00 4.81 30800 72900 (2020) 34200 (2018) 50100 35100 36400 50800 63500 69100
2021-02-14 19:00 4.80 30800 72900 (2020) 34200 (2018) 50100 35100 36400 50800 63500 69100
2021-02-14 18:00 4.81 30800 72900 (2020) 34200 (2018) 50100 35100 36400 50800 63500 69100
2021-02-14 17:00 4.83 30900 72900 (2020) 34200 (2018) 50100 35100 36400 50800 63500 69100
2021-02-14 16:00 4.81 30800 72900 (2020) 34200 (2018) 50100 35100 36400 50800 63500 69100
2021-02-14 15:00 4.84 30900 72900 (2020) 34200 (2018) 50100 35100 36400 50800 63500 69100
2021-02-14 14:00 4.87 31100 72900 (2020) 34200 (2018) 50100 35100 36400 50800 63500 69100
2021-02-14 13:00 4.87 31100 72900 (2020) 34200 (2018) 50100 35100 36400 50800 63500 69100
2021-02-14 12:00 4.86 31000 72900 (2020) 34200 (2018) 50100 35100 36400 50800 63500 69100
2021-02-14 11:00 4.87 31100 72900 (2020) 34200 (2018) 50100 35100 36400 50800 63500 69100
2021-02-14 10:00 4.88 31100 72900 (2020) 34200 (2018) 50100 35100 36400 50800 63500 69100
2021-02-14 09:00 4.90 31200 72900 (2020) 34200 (2018) 50100 35100 36400 50800 63500 69100
2021-02-14 08:00 4.88 31100 72900 (2020) 34200 (2018) 50100 35100 36400 50800 63500 69100
2021-02-14 07:00 4.90 31200 72900 (2020) 34200 (2018) 50100 35100 36400 50800 63500 69100
2021-02-14 06:00 4.93 31300 72900 (2020) 34200 (2018) 50100 35100 36400 50800 63500 69100
2021-02-14 05:00 4.91 31200 72900 (2020) 34200 (2018) 50100 35100 36400 50800 63500 69100
2021-02-14 04:00 4.92 31300 72900 (2020) 34200 (2018) 50100 35100 36400 50800 63500 69100
2021-02-14 03:00 4.94 31300 72900 (2020) 34200 (2018) 50100 35100 36400 50800 63500 69100
2021-02-14 02:00 4.93 31300 72900 (2020) 34200 (2018) 50100 35100 36400 50800 63500 69100
2021-02-14 01:00 4.92 31300 72900 (2020) 34200 (2018) 50100 35100 36400 50800 63500 69100
2021-02-14 00:00 4.94 31300 72900 (2020) 34200 (2018) 50100 35100 36400 50800 63500 69100
2021-02-13 23:00 4.93 31300 74100 (2020) 34600 (2018) 50400 35300 36300 50700 64300 70200
2021-02-13 22:00 4.94 31300 74100 (2020) 34600 (2018) 50400 35300 36300 50700 64300 70200
2021-02-13 21:00 4.94 31300 74100 (2020) 34600 (2018) 50400 35300 36300 50700 64300 70200
2021-02-13 20:00 4.93 31300 74100 (2020) 34600 (2018) 50400 35300 36300 50700 64300 70200
2021-02-13 19:00 4.95 31400 74100 (2020) 34600 (2018) 50400 35300 36300 50700 64300 70200
2021-02-13 18:00 4.97 31500 74100 (2020) 34600 (2018) 50400 35300 36300 50700 64300 70200
2021-02-13 17:00 4.96 31400 74100 (2020) 34600 (2018) 50400 35300 36300 50700 64300 70200
2021-02-13 16:00 4.98 31500 74100 (2020) 34600 (2018) 50400 35300 36300 50700 64300 70200
2021-02-13 15:00 4.97 31500 74100 (2020) 34600 (2018) 50400 35300 36300 50700 64300 70200
2021-02-13 14:00 4.99 31600 74100 (2020) 34600 (2018) 50400 35300 36300 50700 64300 70200
2021-02-13 13:00 4.98 31500 74100 (2020) 34600 (2018) 50400 35300 36300 50700 64300 70200
2021-02-13 12:00 4.98 31500 74100 (2020) 34600 (2018) 50400 35300 36300 50700 64300 70200
2021-02-13 11:00 4.99 31600 74100 (2020) 34600 (2018) 50400 35300 36300 50700 64300 70200
2021-02-13 10:00 4.99 31600 74100 (2020) 34600 (2018) 50400 35300 36300 50700 64300 70200
2021-02-13 09:00 4.98 31500 74100 (2020) 34600 (2018) 50400 35300 36300 50700 64300 70200
2021-02-13 08:00 5.01 31600 74100 (2020) 34600 (2018) 50400 35300 36300 50700 64300 70200
2021-02-13 07:00 4.99 31600 74100 (2020) 34600 (2018) 50400 35300 36300 50700 64300 70200
2021-02-13 06:00 5.00 31600 74100 (2020) 34600 (2018) 50400 35300 36300 50700 64300 70200
2021-02-13 05:00 5.00 31600 74100 (2020) 34600 (2018) 50400 35300 36300 50700 64300 70200
2021-02-13 04:00 5.00 31600 74100 (2020) 34600 (2018) 50400 35300 36300 50700 64300 70200
2021-02-13 03:00 5.01 31600 74100 (2020) 34600 (2018) 50400 35300 36300 50700 64300 70200
2021-02-13 02:00 5.00 31600 74100 (2020) 34600 (2018) 50400 35300 36300 50700 64300 70200
2021-02-13 01:00 5.01 31600 74100 (2020) 34600 (2018) 50400 35300 36300 50700 64300 70200
2021-02-13 00:00 5.00 31600 74100 (2020) 34600 (2018) 50400 35300 36300 50700 64300 70200
2021-02-12 23:00 4.99 31600 74400 (2020) 34900 (2018) 51000 35800 37100 52100 64300 70400
2021-02-12 22:00 5.00 31600 74400 (2020) 34900 (2018) 51000 35800 37100 52100 64300 70400
2021-02-12 21:00 4.99 31600 74400 (2020) 34900 (2018) 51000 35800 37100 52100 64300 70400
2021-02-12 20:00 4.99 31600 74400 (2020) 34900 (2018) 51000 35800 37100 52100 64300 70400
2021-02-12 19:00 4.97 31500 74400 (2020) 34900 (2018) 51000 35800 37100 52100 64300 70400
2021-02-12 18:00 4.98 31500 74400 (2020) 34900 (2018) 51000 35800 37100 52100 64300 70400
2021-02-12 17:00 5.00 31600 74400 (2020) 34900 (2018) 51000 35800 37100 52100 64300 70400
2021-02-12 16:00 4.97 31500 74400 (2020) 34900 (2018) 51000 35800 37100 52100 64300 70400
2021-02-12 15:00 4.98 31500 74400 (2020) 34900 (2018) 51000 35800 37100 52100 64300 70400
2021-02-12 14:00 4.97 31500 74400 (2020) 34900 (2018) 51000 35800 37100 52100 64300 70400
2021-02-12 13:00 4.99 31600 74400 (2020) 34900 (2018) 51000 35800 37100 52100 64300 70400
2021-02-12 12:00 5.00 31600 74400 (2020) 34900 (2018) 51000 35800 37100 52100 64300 70400
2021-02-12 11:00 4.96 31400 74400 (2020) 34900 (2018) 51000 35800 37100 52100 64300 70400
2021-02-12 10:00 4.96 31400 74400 (2020) 34900 (2018) 51000 35800 37100 52100 64300 70400
2021-02-12 09:00 4.96 31400 74400 (2020) 34900 (2018) 51000 35800 37100 52100 64300 70400
2021-02-12 08:00 4.96 31400 74400 (2020) 34900 (2018) 51000 35800 37100 52100 64300 70400
2021-02-12 07:00 4.94 31300 74400 (2020) 34900 (2018) 51000 35800 37100 52100 64300 70400
2021-02-12 06:00 4.94 31300 74400 (2020) 34900 (2018) 51000 35800 37100 52100 64300 70400
2021-02-12 05:00 4.93 31300 74400 (2020) 34900 (2018) 51000 35800 37100 52100 64300 70400
2021-02-12 04:00 4.94 31300 74400 (2020) 34900 (2018) 51000 35800 37100 52100 64300 70400
2021-02-12 03:00 4.94 31300 74400 (2020) 34900 (2018) 51000 35800 37100 52100 64300 70400
2021-02-12 02:00 4.93 31300 74400 (2020) 34900 (2018) 51000 35800 37100 52100 64300 70400
2021-02-12 01:00 4.95 31400 74400 (2020) 34900 (2018) 51000 35800 37100 52100 64300 70400
2021-02-12 00:00 4.93 31300 74400 (2020) 34900 (2018) 51000 35800 37100 52100 64300 70400
2021-02-11 23:00 4.91 31200 75100 (2020) 34800 (2018) 50900 35800 37300 51500 64000 70700
2021-02-11 22:00 4.93 31300 75100 (2020) 34800 (2018) 50900 35800 37300 51500 64000 70700
2021-02-11 21:00 4.91 31200 75100 (2020) 34800 (2018) 50900 35800 37300 51500 64000 70700
2021-02-11 20:00 4.91 31200 75100 (2020) 34800 (2018) 50900 35800 37300 51500 64000 70700
2021-02-11 19:00 4.94 31300 75100 (2020) 34800 (2018) 50900 35800 37300 51500 64000 70700
2021-02-11 18:00 4.91 31200 75100 (2020) 34800 (2018) 50900 35800 37300 51500 64000 70700
2021-02-11 17:00 4.92 31300 75100 (2020) 34800 (2018) 50900 35800 37300 51500 64000 70700
2021-02-11 16:00 4.89 31100 75100 (2020) 34800 (2018) 50900 35800 37300 51500 64000 70700
2021-02-11 15:00 4.91 31200 75100 (2020) 34800 (2018) 50900 35800 37300 51500 64000 70700
2021-02-11 14:00 4.89 31100 75100 (2020) 34800 (2018) 50900 35800 37300 51500 64000 70700
2021-02-11 13:00 4.92 31300 75100 (2020) 34800 (2018) 50900 35800 37300 51500 64000 70700
2021-02-11 12:00 4.91 31200 75100 (2020) 34800 (2018) 50900 35800 37300 51500 64000 70700
2021-02-11 11:00 4.91 31200 75100 (2020) 34800 (2018) 50900 35800 37300 51500 64000 70700
2021-02-11 10:00 4.91 31200 75100 (2020) 34800 (2018) 50900 35800 37300 51500 64000 70700
2021-02-11 09:00 4.90 31200 75100 (2020) 34800 (2018) 50900 35800 37300 51500 64000 70700
2021-02-11 08:00 4.89 31100 75100 (2020) 34800 (2018) 50900 35800 37300 51500 64000 70700
2021-02-11 07:00 4.91 31200 75100 (2020) 34800 (2018) 50900 35800 37300 51500 64000 70700
2021-02-11 06:00 4.92 31300 75100 (2020) 34800 (2018) 50900 35800 37300 51500 64000 70700
2021-02-11 05:00 4.90 31200 75100 (2020) 34800 (2018) 50900 35800 37300 51500 64000 70700
2021-02-11 04:00 4.89 31100 75100 (2020) 34800 (2018) 50900 35800 37300 51500 64000 70700
2021-02-11 03:00 4.90 31200 75100 (2020) 34800 (2018) 50900 35800 37300 51500 64000 70700
2021-02-11 02:00 4.89 31100 75100 (2020) 34800 (2018) 50900 35800 37300 51500 64000 70700
2021-02-11 01:00 4.87 31100 75100 (2020) 34800 (2018) 50900 35800 37300 51500 64000 70700
2021-02-11 00:00 4.88 31100 75100 (2020) 34800 (2018) 50900 35800 37300 51500 64000 70700
2021-02-10 23:00 4.88 31100 77600 (2020) 34800 (2018) 51200 35900 37500 50800 65100 72600
2021-02-10 22:00 4.86 31000 77600 (2020) 34800 (2018) 51200 35900 37500 50800 65100 72600
2021-02-10 21:00 4.87 31100 77600 (2020) 34800 (2018) 51200 35900 37500 50800 65100 72600
2021-02-10 20:00 4.86 31000 77600 (2020) 34800 (2018) 51200 35900 37500 50800 65100 72600
2021-02-10 19:00 4.87 31100 77600 (2020) 34800 (2018) 51200 35900 37500 50800 65100 72600
2021-02-10 18:00 4.89 31100 77600 (2020) 34800 (2018) 51200 35900 37500 50800 65100 72600
2021-02-10 17:00 4.88 31100 77600 (2020) 34800 (2018) 51200 35900 37500 50800 65100 72600
2021-02-10 16:00 4.89 31100 77600 (2020) 34800 (2018) 51200 35900 37500 50800 65100 72600
2021-02-10 15:00 4.90 31200 77600 (2020) 34800 (2018) 51200 35900 37500 50800 65100 72600
2021-02-10 14:00 4.89 31100 77600 (2020) 34800 (2018) 51200 35900 37500 50800 65100 72600
2021-02-10 13:00 4.90 31200 77600 (2020) 34800 (2018) 51200 35900 37500 50800 65100 72600
2021-02-10 12:00 4.90 31200 77600 (2020) 34800 (2018) 51200 35900 37500 50800 65100 72600
2021-02-10 11:00 4.88 31100 77600 (2020) 34800 (2018) 51200 35900 37500 50800 65100 72600
2021-02-10 10:00 4.88 31100 77600 (2020) 34800 (2018) 51200 35900 37500 50800 65100 72600
2021-02-10 09:00 4.89 31100 77600 (2020) 34800 (2018) 51200 35900 37500 50800 65100 72600
2021-02-10 08:00 4.90 31200 77600 (2020) 34800 (2018) 51200 35900 37500 50800 65100 72600
2021-02-10 07:00 4.90 31200 77600 (2020) 34800 (2018) 51200 35900 37500 50800 65100 72600
2021-02-10 06:00 4.90 31200 77600 (2020) 34800 (2018) 51200 35900 37500 50800 65100 72600
2021-02-10 05:00 4.90 31200 77600 (2020) 34800 (2018) 51200 35900 37500 50800 65100 72600
2021-02-10 04:00 4.91 31200 77600 (2020) 34800 (2018) 51200 35900 37500 50800 65100 72600
2021-02-10 03:00 4.91 31200 77600 (2020) 34800 (2018) 51200 35900 37500 50800 65100 72600
2021-02-10 02:00 4.92 31300 77600 (2020) 34800 (2018) 51200 35900 37500 50800 65100 72600
2021-02-10 01:00 4.93 31300 77600 (2020) 34800 (2018) 51200 35900 37500 50800 65100 72600
2021-02-10 00:00 4.93 31300 77600 (2020) 34800 (2018) 51200 35900 37500 50800 65100 72600
2021-02-09 23:00 4.94 31300 81200 (2020) 35100 (2018) 52500 36200 37800 52700 67000 75500
2021-02-09 22:00 4.95 31400 81200 (2020) 35100 (2018) 52500 36200 37800 52700 67000 75500
2021-02-09 21:00 4.98 31500 81200 (2020) 35100 (2018) 52500 36200 37800 52700 67000 75500
2021-02-09 20:00 5.00 31600 81200 (2020) 35100 (2018) 52500 36200 37800 52700 67000 75500
2021-02-09 19:00 5.04 31800 81200 (2020) 35100 (2018) 52500 36200 37800 52700 67000 75500
2021-02-09 18:00 5.04 31800 81200 (2020) 35100 (2018) 52500 36200 37800 52700 67000 75500
2021-02-09 17:00 5.05 31800 81200 (2020) 35100 (2018) 52500 36200 37800 52700 67000 75500
2021-02-09 16:00 5.09 32000 81200 (2020) 35100 (2018) 52500 36200 37800 52700 67000 75500
2021-02-09 15:00 5.12 32100 81200 (2020) 35100 (2018) 52500 36200 37800 52700 67000 75500
2021-02-09 14:00 5.17 32300 81200 (2020) 35100 (2018) 52500 36200 37800 52700 67000 75500
2021-02-09 13:00 5.18 32400 81200 (2020) 35100 (2018) 52500 36200 37800 52700 67000 75500
2021-02-09 12:00 5.23 32600 81200 (2020) 35100 (2018) 52500 36200 37800 52700 67000 75500
2021-02-09 11:00 5.31 32900 81200 (2020) 35100 (2018) 52500 36200 37800 52700 67000 75500
2021-02-09 10:00 5.37 33200 81200 (2020) 35100 (2018) 52500 36200 37800 52700 67000 75500
2021-02-09 09:00 5.50 33700 81200 (2020) 35100 (2018) 52500 36200 37800 52700 67000 75500
2021-02-09 08:00 5.97 35800 81200 (2020) 35100 (2018) 52500 36200 37800 52700 67000 75500
2021-02-09 07:00 6.11 36400 81200 (2020) 35100 (2018) 52500 36200 37800 52700 67000 75500
2021-02-09 06:00 5.34 33000 81200 (2020) 35100 (2018) 52500 36200 37800 52700 67000 75500
2021-02-09 05:00 5.30 32900 81200 (2020) 35100 (2018) 52500 36200 37800 52700 67000 75500
2021-02-09 04:00 5.29 32800 81200 (2020) 35100 (2018) 52500 36200 37800 52700 67000 75500
2021-02-09 03:00 5.30 32900 81200 (2020) 35100 (2018) 52500 36200 37800 52700 67000 75500
2021-02-09 02:00 5.31 32900 81200 (2020) 35100 (2018) 52500 36200 37800 52700 67000 75500
2021-02-09 01:00 5.34 33000 81200 (2020) 35100 (2018) 52500 36200 37800 52700 67000 75500
2021-02-09 00:00 5.37 33200 81200 (2020) 35100 (2018) 52500 36200 37800 52700 67000 75500
2021-02-08 23:00 5.35 33100 83500 (2020) 34900 (2018) 54200 35900 37500 53600 71200 78600
2021-02-08 22:00 5.37 33200 83500 (2020) 34900 (2018) 54200 35900 37500 53600 71200 78600
2021-02-08 21:00 5.41 33300 83500 (2020) 34900 (2018) 54200 35900 37500 53600 71200 78600
2021-02-08 20:00 5.41 33300 83500 (2020) 34900 (2018) 54200 35900 37500 53600 71200 78600
2021-02-08 19:00 5.44 33500 83500 (2020) 34900 (2018) 54200 35900 37500 53600 71200 78600
2021-02-08 18:00 5.48 33600 83500 (2020) 34900 (2018) 54200 35900 37500 53600 71200 78600
2021-02-08 17:00 5.47 33600 83500 (2020) 34900 (2018) 54200 35900 37500 53600 71200 78600
2021-02-08 16:00 5.53 33900 83500 (2020) 34900 (2018) 54200 35900 37500 53600 71200 78600
2021-02-08 15:00 5.53 33900 83500 (2020) 34900 (2018) 54200 35900 37500 53600 71200 78600
2021-02-08 14:00 5.53 33900 83500 (2020) 34900 (2018) 54200 35900 37500 53600 71200 78600
2021-02-08 13:00 5.56 34000 83500 (2020) 34900 (2018) 54200 35900 37500 53600 71200 78600
2021-02-08 12:00 5.55 33900 83500 (2020) 34900 (2018) 54200 35900 37500 53600 71200 78600
2021-02-08 11:00 5.61 34200 83500 (2020) 34900 (2018) 54200 35900 37500 53600 71200 78600
2021-02-08 10:00 5.60 34200 83500 (2020) 34900 (2018) 54200 35900 37500 53600 71200 78600
2021-02-08 09:00 5.60 34200 83500 (2020) 34900 (2018) 54200 35900 37500 53600 71200 78600
2021-02-08 08:00 5.62 34200 83500 (2020) 34900 (2018) 54200 35900 37500 53600 71200 78600
2021-02-08 07:00 5.65 34400 83500 (2020) 34900 (2018) 54200 35900 37500 53600 71200 78600
2021-02-08 06:00 5.66 34400 83500 (2020) 34900 (2018) 54200 35900 37500 53600 71200 78600
2021-02-08 05:00 5.67 34500 83500 (2020) 34900 (2018) 54200 35900 37500 53600 71200 78600
2021-02-08 04:00 5.66 34400 83500 (2020) 34900 (2018) 54200 35900 37500 53600 71200 78600
2021-02-08 03:00 5.67 34500 83500 (2020) 34900 (2018) 54200 35900 37500 53600 71200 78600
2021-02-08 02:00 5.69 34600 83500 (2020) 34900 (2018) 54200 35900 37500 53600 71200 78600
2021-02-08 01:00 5.68 34500 83500 (2020) 34900 (2018) 54200 35900 37500 53600 71200 78600
2021-02-08 00:00 5.68 34500 83500 (2020) 34900 (2018) 54200 35900 37500 53600 71200 78600
2021-02-07 23:00 5.69 34600 86000 (2020) 34600 (2018) 57100 35700 37300 56000 77300 82500
2021-02-07 22:00 5.67 34500 86000 (2020) 34600 (2018) 57100 35700 37300 56000 77300 82500
2021-02-07 21:00 5.70 34600 86000 (2020) 34600 (2018) 57100 35700 37300 56000 77300 82500
2021-02-07 20:00 5.71 34600 86000 (2020) 34600 (2018) 57100 35700 37300 56000 77300 82500
2021-02-07 19:00 5.71 34600 86000 (2020) 34600 (2018) 57100 35700 37300 56000 77300 82500
2021-02-07 18:00 5.67 34500 86000 (2020) 34600 (2018) 57100 35700 37300 56000 77300 82500
2021-02-07 17:00 5.71 34600 86000 (2020) 34600 (2018) 57100 35700 37300 56000 77300 82500
2021-02-07 16:00 5.70 34600 86000 (2020) 34600 (2018) 57100 35700 37300 56000 77300 82500
2021-02-07 15:00 5.71 34600 86000 (2020) 34600 (2018) 57100 35700 37300 56000 77300 82500
2021-02-07 14:00 5.70 34600 86000 (2020) 34600 (2018) 57100 35700 37300 56000 77300 82500
2021-02-07 13:00 5.69 34600 86000 (2020) 34600 (2018) 57100 35700 37300 56000 77300 82500
2021-02-07 12:00 5.67 34500 86000 (2020) 34600 (2018) 57100 35700 37300 56000 77300 82500
2021-02-07 11:00 5.68 34500 86000 (2020) 34600 (2018) 57100 35700 37300 56000 77300 82500
2021-02-07 10:00 5.67 34500 86000 (2020) 34600 (2018) 57100 35700 37300 56000 77300 82500
2021-02-07 09:00 5.68 34500 86000 (2020) 34600 (2018) 57100 35700 37300 56000 77300 82500
2021-02-07 08:00 5.68 34500 86000 (2020) 34600 (2018) 57100 35700 37300 56000 77300 82500
2021-02-07 07:00 5.66 34400 86000 (2020) 34600 (2018) 57100 35700 37300 56000 77300 82500
2021-02-07 06:00 5.65 34400 86000 (2020) 34600 (2018) 57100 35700 37300 56000 77300 82500
2021-02-07 05:00 5.60 34200 86000 (2020) 34600 (2018) 57100 35700 37300 56000 77300 82500
2021-02-07 04:00 5.61 34200 86000 (2020) 34600 (2018) 57100 35700 37300 56000 77300 82500
2021-02-07 03:00 5.63 34300 86000 (2020) 34600 (2018) 57100 35700 37300 56000 77300 82500
2021-02-07 02:00 5.63 34300 86000 (2020) 34600 (2018) 57100 35700 37300 56000 77300 82500
2021-02-07 01:00 5.60 34200 86000 (2020) 34600 (2018) 57100 35700 37300 56000 77300 82500
2021-02-07 00:00 5.59 34100 86000 (2020) 34600 (2018) 57100 35700 37300 56000 77300 82500
2021-02-06 23:00 5.62 34200 88000 (2020) 36000 (2018) 61400 37200 39000 62000 83600 86200
2021-02-06 22:00 5.60 34200 88000 (2020) 36000 (2018) 61400 37200 39000 62000 83600 86200
2021-02-06 21:00 5.62 34200 88000 (2020) 36000 (2018) 61400 37200 39000 62000 83600 86200
2021-02-06 20:00 5.61 34200 88000 (2020) 36000 (2018) 61400 37200 39000 62000 83600 86200
2021-02-06 19:00 5.58 34100 88000 (2020) 36000 (2018) 61400 37200 39000 62000 83600 86200
2021-02-06 18:00 5.62 34200 88000 (2020) 36000 (2018) 61400 37200 39000 62000 83600 86200
2021-02-06 17:00 5.62 34200 88000 (2020) 36000 (2018) 61400 37200 39000 62000 83600 86200
2021-02-06 16:00 5.65 34400 88000 (2020) 36000 (2018) 61400 37200 39000 62000 83600 86200
2021-02-06 15:00 5.65 34400 88000 (2020) 36000 (2018) 61400 37200 39000 62000 83600 86200
2021-02-06 14:00 5.64 34300 88000 (2020) 36000 (2018) 61400 37200 39000 62000 83600 86200
2021-02-06 13:00 5.64 34300 88000 (2020) 36000 (2018) 61400 37200 39000 62000 83600 86200
2021-02-06 12:00 5.65 34400 88000 (2020) 36000 (2018) 61400 37200 39000 62000 83600 86200
2021-02-06 11:00 5.67 34500 88000 (2020) 36000 (2018) 61400 37200 39000 62000 83600 86200
2021-02-06 10:00 5.64 34300 88000 (2020) 36000 (2018) 61400 37200 39000 62000 83600 86200
2021-02-06 09:00 5.68 34500 88000 (2020) 36000 (2018) 61400 37200 39000 62000 83600 86200
2021-02-06 08:00 5.67 34500 88000 (2020) 36000 (2018) 61400 37200 39000 62000 83600 86200
2021-02-06 07:00 5.66 34400 88000 (2020) 36000 (2018) 61400 37200 39000 62000 83600 86200
2021-02-06 06:00 5.68 34500 88000 (2020) 36000 (2018) 61400 37200 39000 62000 83600 86200
2021-02-06 05:00 5.69 34600 88000 (2020) 36000 (2018) 61400 37200 39000 62000 83600 86200
2021-02-06 04:00 5.70 34600 88000 (2020) 36000 (2018) 61400 37200 39000 62000 83600 86200
2021-02-06 03:00 5.70 34600 88000 (2020) 36000 (2018) 61400 37200 39000 62000 83600 86200
2021-02-06 02:00 5.69 34600 88000 (2020) 36000 (2018) 61400 37200 39000 62000 83600 86200
2021-02-06 01:00 5.70 34600 88000 (2020) 36000 (2018) 61400 37200 39000 62000 83600 86200
2021-02-06 00:00 5.73 34700 88000 (2020) 36000 (2018) 61400 37200 39000 62000 83600 86200
2021-02-05 23:00 5.70 34600 88900 (2020) 36800 (2018) 63100 38100 40000 68900 83400 86700
2021-02-05 22:00 5.70 34600 88900 (2020) 36800 (2018) 63100 38100 40000 68900 83400 86700
2021-02-05 21:00 5.71 34600 88900 (2020) 36800 (2018) 63100 38100 40000 68900 83400 86700
2021-02-05 20:00 5.72 34700 88900 (2020) 36800 (2018) 63100 38100 40000 68900 83400 86700
2021-02-05 19:00 5.71 34600 88900 (2020) 36800 (2018) 63100 38100 40000 68900 83400 86700
2021-02-05 18:00 5.77 34900 88900 (2020) 36800 (2018) 63100 38100 40000 68900 83400 86700
2021-02-05 17:00 5.72 34700 88900 (2020) 36800 (2018) 63100 38100 40000 68900 83400 86700
2021-02-05 16:00 5.75 34800 88900 (2020) 36800 (2018) 63100 38100 40000 68900 83400 86700
2021-02-05 15:00 5.75 34800 88900 (2020) 36800 (2018) 63100 38100 40000 68900 83400 86700
2021-02-05 14:00 5.73 34700 88900 (2020) 36800 (2018) 63100 38100 40000 68900 83400 86700
2021-02-05 13:00 5.74 34800 88900 (2020) 36800 (2018) 63100 38100 40000 68900 83400 86700
2021-02-05 12:00 5.75 34800 88900 (2020) 36800 (2018) 63100 38100 40000 68900 83400 86700
2021-02-05 11:00 5.74 34800 88900 (2020) 36800 (2018) 63100 38100 40000 68900 83400 86700
2021-02-05 10:00 5.76 34900 88900 (2020) 36800 (2018) 63100 38100 40000 68900 83400 86700
2021-02-05 09:00 5.77 34900 88900 (2020) 36800 (2018) 63100 38100 40000 68900 83400 86700
2021-02-05 08:00 5.76 34900 88900 (2020) 36800 (2018) 63100 38100 40000 68900 83400 86700
2021-02-05 07:00 5.75 34800 88900 (2020) 36800 (2018) 63100 38100 40000 68900 83400 86700
2021-02-05 06:00 5.73 34700 88900 (2020) 36800 (2018) 63100 38100 40000 68900 83400 86700
2021-02-05 05:00 5.76 34900 88900 (2020) 36800 (2018) 63100 38100 40000 68900 83400 86700
2021-02-05 04:00 5.76 34900 88900 (2020) 36800 (2018) 63100 38100 40000 68900 83400 86700
2021-02-05 03:00 5.75 34800 88900 (2020) 36800 (2018) 63100 38100 40000 68900 83400 86700
2021-02-05 02:00 5.73 34700 88900 (2020) 36800 (2018) 63100 38100 40000 68900 83400 86700
2021-02-05 01:00 5.74 34800 88900 (2020) 36800 (2018) 63100 38100 40000 68900 83400 86700
2021-02-05 00:00 5.73 34700 88900 (2020) 36800 (2018) 63100 38100 40000 68900 83400 86700
2021-02-04 23:00 5.73 34700 85800 (2020) 36200 (2018) 58300 37500 39600 59300 76400 82100
2021-02-04 22:00 5.74 34800 85800 (2020) 36200 (2018) 58300 37500 39600 59300 76400 82100
2021-02-04 21:00 5.74 34800 85800 (2020) 36200 (2018) 58300 37500 39600 59300 76400 82100
2021-02-04 20:00 5.69 34600 85800 (2020) 36200 (2018) 58300 37500 39600 59300 76400 82100
2021-02-04 19:00 5.70 34600 85800 (2020) 36200 (2018) 58300 37500 39600 59300 76400 82100
2021-02-04 18:00 5.72 34700 85800 (2020) 36200 (2018) 58300 37500 39600 59300 76400 82100
2021-02-04 17:00 5.71 34600 85800 (2020) 36200 (2018) 58300 37500 39600 59300 76400 82100
2021-02-04 16:00 5.69 34600 85800 (2020) 36200 (2018) 58300 37500 39600 59300 76400 82100
2021-02-04 15:00 5.69 34600 85800 (2020) 36200 (2018) 58300 37500 39600 59300 76400 82100
2021-02-04 14:00 5.69 34600 85800 (2020) 36200 (2018) 58300 37500 39600 59300 76400 82100
2021-02-04 13:00 5.66 34400 85800 (2020) 36200 (2018) 58300 37500 39600 59300 76400 82100
2021-02-04 12:00 5.63 34300 85800 (2020) 36200 (2018) 58300 37500 39600 59300 76400 82100
2021-02-04 11:00 5.65 34400 85800 (2020) 36200 (2018) 58300 37500 39600 59300 76400 82100
2021-02-04 10:00 5.66 34400 85800 (2020) 36200 (2018) 58300 37500 39600 59300 76400 82100
2021-02-04 09:00 5.64 34300 85800 (2020) 36200 (2018) 58300 37500 39600 59300 76400 82100
2021-02-04 08:00 5.60 34200 85800 (2020) 36200 (2018) 58300 37500 39600 59300 76400 82100
2021-02-04 07:00 5.57 34000 85800 (2020) 36200 (2018) 58300 37500 39600 59300 76400 82100
2021-02-04 06:00 5.56 34000 85800 (2020) 36200 (2018) 58300 37500 39600 59300 76400 82100
2021-02-04 05:00 5.55 33900 85800 (2020) 36200 (2018) 58300 37500 39600 59300 76400 82100
2021-02-04 04:00 5.56 34000 85800 (2020) 36200 (2018) 58300 37500 39600 59300 76400 82100
2021-02-04 03:00 5.55 33900 85800 (2020) 36200 (2018) 58300 37500 39600 59300 76400 82100
2021-02-04 02:00 5.54 33900 85800 (2020) 36200 (2018) 58300 37500 39600 59300 76400 82100
2021-02-04 01:00 5.56 34000 85800 (2020) 36200 (2018) 58300 37500 39600 59300 76400 82100
2021-02-04 00:00 5.54 33900 85800 (2020) 36200 (2018) 58300 37500 39600 59300 76400 82100
2021-02-03 23:00 5.50 33700 80500 (2020) 36400 (2018) 55800 37600 39500 56000 71900 77100
2021-02-03 22:00 5.52 33800 80500 (2020) 36400 (2018) 55800 37600 39500 56000 71900 77100
2021-02-03 21:00 5.55 33900 80500 (2020) 36400 (2018) 55800 37600 39500 56000 71900 77100
2021-02-03 20:00 5.54 33900 80500 (2020) 36400 (2018) 55800 37600 39500 56000 71900 77100
2021-02-03 19:00 5.54 33900 80500 (2020) 36400 (2018) 55800 37600 39500 56000 71900 77100
2021-02-03 18:00 5.57 34000 80500 (2020) 36400 (2018) 55800 37600 39500 56000 71900 77100
2021-02-03 17:00 5.54 33900 80500 (2020) 36400 (2018) 55800 37600 39500 56000 71900 77100
2021-02-03 16:00 5.60 34200 80500 (2020) 36400 (2018) 55800 37600 39500 56000 71900 77100
2021-02-03 15:00 5.61 34200 80500 (2020) 36400 (2018) 55800 37600 39500 56000 71900 77100
2021-02-03 14:00 5.60 34200 80500 (2020) 36400 (2018) 55800 37600 39500 56000 71900 77100
2021-02-03 13:00 5.67 34500 80500 (2020) 36400 (2018) 55800 37600 39500 56000 71900 77100
2021-02-03 12:00 5.63 34300 80500 (2020) 36400 (2018) 55800 37600 39500 56000 71900 77100
2021-02-03 11:00 5.67 34500 80500 (2020) 36400 (2018) 55800 37600 39500 56000 71900 77100
2021-02-03 10:00 5.69 34600 80500 (2020) 36400 (2018) 55800 37600 39500 56000 71900 77100
2021-02-03 09:00 5.71 34600 80500 (2020) 36400 (2018) 55800 37600 39500 56000 71900 77100
2021-02-03 08:00 5.74 34800 80500 (2020) 36400 (2018) 55800 37600 39500 56000 71900 77100
2021-02-03 07:00 5.77 34900 80500 (2020) 36400 (2018) 55800 37600 39500 56000 71900 77100
2021-02-03 06:00 5.75 34800 80500 (2020) 36400 (2018) 55800 37600 39500 56000 71900 77100
2021-02-03 05:00 5.80 35000 80500 (2020) 36400 (2018) 55800 37600 39500 56000 71900 77100
2021-02-03 04:00 5.81 35100 80500 (2020) 36400 (2018) 55800 37600 39500 56000 71900 77100
2021-02-03 03:00 5.86 35300 80500 (2020) 36400 (2018) 55800 37600 39500 56000 71900 77100
2021-02-03 02:00 5.84 35200 80500 (2020) 36400 (2018) 55800 37600 39500 56000 71900 77100
2021-02-03 01:00 5.85 35300 80500 (2020) 36400 (2018) 55800 37600 39500 56000 71900 77100
2021-02-03 00:00 5.88 35400 80500 (2020) 36400 (2018) 55800 37600 39500 56000 71900 77100
2021-02-02 23:00 5.91 35500 77200 (2020) 37400 (2018) 55100 38700 40600 54500 69800 74200
2021-02-02 22:00 5.91 35500 77200 (2020) 37400 (2018) 55100 38700 40600 54500 69800 74200
2021-02-02 21:00 5.91 35500 77200 (2020) 37400 (2018) 55100 38700 40600 54500 69800 74200
2021-02-02 20:00 5.96 35800 77200 (2020) 37400 (2018) 55100 38700 40600 54500 69800 74200
2021-02-02 19:00 5.96 35800 77200 (2020) 37400 (2018) 55100 38700 40600 54500 69800 74200
2021-02-02 18:00 5.97 35800 77200 (2020) 37400 (2018) 55100 38700 40600 54500 69800 74200
2021-02-02 17:00 6.01 36000 77200 (2020) 37400 (2018) 55100 38700 40600 54500 69800 74200
2021-02-02 16:00 6.01 36000 77200 (2020) 37400 (2018) 55100 38700 40600 54500 69800 74200
2021-02-02 15:00 6.03 36100 77200 (2020) 37400 (2018) 55100 38700 40600 54500 69800 74200
2021-02-02 14:00 6.01 36000 77200 (2020) 37400 (2018) 55100 38700 40600 54500 69800 74200
2021-02-02 13:00 6.03 36100 77200 (2020) 37400 (2018) 55100 38700 40600 54500 69800 74200
2021-02-02 12:00 6.03 36100 77200 (2020) 37400 (2018) 55100 38700 40600 54500 69800 74200
2021-02-02 11:00 6.01 36000 77200 (2020) 37400 (2018) 55100 38700 40600 54500 69800 74200
2021-02-02 10:00 6.00 35900 77200 (2020) 37400 (2018) 55100 38700 40600 54500 69800 74200
2021-02-02 09:00 5.97 35800 77200 (2020) 37400 (2018) 55100 38700 40600 54500 69800 74200
2021-02-02 08:00 5.96 35800 77200 (2020) 37400 (2018) 55100 38700 40600 54500 69800 74200
2021-02-02 07:00 5.95 35700 77200 (2020) 37400 (2018) 55100 38700 40600 54500 69800 74200
2021-02-02 06:00 5.95 35700 77200 (2020) 37400 (2018) 55100 38700 40600 54500 69800 74200
2021-02-02 05:00 5.92 35600 77200 (2020) 37400 (2018) 55100 38700 40600 54500 69800 74200
2021-02-02 04:00 5.87 35400 77200 (2020) 37400 (2018) 55100 38700 40600 54500 69800 74200
2021-02-02 03:00 5.89 35400 77200 (2020) 37400 (2018) 55100 38700 40600 54500 69800 74200
2021-02-02 02:00 5.84 35200 77200 (2020) 37400 (2018) 55100 38700 40600 54500 69800 74200
2021-02-02 01:00 5.83 35200 77200 (2020) 37400 (2018) 55100 38700 40600 54500 69800 74200
2021-02-02 00:00 5.81 35100 77200 (2020) 37400 (2018) 55100 38700 40600 54500 69800 74200
2021-02-01 23:00 5.77 34900 76200 (2020) 38600 (2018) 55000 39900 41800 55400 67900 72900
2021-02-01 22:00 5.76 34900 76200 (2020) 38600 (2018) 55000 39900 41800 55400 67900 72900
2021-02-01 21:00 5.72 34700 76200 (2020) 38600 (2018) 55000 39900 41800 55400 67900 72900
2021-02-01 20:00 5.70 34600 76200 (2020) 38600 (2018) 55000 39900 41800 55400 67900 72900
2021-02-01 19:00 5.71 34600 76200 (2020) 38600 (2018) 55000 39900 41800 55400 67900 72900
2021-02-01 18:00 5.65 34400 76200 (2020) 38600 (2018) 55000 39900 41800 55400 67900 72900
2021-02-01 17:00 5.65 34400 76200 (2020) 38600 (2018) 55000 39900 41800 55400 67900 72900
2021-02-01 16:00 5.64 34300 76200 (2020) 38600 (2018) 55000 39900 41800 55400 67900 72900
2021-02-01 15:00 5.62 34200 76200 (2020) 38600 (2018) 55000 39900 41800 55400 67900 72900
2021-02-01 14:00 5.61 34200 76200 (2020) 38600 (2018) 55000 39900 41800 55400 67900 72900
2021-02-01 13:00 5.58 34100 76200 (2020) 38600 (2018) 55000 39900 41800 55400 67900 72900
2021-02-01 12:00 5.57 34000 76200 (2020) 38600 (2018) 55000 39900 41800 55400 67900 72900
2021-02-01 11:00 5.55 33900 76200 (2020) 38600 (2018) 55000 39900 41800 55400 67900 72900
2021-02-01 10:00 5.57 34000 76200 (2020) 38600 (2018) 55000 39900 41800 55400 67900 72900
2021-02-01 09:00 5.56 34000 76200 (2020) 38600 (2018) 55000 39900 41800 55400 67900 72900
2021-02-01 08:00 5.57 34000 76200 (2020) 38600 (2018) 55000 39900 41800 55400 67900 72900
2021-02-01 07:00 5.57 34000 76200 (2020) 38600 (2018) 55000 39900 41800 55400 67900 72900
2021-02-01 06:00 5.59 34100 76200 (2020) 38600 (2018) 55000 39900 41800 55400 67900 72900
2021-02-01 05:00 5.58 34100 76200 (2020) 38600 (2018) 55000 39900 41800 55400 67900 72900
2021-02-01 04:00 5.58 34100 76200 (2020) 38600 (2018) 55000 39900 41800 55400 67900 72900
2021-02-01 03:00 5.60 34200 76200 (2020) 38600 (2018) 55000 39900 41800 55400 67900 72900
2021-02-01 02:00 5.59 34100 76200 (2020) 38600 (2018) 55000 39900 41800 55400 67900 72900
2021-02-01 01:00 5.62 34200 76200 (2020) 38600 (2018) 55000 39900 41800 55400 67900 72900
2021-02-01 00:00 5.63 34300 76200 (2020) 38600 (2018) 55000 39900 41800 55400 67900 72900
2021-01-31 23:00 5.68 34500 76300 (2020) 39400 (2018) 55500 40600 42500 57000 67600 72800
2021-01-31 22:00 5.69 34600 76300 (2020) 39400 (2018) 55500 40600 42500 57000 67600 72800
2021-01-31 21:00 5.70 34600 76300 (2020) 39400 (2018) 55500 40600 42500 57000 67600 72800
2021-01-31 20:00 5.74 34800 76300 (2020) 39400 (2018) 55500 40600 42500 57000 67600 72800
2021-01-31 19:00 5.72 34700 76300 (2020) 39400 (2018) 55500 40600 42500 57000 67600 72800
2021-01-31 18:00 5.74 34800 76300 (2020) 39400 (2018) 55500 40600 42500 57000 67600 72800
2021-01-31 17:00 5.78 35000 76300 (2020) 39400 (2018) 55500 40600 42500 57000 67600 72800
2021-01-31 16:00 5.76 34900 76300 (2020) 39400 (2018) 55500 40600 42500 57000 67600 72800
2021-01-31 15:00 5.78 35000 76300 (2020) 39400 (2018) 55500 40600 42500 57000 67600 72800
2021-01-31 14:00 5.78 35000 76300 (2020) 39400 (2018) 55500 40600 42500 57000 67600 72800
2021-01-31 13:00 5.79 35000 76300 (2020) 39400 (2018) 55500 40600 42500 57000 67600 72800
2021-01-31 12:00 5.77 34900 76300 (2020) 39400 (2018) 55500 40600 42500 57000 67600 72800
2021-01-31 11:00 5.75 34800 76300 (2020) 39400 (2018) 55500 40600 42500 57000 67600 72800
2021-01-31 10:00 5.71 34600 76300 (2020) 39400 (2018) 55500 40600 42500 57000 67600 72800
2021-01-31 09:00 5.68 34500 76300 (2020) 39400 (2018) 55500 40600 42500 57000 67600 72800
2021-01-31 08:00 5.64 34300 76300 (2020) 39400 (2018) 55500 40600 42500 57000 67600 72800
2021-01-31 07:00 5.57 34000 76300 (2020) 39400 (2018) 55500 40600 42500 57000 67600 72800
2021-01-31 06:00 5.52 33800 76300 (2020) 39400 (2018) 55500 40600 42500 57000 67600 72800
2021-01-31 05:00 5.45 33500 76300 (2020) 39400 (2018) 55500 40600 42500 57000 67600 72800
2021-01-31 04:00 5.42 33400 76300 (2020) 39400 (2018) 55500 40600 42500 57000 67600 72800
2021-01-31 03:00 5.33 33000 76300 (2020) 39400 (2018) 55500 40600 42500 57000 67600 72800
2021-01-31 02:00 5.27 32700 76300 (2020) 39400 (2018) 55500 40600 42500 57000 67600 72800
2021-01-31 01:00 5.17 32300 76300 (2020) 39400 (2018) 55500 40600 42500 57000 67600 72800
2021-01-31 00:00 5.13 32100 76300 (2020) 39400 (2018) 55500 40600 42500 57000 67600 72800
2021-01-30 23:00 5.03 31700 75500 (2020) 39400 (2018) 55600 40800 42900 55800 68200 72600
2021-01-30 22:00 5.01 31600 75500 (2020) 39400 (2018) 55600 40800 42900 55800 68200 72600
2021-01-30 21:00 4.91 31200 75500 (2020) 39400 (2018) 55600 40800 42900 55800 68200 72600
2021-01-30 20:00 4.86 31000 75500 (2020) 39400 (2018) 55600 40800 42900 55800 68200 72600
2021-01-30 19:00 4.82 30900 75500 (2020) 39400 (2018) 55600 40800 42900 55800 68200 72600
2021-01-30 18:00 4.79 30700 75500 (2020) 39400 (2018) 55600 40800 42900 55800 68200 72600
2021-01-30 17:00 4.79 30700 75500 (2020) 39400 (2018) 55600 40800 42900 55800 68200 72600
2021-01-30 16:00 4.75 30600 75500 (2020) 39400 (2018) 55600 40800 42900 55800 68200 72600
2021-01-30 15:00 4.76 30600 75500 (2020) 39400 (2018) 55600 40800 42900 55800 68200 72600
2021-01-30 14:00 4.73 30500 75500 (2020) 39400 (2018) 55600 40800 42900 55800 68200 72600
2021-01-30 13:00 4.76 30600 75500 (2020) 39400 (2018) 55600 40800 42900 55800 68200 72600
2021-01-30 12:00 4.76 30600 75500 (2020) 39400 (2018) 55600 40800 42900 55800 68200 72600
2021-01-30 11:00 4.74 30500 75500 (2020) 39400 (2018) 55600 40800 42900 55800 68200 72600
2021-01-30 10:00 4.75 30600 75500 (2020) 39400 (2018) 55600 40800 42900 55800 68200 72600
2021-01-30 09:00 4.75 30600 75500 (2020) 39400 (2018) 55600 40800 42900 55800 68200 72600
2021-01-30 08:00 4.77 30700 75500 (2020) 39400 (2018) 55600 40800 42900 55800 68200 72600
2021-01-30 07:00 4.77 30700 75500 (2020) 39400 (2018) 55600 40800 42900 55800 68200 72600
2021-01-30 06:00 4.78 30700 75500 (2020) 39400 (2018) 55600 40800 42900 55800 68200 72600
2021-01-30 05:00 4.78 30700 75500 (2020) 39400 (2018) 55600 40800 42900 55800 68200 72600
2021-01-30 04:00 4.79 30700 75500 (2020) 39400 (2018) 55600 40800 42900 55800 68200 72600
2021-01-30 03:00 4.82 30900 75500 (2020) 39400 (2018) 55600 40800 42900 55800 68200 72600
2021-01-30 02:00 4.84 30900 75500 (2020) 39400 (2018) 55600 40800 42900 55800 68200 72600
2021-01-30 01:00 4.80 30800 75500 (2020) 39400 (2018) 55600 40800 42900 55800 68200 72600
2021-01-30 00:00 4.85 31000 75500 (2020) 39400 (2018) 55600 40800 42900 55800 68200 72600
2021-01-29 23:00 4.89 31100 73400 (2020) 38800 (2018) 55600 40600 43200 55800 67900 71200
2021-01-29 22:00 4.85 31000 73400 (2020) 38800 (2018) 55600 40600 43200 55800 67900 71200
2021-01-29 21:00 4.86 31000 73400 (2020) 38800 (2018) 55600 40600 43200 55800 67900 71200
2021-01-29 20:00 4.87 31100 73400 (2020) 38800 (2018) 55600 40600 43200 55800 67900 71200
2021-01-29 19:00 4.87 31100 73400 (2020) 38800 (2018) 55600 40600 43200 55800 67900 71200
2021-01-29 18:00 4.87 31100 73400 (2020) 38800 (2018) 55600 40600 43200 55800 67900 71200
2021-01-29 17:00 4.85 31000 73400 (2020) 38800 (2018) 55600 40600 43200 55800 67900 71200
2021-01-29 16:00 4.89 31100 73400 (2020) 38800 (2018) 55600 40600 43200 55800 67900 71200
2021-01-29 15:00 4.91 31200 73400 (2020) 38800 (2018) 55600 40600 43200 55800 67900 71200
2021-01-29 14:00 4.90 31200 73400 (2020) 38800 (2018) 55600 40600 43200 55800 67900 71200
2021-01-29 13:00 4.90 31200 73400 (2020) 38800 (2018) 55600 40600 43200 55800 67900 71200
2021-01-29 12:00 4.93 31300 73400 (2020) 38800 (2018) 55600 40600 43200 55800 67900 71200
2021-01-29 11:00 4.91 31200 73400 (2020) 38800 (2018) 55600 40600 43200 55800 67900 71200
2021-01-29 10:00 4.89 31100 73400 (2020) 38800 (2018) 55600 40600 43200 55800 67900 71200
2021-01-29 09:00 4.91 31200 73400 (2020) 38800 (2018) 55600 40600 43200 55800 67900 71200
2021-01-29 08:00 4.92 31300 73400 (2020) 38800 (2018) 55600 40600 43200 55800 67900 71200
2021-01-29 07:00 4.92 31300 73400 (2020) 38800 (2018) 55600 40600 43200 55800 67900 71200
2021-01-29 06:00 4.91 31200 73400 (2020) 38800 (2018) 55600 40600 43200 55800 67900 71200
2021-01-29 05:00 4.94 31300 73400 (2020) 38800 (2018) 55600 40600 43200 55800 67900 71200
2021-01-29 04:00 4.95 31400 73400 (2020) 38800 (2018) 55600 40600 43200 55800 67900 71200
2021-01-29 03:00 4.93 31300 73400 (2020) 38800 (2018) 55600 40600 43200 55800 67900 71200
2021-01-29 02:00 4.94 31300 73400 (2020) 38800 (2018) 55600 40600 43200 55800 67900 71200
2021-01-29 01:00 4.94 31300 73400 (2020) 38800 (2018) 55600 40600 43200 55800 67900 71200
2021-01-29 00:00 4.93 31300 73400 (2020) 38800 (2018) 55600 40600 43200 55800 67900 71200
2021-01-28 23:00 4.95 31400 72200 (2020) 38900 (2018) 55500 40800 43600 55000 67600 70400
2021-01-28 22:00 4.94 31300 72200 (2020) 38900 (2018) 55500 40800 43600 55000 67600 70400
2021-01-28 21:00 4.95 31400 72200 (2020) 38900 (2018) 55500 40800 43600 55000 67600 70400
2021-01-28 20:00 4.95 31400 72200 (2020) 38900 (2018) 55500 40800 43600 55000 67600 70400
2021-01-28 19:00 4.96 31400 72200 (2020) 38900 (2018) 55500 40800 43600 55000 67600 70400
2021-01-28 18:00 5.01 31600 72200 (2020) 38900 (2018) 55500 40800 43600 55000 67600 70400
2021-01-28 17:00 4.99 31600 72200 (2020) 38900 (2018) 55500 40800 43600 55000 67600 70400
2021-01-28 16:00 5.03 31700 72200 (2020) 38900 (2018) 55500 40800 43600 55000 67600 70400
2021-01-28 15:00 5.02 31700 72200 (2020) 38900 (2018) 55500 40800 43600 55000 67600 70400
2021-01-28 14:00 5.03 31700 72200 (2020) 38900 (2018) 55500 40800 43600 55000 67600 70400
2021-01-28 13:00 5.03 31700 72200 (2020) 38900 (2018) 55500 40800 43600 55000 67600 70400
2021-01-28 12:00 5.03 31700 72200 (2020) 38900 (2018) 55500 40800 43600 55000 67600 70400
2021-01-28 11:00 5.03 31700 72200 (2020) 38900 (2018) 55500 40800 43600 55000 67600 70400
2021-01-28 10:00 5.06 31800 72200 (2020) 38900 (2018) 55500 40800 43600 55000 67600 70400
2021-01-28 09:00 5.07 31900 72200 (2020) 38900 (2018) 55500 40800 43600 55000 67600 70400
2021-01-28 08:00 5.09 32000 72200 (2020) 38900 (2018) 55500 40800 43600 55000 67600 70400
2021-01-28 07:00 5.11 32100 72200 (2020) 38900 (2018) 55500 40800 43600 55000 67600 70400
2021-01-28 06:00 5.10 32000 72200 (2020) 38900 (2018) 55500 40800 43600 55000 67600 70400
2021-01-28 05:00 5.10 32000 72200 (2020) 38900 (2018) 55500 40800 43600 55000 67600 70400
2021-01-28 04:00 5.14 32200 72200 (2020) 38900 (2018) 55500 40800 43600 55000 67600 70400
2021-01-28 03:00 5.16 32300 72200 (2020) 38900 (2018) 55500 40800 43600 55000 67600 70400
2021-01-28 02:00 5.13 32100 72200 (2020) 38900 (2018) 55500 40800 43600 55000 67600 70400
2021-01-28 01:00 5.19 32400 72200 (2020) 38900 (2018) 55500 40800 43600 55000 67600 70400
2021-01-28 00:00 5.16 32300 72200 (2020) 38900 (2018) 55500 40800 43600 55000 67600 70400
2021-01-27 23:00 5.17 32300 73400 (2020) 39500 (2018) 55700 41400 44300 55100 67400 71000
2021-01-27 22:00 5.19 32400 73400 (2020) 39500 (2018) 55700 41400 44300 55100 67400 71000
2021-01-27 21:00 5.19 32400 73400 (2020) 39500 (2018) 55700 41400 44300 55100 67400 71000
2021-01-27 20:00 5.19 32400 73400 (2020) 39500 (2018) 55700 41400 44300 55100 67400 71000
2021-01-27 19:00 5.25 32600 73400 (2020) 39500 (2018) 55700 41400 44300 55100 67400 71000
2021-01-27 18:00 5.25 32600 73400 (2020) 39500 (2018) 55700 41400 44300 55100 67400 71000
2021-01-27 17:00 5.24 32600 73400 (2020) 39500 (2018) 55700 41400 44300 55100 67400 71000
2021-01-27 16:00 5.29 32800 73400 (2020) 39500 (2018) 55700 41400 44300 55100 67400 71000
2021-01-27 15:00 5.26 32700 73400 (2020) 39500 (2018) 55700 41400 44300 55100 67400 71000
2021-01-27 14:00 5.30 32900 73400 (2020) 39500 (2018) 55700 41400 44300 55100 67400 71000
2021-01-27 13:00 5.30 32900 73400 (2020) 39500 (2018) 55700 41400 44300 55100 67400 71000
2021-01-27 12:00 5.36 33100 73400 (2020) 39500 (2018) 55700 41400 44300 55100 67400 71000
2021-01-27 11:00 5.33 33000 73400 (2020) 39500 (2018) 55700 41400 44300 55100 67400 71000
2021-01-27 10:00 5.36 33100 73400 (2020) 39500 (2018) 55700 41400 44300 55100 67400 71000
2021-01-27 09:00 5.37 33200 73400 (2020) 39500 (2018) 55700 41400 44300 55100 67400 71000
2021-01-27 08:00 5.37 33200 73400 (2020) 39500 (2018) 55700 41400 44300 55100 67400 71000
2021-01-27 07:00 5.39 33200 73400 (2020) 39500 (2018) 55700 41400 44300 55100 67400 71000
2021-01-27 06:00 5.41 33300 73400 (2020) 39500 (2018) 55700 41400 44300 55100 67400 71000
2021-01-27 05:00 5.38 33200 73400 (2020) 39500 (2018) 55700 41400 44300 55100 67400 71000
2021-01-27 04:00 5.43 33400 73400 (2020) 39500 (2018) 55700 41400 44300 55100 67400 71000
2021-01-27 03:00 5.44 33500 73400 (2020) 39500 (2018) 55700 41400 44300 55100 67400 71000
2021-01-27 02:00 5.44 33500 73400 (2020) 39500 (2018) 55700 41400 44300 55100 67400 71000
2021-01-27 01:00 5.45 33500 73400 (2020) 39500 (2018) 55700 41400 44300 55100 67400 71000
2021-01-27 00:00 5.50 33700 73400 (2020) 39500 (2018) 55700 41400 44300 55100 67400 71000
2021-01-26 23:00 5.49 33700 73000 (2020) 40100 (2018) 55500 42100 45200 55500 65800 70100
2021-01-26 22:00 5.50 33700 73000 (2020) 40100 (2018) 55500 42100 45200 55500 65800 70100
2021-01-26 21:00 5.49 33700 73000 (2020) 40100 (2018) 55500 42100 45200 55500 65800 70100
2021-01-26 20:00 5.51 33800 73000 (2020) 40100 (2018) 55500 42100 45200 55500 65800 70100
2021-01-26 19:00 5.55 33900 73000 (2020) 40100 (2018) 55500 42100 45200 55500 65800 70100
2021-01-26 18:00 5.54 33900 73000 (2020) 40100 (2018) 55500 42100 45200 55500 65800 70100
2021-01-26 17:00 5.52 33800 73000 (2020) 40100 (2018) 55500 42100 45200 55500 65800 70100
2021-01-26 16:00 5.57 34000 73000 (2020) 40100 (2018) 55500 42100 45200 55500 65800 70100
2021-01-26 15:00 5.55 33900 73000 (2020) 40100 (2018) 55500 42100 45200 55500 65800 70100
2021-01-26 14:00 5.56 34000 73000 (2020) 40100 (2018) 55500 42100 45200 55500 65800 70100
2021-01-26 13:00 5.57 34000 73000 (2020) 40100 (2018) 55500 42100 45200 55500 65800 70100
2021-01-26 12:00 5.57 34000 73000 (2020) 40100 (2018) 55500 42100 45200 55500 65800 70100
2021-01-26 11:00 5.56 34000 73000 (2020) 40100 (2018) 55500 42100 45200 55500 65800 70100
2021-01-26 10:00 5.55 33900 73000 (2020) 40100 (2018) 55500 42100 45200 55500 65800 70100
2021-01-26 09:00 5.58 34100 73000 (2020) 40100 (2018) 55500 42100 45200 55500 65800 70100
2021-01-26 08:00 5.57 34000 73000 (2020) 40100 (2018) 55500 42100 45200 55500 65800 70100
2021-01-26 07:00 5.56 34000 73000 (2020) 40100 (2018) 55500 42100 45200 55500 65800 70100
2021-01-26 06:00 5.55 33900 73000 (2020) 40100 (2018) 55500 42100 45200 55500 65800 70100
2021-01-26 05:00 5.52 33800 73000 (2020) 40100 (2018) 55500 42100 45200 55500 65800 70100
2021-01-26 04:00 5.50 33700 73000 (2020) 40100 (2018) 55500 42100 45200 55500 65800 70100
2021-01-26 03:00 5.52 33800 73000 (2020) 40100 (2018) 55500 42100 45200 55500 65800 70100
2021-01-26 02:00 5.50 33700 73000 (2020) 40100 (2018) 55500 42100 45200 55500 65800 70100
2021-01-26 01:00 5.44 33500 73000 (2020) 40100 (2018) 55500 42100 45200 55500 65800 70100
2021-01-26 00:00 5.42 33400 73000 (2020) 40100 (2018) 55500 42100 45200 55500 65800 70100
2021-01-25 23:00 5.41 33300 70800 (2020) 40100 (2018) 55200 42700 46700 54700 63900 68100
2021-01-25 22:00 5.38 33200 70800 (2020) 40100 (2018) 55200 42700 46700 54700 63900 68100
2021-01-25 21:00 5.37 33200 70800 (2020) 40100 (2018) 55200 42700 46700 54700 63900 68100
2021-01-25 20:00 5.37 33200 70800 (2020) 40100 (2018) 55200 42700 46700 54700 63900 68100
2021-01-25 19:00 5.36 33100 70800 (2020) 40100 (2018) 55200 42700 46700 54700 63900 68100
2021-01-25 18:00 5.35 33100 70800 (2020) 40100 (2018) 55200 42700 46700 54700 63900 68100
2021-01-25 17:00 5.33 33000 70800 (2020) 40100 (2018) 55200 42700 46700 54700 63900 68100
2021-01-25 16:00 5.30 32900 70800 (2020) 40100 (2018) 55200 42700 46700 54700 63900 68100
2021-01-25 15:00 5.31 32900 70800 (2020) 40100 (2018) 55200 42700 46700 54700 63900 68100
2021-01-25 14:00 5.30 32900 70800 (2020) 40100 (2018) 55200 42700 46700 54700 63900 68100
2021-01-25 13:00 5.27 32700 70800 (2020) 40100 (2018) 55200 42700 46700 54700 63900 68100
2021-01-25 12:00 5.26 32700 70800 (2020) 40100 (2018) 55200 42700 46700 54700 63900 68100
2021-01-25 11:00 5.24 32600 70800 (2020) 40100 (2018) 55200 42700 46700 54700 63900 68100
2021-01-25 10:00 5.28 32800 70800 (2020) 40100 (2018) 55200 42700 46700 54700 63900 68100
2021-01-25 09:00 5.26 32700 70800 (2020) 40100 (2018) 55200 42700 46700 54700 63900 68100
2021-01-25 08:00 5.25 32600 70800 (2020) 40100 (2018) 55200 42700 46700 54700 63900 68100
2021-01-25 07:00 5.22 32500 70800 (2020) 40100 (2018) 55200 42700 46700 54700 63900 68100
2021-01-25 06:00 5.22 32500 70800 (2020) 40100 (2018) 55200 42700 46700 54700 63900 68100
2021-01-25 05:00 5.23 32600 70800 (2020) 40100 (2018) 55200 42700 46700 54700 63900 68100
2021-01-25 04:00 5.22 32500 70800 (2020) 40100 (2018) 55200 42700 46700 54700 63900 68100
2021-01-25 03:00 5.20 32400 70800 (2020) 40100 (2018) 55200 42700 46700 54700 63900 68100
2021-01-25 02:00 5.20 32400 70800 (2020) 40100 (2018) 55200 42700 46700 54700 63900 68100
2021-01-25 01:00 5.18 32400 70800 (2020) 40100 (2018) 55200 42700 46700 54700 63900 68100
2021-01-25 00:00 5.20 32400 70800 (2020) 40100 (2018) 55200 42700 46700 54700 63900 68100
2021-01-24 23:00 5.18 32400 68400 (2020) 39500 (2018) 54700 42300 46400 54000 63400 66400
2021-01-24 22:00 5.17 32300 68400 (2020) 39500 (2018) 54700 42300 46400 54000 63400 66400
2021-01-24 21:00 5.16 32300 68400 (2020) 39500 (2018) 54700 42300 46400 54000 63400 66400
2021-01-24 20:00 5.15 32200 68400 (2020) 39500 (2018) 54700 42300 46400 54000 63400 66400
2021-01-24 19:00 5.14 32200 68400 (2020) 39500 (2018) 54700 42300 46400 54000 63400 66400
2021-01-24 18:00 5.15 32200 68400 (2020) 39500 (2018) 54700 42300 46400 54000 63400 66400
2021-01-24 17:00 5.14 32200 68400 (2020) 39500 (2018) 54700 42300 46400 54000 63400 66400
2021-01-24 16:00 5.16 32300 68400 (2020) 39500 (2018) 54700 42300 46400 54000 63400 66400
2021-01-24 15:00 5.14 32200 68400 (2020) 39500 (2018) 54700 42300 46400 54000 63400 66400
2021-01-24 14:00 5.16 32300 68400 (2020) 39500 (2018) 54700 42300 46400 54000 63400 66400
2021-01-24 13:00 5.12 32100 68400 (2020) 39500 (2018) 54700 42300 46400 54000 63400 66400
2021-01-24 12:00 5.11 32100 68400 (2020) 39500 (2018) 54700 42300 46400 54000 63400 66400
2021-01-24 11:00 5.13 32100 68400 (2020) 39500 (2018) 54700 42300 46400 54000 63400 66400
2021-01-24 10:00 5.14 32200 68400 (2020) 39500 (2018) 54700 42300 46400 54000 63400 66400
2021-01-24 09:00 5.13 32100 68400 (2020) 39500 (2018) 54700 42300 46400 54000 63400 66400
2021-01-24 08:00 5.11 32100 68400 (2020) 39500 (2018) 54700 42300 46400 54000 63400 66400
2021-01-24 07:00 5.11 32100 68400 (2020) 39500 (2018) 54700 42300 46400 54000 63400 66400
2021-01-24 06:00 5.09 32000 68400 (2020) 39500 (2018) 54700 42300 46400 54000 63400 66400
2021-01-24 05:00 5.11 32100 68400 (2020) 39500 (2018) 54700 42300 46400 54000 63400 66400
2021-01-24 04:00 5.10 32000 68400 (2020) 39500 (2018) 54700 42300 46400 54000 63400 66400
2021-01-24 03:00 5.11 32100 68400 (2020) 39500 (2018) 54700 42300 46400 54000 63400 66400
2021-01-24 02:00 5.08 31900 68400 (2020) 39500 (2018) 54700 42300 46400 54000 63400 66400
2021-01-24 01:00 5.08 31900 68400 (2020) 39500 (2018) 54700 42300 46400 54000 63400 66400
2021-01-24 00:00 5.09 32000 68400 (2020) 39500 (2018) 54700 42300 46400 54000 63400 66400
2021-01-23 23:00 5.11 32100 66900 (2020) 38100 (2018) 53800 40600 44400 53400 63400 65500
2021-01-23 22:00 5.09 32000 66900 (2020) 38100 (2018) 53800 40600 44400 53400 63400 65500
2021-01-23 21:00 5.08 31900 66900 (2020) 38100 (2018) 53800 40600 44400 53400 63400 65500
2021-01-23 20:00 5.09 32000 66900 (2020) 38100 (2018) 53800 40600 44400 53400 63400 65500
2021-01-23 19:00 5.09 32000 66900 (2020) 38100 (2018) 53800 40600 44400 53400 63400 65500
2021-01-23 18:00 5.10 32000 66900 (2020) 38100 (2018) 53800 40600 44400 53400 63400 65500
2021-01-23 17:00 5.08 31900 66900 (2020) 38100 (2018) 53800 40600 44400 53400 63400 65500
2021-01-23 16:00 5.11 32100 66900 (2020) 38100 (2018) 53800 40600 44400 53400 63400 65500
2021-01-23 15:00 5.10 32000 66900 (2020) 38100 (2018) 53800 40600 44400 53400 63400 65500
2021-01-23 14:00 5.11 32100 66900 (2020) 38100 (2018) 53800 40600 44400 53400 63400 65500
2021-01-23 13:00 5.08 31900 66900 (2020) 38100 (2018) 53800 40600 44400 53400 63400 65500
2021-01-23 12:00 5.09 32000 66900 (2020) 38100 (2018) 53800 40600 44400 53400 63400 65500
2021-01-23 11:00 5.08 31900 66900 (2020) 38100 (2018) 53800 40600 44400 53400 63400 65500
2021-01-23 10:00 5.08 31900 66900 (2020) 38100 (2018) 53800 40600 44400 53400 63400 65500
2021-01-23 09:00 5.09 32000 66900 (2020) 38100 (2018) 53800 40600 44400 53400 63400 65500
2021-01-23 08:00 5.08 31900 66900 (2020) 38100 (2018) 53800 40600 44400 53400 63400 65500
2021-01-23 07:00 5.09 32000 66900 (2020) 38100 (2018) 53800 40600 44400 53400 63400 65500
2021-01-23 06:00 5.10 32000 66900 (2020) 38100 (2018) 53800 40600 44400 53400 63400 65500
2021-01-23 05:00 5.08 31900 66900 (2020) 38100 (2018) 53800 40600 44400 53400 63400 65500
2021-01-23 04:00 5.05 31800 66900 (2020) 38100 (2018) 53800 40600 44400 53400 63400 65500
2021-01-23 03:00 5.08 31900 66900 (2020) 38100 (2018) 53800 40600 44400 53400 63400 65500
2021-01-23 02:00 5.05 31800 66900 (2020) 38100 (2018) 53800 40600 44400 53400 63400 65500
2021-01-23 01:00 5.06 31800 66900 (2020) 38100 (2018) 53800 40600 44400 53400 63400 65500
2021-01-23 00:00 5.05 31800 66900 (2020) 38100 (2018) 53800 40600 44400 53400 63400 65500
2021-01-22 23:00 5.05 31800 68000 (2020) 36400 (2018) 53400 38600 41900 53900 64500 66600
2021-01-22 22:00 5.08 31900 68000 (2020) 36400 (2018) 53400 38600 41900 53900 64500 66600
2021-01-22 21:00 5.05 31800 68000 (2020) 36400 (2018) 53400 38600 41900 53900 64500 66600
2021-01-22 20:00 5.05 31800 68000 (2020) 36400 (2018) 53400 38600 41900 53900 64500 66600
2021-01-22 19:00 5.05 31800 68000 (2020) 36400 (2018) 53400 38600 41900 53900 64500 66600
2021-01-22 18:00 5.05 31800 68000 (2020) 36400 (2018) 53400 38600 41900 53900 64500 66600
2021-01-22 17:00 5.06 31800 68000 (2020) 36400 (2018) 53400 38600 41900 53900 64500 66600
2021-01-22 16:00 5.06 31800 68000 (2020) 36400 (2018) 53400 38600 41900 53900 64500 66600
2021-01-22 15:00 5.04 31800 68000 (2020) 36400 (2018) 53400 38600 41900 53900 64500 66600
2021-01-22 14:00 5.09 32000 68000 (2020) 36400 (2018) 53400 38600 41900 53900 64500 66600
2021-01-22 13:00 5.07 31900 68000 (2020) 36400 (2018) 53400 38600 41900 53900 64500 66600
2021-01-22 12:00 5.05 31800 68000 (2020) 36400 (2018) 53400 38600 41900 53900 64500 66600
2021-01-22 11:00 5.06 31800 68000 (2020) 36400 (2018) 53400 38600 41900 53900 64500 66600
2021-01-22 10:00 5.08 31900 68000 (2020) 36400 (2018) 53400 38600 41900 53900 64500 66600
2021-01-22 09:00 5.06 31800 68000 (2020) 36400 (2018) 53400 38600 41900 53900 64500 66600
2021-01-22 08:00 5.06 31800 68000 (2020) 36400 (2018) 53400 38600 41900 53900 64500 66600
2021-01-22 07:00 5.06 31800 68000 (2020) 36400 (2018) 53400 38600 41900 53900 64500 66600
2021-01-22 06:00 5.05 31800 68000 (2020) 36400 (2018) 53400 38600 41900 53900 64500 66600
2021-01-22 05:00 5.04 31800 68000 (2020) 36400 (2018) 53400 38600 41900 53900 64500 66600
2021-01-22 04:00 5.07 31900 68000 (2020) 36400 (2018) 53400 38600 41900 53900 64500 66600
2021-01-22 03:00 5.04 31800 68000 (2020) 36400 (2018) 53400 38600 41900 53900 64500 66600
2021-01-22 02:00 5.04 31800 68000 (2020) 36400 (2018) 53400 38600 41900 53900 64500 66600
2021-01-22 01:00 5.05 31800 68000 (2020) 36400 (2018) 53400 38600 41900 53900 64500 66600
2021-01-22 00:00 5.05 31800 68000 (2020) 36400 (2018) 53400 38600 41900 53900 64500 66600
2021-01-21 23:00 5.07 31900 69100 (2020) 36000 (2018) 54100 38200 41400 54200 66800 68200
2021-01-21 22:00 5.05 31800 69100 (2020) 36000 (2018) 54100 38200 41400 54200 66800 68200
2021-01-21 21:00 5.10 32000 69100 (2020) 36000 (2018) 54100 38200 41400 54200 66800 68200
2021-01-21 20:00 5.06 31800 69100 (2020) 36000 (2018) 54100 38200 41400 54200 66800 68200
2021-01-21 19:00 5.05 31800 69100 (2020) 36000 (2018) 54100 38200 41400 54200 66800 68200
2021-01-21 18:00 5.06 31800 69100 (2020) 36000 (2018) 54100 38200 41400 54200 66800 68200
2021-01-21 17:00 5.09 32000 69100 (2020) 36000 (2018) 54100 38200 41400 54200 66800 68200
2021-01-21 16:00 5.10 32000 69100 (2020) 36000 (2018) 54100 38200 41400 54200 66800 68200
2021-01-21 15:00 5.07 31900 69100 (2020) 36000 (2018) 54100 38200 41400 54200 66800 68200
2021-01-21 14:00 5.10 32000 69100 (2020) 36000 (2018) 54100 38200 41400 54200 66800 68200
2021-01-21 13:00 5.09 32000 69100 (2020) 36000 (2018) 54100 38200 41400 54200 66800 68200
2021-01-21 12:00 5.09 32000 69100 (2020) 36000 (2018) 54100 38200 41400 54200 66800 68200
2021-01-21 11:00 5.09 32000 69100 (2020) 36000 (2018) 54100 38200 41400 54200 66800 68200
2021-01-21 10:00 5.09 32000 69100 (2020) 36000 (2018) 54100 38200 41400 54200 66800 68200
2021-01-21 09:00 5.11 32100 69100 (2020) 36000 (2018) 54100 38200 41400 54200 66800 68200
2021-01-21 08:00 5.12 32100 69100 (2020) 36000 (2018) 54100 38200 41400 54200 66800 68200
2021-01-21 07:00 5.15 32200 69100 (2020) 36000 (2018) 54100 38200 41400 54200 66800 68200
2021-01-21 06:00 5.13 32100 69100 (2020) 36000 (2018) 54100 38200 41400 54200 66800 68200
2021-01-21 05:00 5.15 32200 69100 (2020) 36000 (2018) 54100 38200 41400 54200 66800 68200
2021-01-21 04:00 5.18 32400 69100 (2020) 36000 (2018) 54100 38200 41400 54200 66800 68200
2021-01-21 03:00 5.15 32200 69100 (2020) 36000 (2018) 54100 38200 41400 54200 66800 68200
2021-01-21 02:00 5.15 32200 69100 (2020) 36000 (2018) 54100 38200 41400 54200 66800 68200
2021-01-21 01:00 5.15 32200 69100 (2020) 36000 (2018) 54100 38200 41400 54200 66800 68200
2021-01-21 00:00 5.22 32500 69100 (2020) 36000 (2018) 54100 38200 41400 54200 66800 68200
2021-01-20 23:00 5.21 32500 70200 (2020) 36400 (2018) 56500 39500 44100 55700 69400 69900
2021-01-20 22:00 5.24 32600 70200 (2020) 36400 (2018) 56500 39500 44100 55700 69400 69900
2021-01-20 21:00 5.26 32700 70200 (2020) 36400 (2018) 56500 39500 44100 55700 69400 69900
2021-01-20 20:00 5.25 32600 70200 (2020) 36400 (2018) 56500 39500 44100 55700 69400 69900
2021-01-20 19:00 5.25 32600 70200 (2020) 36400 (2018) 56500 39500 44100 55700 69400 69900
2021-01-20 18:00 5.25 32600 70200 (2020) 36400 (2018) 56500 39500 44100 55700 69400 69900
2021-01-20 17:00 5.27 32700 70200 (2020) 36400 (2018) 56500 39500 44100 55700 69400 69900
2021-01-20 16:00 5.27 32700 70200 (2020) 36400 (2018) 56500 39500 44100 55700 69400 69900
2021-01-20 15:00 5.28 32800 70200 (2020) 36400 (2018) 56500 39500 44100 55700 69400 69900
2021-01-20 14:00 5.31 32900 70200 (2020) 36400 (2018) 56500 39500 44100 55700 69400 69900
2021-01-20 13:00 5.29 32800 70200 (2020) 36400 (2018) 56500 39500 44100 55700 69400 69900
2021-01-20 12:00 5.32 32900 70200 (2020) 36400 (2018) 56500 39500 44100 55700 69400 69900
2021-01-20 11:00 5.29 32800 70200 (2020) 36400 (2018) 56500 39500 44100 55700 69400 69900
2021-01-20 10:00 5.33 33000 70200 (2020) 36400 (2018) 56500 39500 44100 55700 69400 69900
2021-01-20 09:00 5.33 33000 70200 (2020) 36400 (2018) 56500 39500 44100 55700 69400 69900
2021-01-20 08:00 5.35 33100 70200 (2020) 36400 (2018) 56500 39500 44100 55700 69400 69900
2021-01-20 07:00 5.34 33000 70200 (2020) 36400 (2018) 56500 39500 44100 55700 69400 69900
2021-01-20 06:00 5.33 33000 70200 (2020) 36400 (2018) 56500 39500 44100 55700 69400 69900
2021-01-20 05:00 5.35 33100 70200 (2020) 36400 (2018) 56500 39500 44100 55700 69400 69900
2021-01-20 04:00 5.38 33200 70200 (2020) 36400 (2018) 56500 39500 44100 55700 69400 69900
2021-01-20 03:00 5.37 33200 70200 (2020) 36400 (2018) 56500 39500 44100 55700 69400 69900
2021-01-20 02:00 5.38 33200 70200 (2020) 36400 (2018) 56500 39500 44100 55700 69400 69900
2021-01-20 01:00 5.36 33100 70200 (2020) 36400 (2018) 56500 39500 44100 55700 69400 69900
2021-01-20 00:00 5.37 33200 70200 (2020) 36400 (2018) 56500 39500 44100 55700 69400 69900
2021-01-19 23:00 5.39 33200 71400 (2020) 36300 (2018) 57400 39100 43300 58900 70600 71100
2021-01-19 22:00 5.38 33200 71400 (2020) 36300 (2018) 57400 39100 43300 58900 70600 71100
2021-01-19 21:00 5.38 33200 71400 (2020) 36300 (2018) 57400 39100 43300 58900 70600 71100
2021-01-19 20:00 5.39 33200 71400 (2020) 36300 (2018) 57400 39100 43300 58900 70600 71100
2021-01-19 19:00 5.42 33400 71400 (2020) 36300 (2018) 57400 39100 43300 58900 70600 71100
2021-01-19 18:00 5.41 33300 71400 (2020) 36300 (2018) 57400 39100 43300 58900 70600 71100
2021-01-19 17:00 5.43 33400 71400 (2020) 36300 (2018) 57400 39100 43300 58900 70600 71100
2021-01-19 16:00 5.44 33500 71400 (2020) 36300 (2018) 57400 39100 43300 58900 70600 71100
2021-01-19 15:00 5.47 33600 71400 (2020) 36300 (2018) 57400 39100 43300 58900 70600 71100
2021-01-19 14:00 5.44 33500 71400 (2020) 36300 (2018) 57400 39100 43300 58900 70600 71100
2021-01-19 13:00 5.50 33700 71400 (2020) 36300 (2018) 57400 39100 43300 58900 70600 71100
2021-01-19 12:00 5.49 33700 71400 (2020) 36300 (2018) 57400 39100 43300 58900 70600 71100
2021-01-19 11:00 5.51 33800 71400 (2020) 36300 (2018) 57400 39100 43300 58900 70600 71100
2021-01-19 10:00 5.50 33700 71400 (2020) 36300 (2018) 57400 39100 43300 58900 70600 71100
2021-01-19 09:00 5.52 33800 71400 (2020) 36300 (2018) 57400 39100 43300 58900 70600 71100
2021-01-19 08:00 5.49 33700 71400 (2020) 36300 (2018) 57400 39100 43300 58900 70600 71100
2021-01-19 07:00 5.51 33800 71400 (2020) 36300 (2018) 57400 39100 43300 58900 70600 71100
2021-01-19 06:00 5.54 33900 71400 (2020) 36300 (2018) 57400 39100 43300 58900 70600 71100
2021-01-19 05:00 5.55 33900 71400 (2020) 36300 (2018) 57400 39100 43300 58900 70600 71100
2021-01-19 04:00 5.58 34100 71400 (2020) 36300 (2018) 57400 39100 43300 58900 70600 71100
2021-01-19 03:00 5.53 33900 71400 (2020) 36300 (2018) 57400 39100 43300 58900 70600 71100
2021-01-19 02:00 5.55 33900 71400 (2020) 36300 (2018) 57400 39100 43300 58900 70600 71100
2021-01-19 01:00 5.58 34100 71400 (2020) 36300 (2018) 57400 39100 43300 58900 70600 71100
2021-01-19 00:00 5.55 33900 71400 (2020) 36300 (2018) 57400 39100 43300 58900 70600 71100
2021-01-18 23:00 5.57 34000 71900 (2020) 35700 (2018) 55100 36400 37300 60700 70200 71200
2021-01-18 22:00 5.56 34000 71900 (2020) 35700 (2018) 55100 36400 37300 60700 70200 71200
2021-01-18 21:00 5.61 34200 71900 (2020) 35700 (2018) 55100 36400 37300 60700 70200 71200
2021-01-18 20:00 5.62 34200 71900 (2020) 35700 (2018) 55100 36400 37300 60700 70200 71200
2021-01-18 19:00 5.60 34200 71900 (2020) 35700 (2018) 55100 36400 37300 60700 70200 71200
2021-01-18 18:00 5.61 34200 71900 (2020) 35700 (2018) 55100 36400 37300 60700 70200 71200
2021-01-18 17:00 5.62 34200 71900 (2020) 35700 (2018) 55100 36400 37300 60700 70200 71200
2021-01-18 16:00 5.61 34200 71900 (2020) 35700 (2018) 55100 36400 37300 60700 70200 71200
2021-01-18 15:00 5.65 34400 71900 (2020) 35700 (2018) 55100 36400 37300 60700 70200 71200
2021-01-18 14:00 5.62 34200 71900 (2020) 35700 (2018) 55100 36400 37300 60700 70200 71200
2021-01-18 13:00 5.66 34400 71900 (2020) 35700 (2018) 55100 36400 37300 60700 70200 71200
2021-01-18 12:00 5.66 34400 71900 (2020) 35700 (2018) 55100 36400 37300 60700 70200 71200
2021-01-18 11:00 5.64 34300 71900 (2020) 35700 (2018) 55100 36400 37300 60700 70200 71200
2021-01-18 10:00 5.64 34300 71900 (2020) 35700 (2018) 55100 36400 37300 60700 70200 71200
2021-01-18 09:00 5.64 34300 71900 (2020) 35700 (2018) 55100 36400 37300 60700 70200 71200
2021-01-18 08:00 5.65 34400 71900 (2020) 35700 (2018) 55100 36400 37300 60700 70200 71200
2021-01-18 07:00 5.65 34400 71900 (2020) 35700 (2018) 55100 36400 37300 60700 70200 71200
2021-01-18 06:00 5.65 34400 71900 (2020) 35700 (2018) 55100 36400 37300 60700 70200 71200
2021-01-18 05:00 5.66 34400 71900 (2020) 35700 (2018) 55100 36400 37300 60700 70200 71200
2021-01-18 04:00 5.63 34300 71900 (2020) 35700 (2018) 55100 36400 37300 60700 70200 71200
2021-01-18 03:00 5.66 34400 71900 (2020) 35700 (2018) 55100 36400 37300 60700 70200 71200
2021-01-18 02:00 5.66 34400 71900 (2020) 35700 (2018) 55100 36400 37300 60700 70200 71200
2021-01-18 01:00 5.64 34300 71900 (2020) 35700 (2018) 55100 36400 37300 60700 70200 71200
2021-01-18 00:00 5.63 34300 71900 (2020) 35700 (2018) 55100 36400 37300 60700 70200 71200
2021-01-17 23:00 5.62 34200 71600 (2020) 35600 (2018) 55200 36000 36500 62500 70300 71100
2021-01-17 22:00 5.65 34400 71600 (2020) 35600 (2018) 55200 36000 36500 62500 70300 71100
2021-01-17 21:00 5.63 34300 71600 (2020) 35600 (2018) 55200 36000 36500 62500 70300 71100
2021-01-17 20:00 5.63 34300 71600 (2020) 35600 (2018) 55200 36000 36500 62500 70300 71100
2021-01-17 19:00 5.63 34300 71600 (2020) 35600 (2018) 55200 36000 36500 62500 70300 71100
2021-01-17 18:00 5.64 34300 71600 (2020) 35600 (2018) 55200 36000 36500 62500 70300 71100
2021-01-17 17:00 5.63 34300 71600 (2020) 35600 (2018) 55200 36000 36500 62500 70300 71100
2021-01-17 16:00 5.67 34500 71600 (2020) 35600 (2018) 55200 36000 36500 62500 70300 71100
2021-01-17 15:00 5.64 34300 71600 (2020) 35600 (2018) 55200 36000 36500 62500 70300 71100
2021-01-17 14:00 5.67 34500 71600 (2020) 35600 (2018) 55200 36000 36500 62500 70300 71100
2021-01-17 13:00 5.64 34300 71600 (2020) 35600 (2018) 55200 36000 36500 62500 70300 71100
2021-01-17 12:00 5.65 34400 71600 (2020) 35600 (2018) 55200 36000 36500 62500 70300 71100
2021-01-17 11:00 5.61 34200 71600 (2020) 35600 (2018) 55200 36000 36500 62500 70300 71100
2021-01-17 10:00 5.64 34300 71600 (2020) 35600 (2018) 55200 36000 36500 62500 70300 71100
2021-01-17 09:00 5.61 34200 71600 (2020) 35600 (2018) 55200 36000 36500 62500 70300 71100
2021-01-17 08:00 5.58 34100 71600 (2020) 35600 (2018) 55200 36000 36500 62500 70300 71100
2021-01-17 07:00 5.59 34100 71600 (2020) 35600 (2018) 55200 36000 36500 62500 70300 71100
2021-01-17 06:00 5.57 34000 71600 (2020) 35600 (2018) 55200 36000 36500 62500 70300 71100
2021-01-17 05:00 5.57 34000 71600 (2020) 35600 (2018) 55200 36000 36500 62500 70300 71100
2021-01-17 04:00 5.57 34000 71600 (2020) 35600 (2018) 55200 36000 36500 62500 70300 71100
2021-01-17 03:00 5.59 34100 71600 (2020) 35600 (2018) 55200 36000 36500 62500 70300 71100
2021-01-17 02:00 5.57 34000 71600 (2020) 35600 (2018) 55200 36000 36500 62500 70300 71100
2021-01-17 01:00 5.55 33900 71600 (2020) 35600 (2018) 55200 36000 36500 62500 70300 71100
2021-01-16 23:00 5.53 33900 72000 (2020) 35900 (2017) 55700 36100 36300 64000 70900 71600
2021-01-16 22:00 5.54 33900 72000 (2020) 35900 (2017) 55700 36100 36300 64000 70900 71600
2021-01-16 21:00 5.53 33900 72000 (2020) 35900 (2017) 55700 36100 36300 64000 70900 71600
2021-01-16 20:00 5.51 33800 72000 (2020) 35900 (2017) 55700 36100 36300 64000 70900 71600
2021-01-16 19:00 5.48 33600 72000 (2020) 35900 (2017) 55700 36100 36300 64000 70900 71600
2021-01-16 18:00 5.48 33600 72000 (2020) 35900 (2017) 55700 36100 36300 64000 70900 71600
2021-01-16 17:00 5.51 33800 72000 (2020) 35900 (2017) 55700 36100 36300 64000 70900 71600
2021-01-16 16:00 5.50 33700 72000 (2020) 35900 (2017) 55700 36100 36300 64000 70900 71600
2021-01-16 15:00 5.49 33700 72000 (2020) 35900 (2017) 55700 36100 36300 64000 70900 71600
2021-01-16 14:00 5.50 33700 72000 (2020) 35900 (2017) 55700 36100 36300 64000 70900 71600
2021-01-16 13:00 5.47 33600 72000 (2020) 35900 (2017) 55700 36100 36300 64000 70900 71600
2021-01-16 12:00 5.48 33600 72000 (2020) 35900 (2017) 55700 36100 36300 64000 70900 71600
2021-01-16 11:00 5.48 33600 72000 (2020) 35900 (2017) 55700 36100 36300 64000 70900 71600
2021-01-16 10:00 5.44 33500 72000 (2020) 35900 (2017) 55700 36100 36300 64000 70900 71600
2021-01-16 09:00 5.44 33500 72000 (2020) 35900 (2017) 55700 36100 36300 64000 70900 71600
2021-01-16 08:00 5.46 33600 72000 (2020) 35900 (2017) 55700 36100 36300 64000 70900 71600
2021-01-16 07:00 5.39 33200 72000 (2020) 35900 (2017) 55700 36100 36300 64000 70900 71600
2021-01-16 06:00 5.40 33300 72000 (2020) 35900 (2017) 55700 36100 36300 64000 70900 71600
2021-01-16 05:00 5.42 33400 72000 (2020) 35900 (2017) 55700 36100 36300 64000 70900 71600
2021-01-16 04:00 5.45 33500 72000 (2020) 35900 (2017) 55700 36100 36300 64000 70900 71600
2021-01-16 03:00 5.40 33300 72000 (2020) 35900 (2017) 55700 36100 36300 64000 70900 71600
2021-01-16 02:00 5.42 33400 72000 (2020) 35900 (2017) 55700 36100 36300 64000 70900 71600
2021-01-16 01:00 5.46 33600 72000 (2020) 35900 (2017) 55700 36100 36300 64000 70900 71600
2021-01-16 00:00 5.41 33300 72000 (2020) 35900 (2017) 55700 36100 36300 64000 70900 71600
2021-01-15 23:00 5.39 33200 72900 (2020) 35400 (2017) 56500 36100 37200 64300 71900 72500
2021-01-15 22:00 5.40 33300 72900 (2020) 35400 (2017) 56500 36100 37200 64300 71900 72500
2021-01-15 21:00 5.41 33300 72900 (2020) 35400 (2017) 56500 36100 37200 64300 71900 72500
2021-01-15 20:00 5.39 33200 72900 (2020) 35400 (2017) 56500 36100 37200 64300 71900 72500
2021-01-15 19:00 5.38 33200 72900 (2020) 35400 (2017) 56500 36100 37200 64300 71900 72500
2021-01-15 18:00 5.41 33300 72900 (2020) 35400 (2017) 56500 36100 37200 64300 71900 72500
2021-01-15 17:00 5.42 33400 72900 (2020) 35400 (2017) 56500 36100 37200 64300 71900 72500
2021-01-15 16:00 5.40 33300 72900 (2020) 35400 (2017) 56500 36100 37200 64300 71900 72500
2021-01-15 15:00 5.40 33300 72900 (2020) 35400 (2017) 56500 36100 37200 64300 71900 72500
2021-01-15 14:00 5.40 33300 72900 (2020) 35400 (2017) 56500 36100 37200 64300 71900 72500
2021-01-15 13:00 5.40 33300 72900 (2020) 35400 (2017) 56500 36100 37200 64300 71900 72500
2021-01-15 12:00 5.43 33400 72900 (2020) 35400 (2017) 56500 36100 37200 64300 71900 72500
2021-01-15 11:00 5.46 33600 72900 (2020) 35400 (2017) 56500 36100 37200 64300 71900 72500
2021-01-15 10:00 5.41 33300 72900 (2020) 35400 (2017) 56500 36100 37200 64300 71900 72500
2021-01-15 09:00 5.41 33300 72900 (2020) 35400 (2017) 56500 36100 37200 64300 71900 72500
2021-01-15 08:00 5.38 33200 72900 (2020) 35400 (2017) 56500 36100 37200 64300 71900 72500
2021-01-15 07:00 5.40 33300 72900 (2020) 35400 (2017) 56500 36100 37200 64300 71900 72500
2021-01-15 06:00 5.39 33200 72900 (2020) 35400 (2017) 56500 36100 37200 64300 71900 72500
2021-01-15 05:00 5.41 33300 72900 (2020) 35400 (2017) 56500 36100 37200 64300 71900 72500
2021-01-15 04:00 5.39 33200 72900 (2020) 35400 (2017) 56500 36100 37200 64300 71900 72500
2021-01-15 03:00 5.43 33400 72900 (2020) 35400 (2017) 56500 36100 37200 64300 71900 72500
2021-01-15 02:00 5.43 33400 72900 (2020) 35400 (2017) 56500 36100 37200 64300 71900 72500
2021-01-15 01:00 5.47 33600 72900 (2020) 35400 (2017) 56500 36100 37200 64300 71900 72500
2021-01-15 00:00 5.48 33600 72900 (2020) 35400 (2017) 56500 36100 37200 64300 71900 72500
2021-01-14 23:00 5.45 33500 73700 (2020) 35700 (2017) 57500 36700 38300 64900 72900 73400
2021-01-14 22:00 5.46 33600 73700 (2020) 35700 (2017) 57500 36700 38300 64900 72900 73400
2021-01-14 21:00 5.44 33500 73700 (2020) 35700 (2017) 57500 36700 38300 64900 72900 73400
2021-01-14 20:00 5.47 33600 73700 (2020) 35700 (2017) 57500 36700 38300 64900 72900 73400
2021-01-14 19:00 5.45 33500 73700 (2020) 35700 (2017) 57500 36700 38300 64900 72900 73400
2021-01-14 18:00 5.50 33700 73700 (2020) 35700 (2017) 57500 36700 38300 64900 72900 73400
2021-01-14 17:00 5.48 33600 73700 (2020) 35700 (2017) 57500 36700 38300 64900 72900 73400
2021-01-14 16:00 5.47 33600 73700 (2020) 35700 (2017) 57500 36700 38300 64900 72900 73400
2021-01-14 15:00 5.47 33600 73700 (2020) 35700 (2017) 57500 36700 38300 64900 72900 73400
2021-01-14 14:00 5.45 33500 73700 (2020) 35700 (2017) 57500 36700 38300 64900 72900 73400
2021-01-14 13:00 5.51 33800 73700 (2020) 35700 (2017) 57500 36700 38300 64900 72900 73400
2021-01-14 12:00 5.49 33700 73700 (2020) 35700 (2017) 57500 36700 38300 64900 72900 73400
2021-01-14 11:00 5.50 33700 73700 (2020) 35700 (2017) 57500 36700 38300 64900 72900 73400
2021-01-14 10:00 5.51 33800 73700 (2020) 35700 (2017) 57500 36700 38300 64900 72900 73400
2021-01-14 09:00 5.54 33900 73700 (2020) 35700 (2017) 57500 36700 38300 64900 72900 73400
2021-01-14 08:00 5.53 33900 73700 (2020) 35700 (2017) 57500 36700 38300 64900 72900 73400
2021-01-14 07:00 5.51 33800 73700 (2020) 35700 (2017) 57500 36700 38300 64900 72900 73400
2021-01-14 06:00 5.50 33700 73700 (2020) 35700 (2017) 57500 36700 38300 64900 72900 73400
2021-01-14 05:00 5.48 33600 73700 (2020) 35700 (2017) 57500 36700 38300 64900 72900 73400
2021-01-14 04:00 5.52 33800 73700 (2020) 35700 (2017) 57500 36700 38300 64900 72900 73400
2021-01-14 03:00 5.53 33900 73700 (2020) 35700 (2017) 57500 36700 38300 64900 72900 73400
2021-01-14 02:00 5.54 33900 73700 (2020) 35700 (2017) 57500 36700 38300 64900 72900 73400
2021-01-14 01:00 5.50 33700 73700 (2020) 35700 (2017) 57500 36700 38300 64900 72900 73400
2021-01-14 00:00 5.50 33700 73700 (2020) 35700 (2017) 57500 36700 38300 64900 72900 73400
2021-01-13 23:00 5.54 33900 77800 (2020) 36600 (2017) 59100 37200 38100 68400 75300 76800
2021-01-13 22:00 5.54 33900 77800 (2020) 36600 (2017) 59100 37200 38100 68400 75300 76800
2021-01-13 21:00 5.53 33900 77800 (2020) 36600 (2017) 59100 37200 38100 68400 75300 76800
2021-01-13 20:00 5.55 33900 77800 (2020) 36600 (2017) 59100 37200 38100 68400 75300 76800
2021-01-13 19:00 5.53 33900 77800 (2020) 36600 (2017) 59100 37200 38100 68400 75300 76800
2021-01-13 18:00 5.55 33900 77800 (2020) 36600 (2017) 59100 37200 38100 68400 75300 76800
2021-01-13 17:00 5.55 33900 77800 (2020) 36600 (2017) 59100 37200 38100 68400 75300 76800
2021-01-13 16:00 5.60 34200 77800 (2020) 36600 (2017) 59100 37200 38100 68400 75300 76800
2021-01-13 15:00 5.60 34200 77800 (2020) 36600 (2017) 59100 37200 38100 68400 75300 76800
2021-01-13 14:00 5.58 34100 77800 (2020) 36600 (2017) 59100 37200 38100 68400 75300 76800
2021-01-13 13:00 5.56 34000 77800 (2020) 36600 (2017) 59100 37200 38100 68400 75300 76800
2021-01-13 12:00 5.60 34200 77800 (2020) 36600 (2017) 59100 37200 38100 68400 75300 76800
2021-01-13 11:00 5.59 34100 77800 (2020) 36600 (2017) 59100 37200 38100 68400 75300 76800
2021-01-13 10:00 5.59 34100 77800 (2020) 36600 (2017) 59100 37200 38100 68400 75300 76800
2021-01-13 09:00 5.59 34100 77800 (2020) 36600 (2017) 59100 37200 38100 68400 75300 76800
2021-01-13 08:00 5.59 34100 77800 (2020) 36600 (2017) 59100 37200 38100 68400 75300 76800
2021-01-13 07:00 5.57 34000 77800 (2020) 36600 (2017) 59100 37200 38100 68400 75300 76800
2021-01-13 06:00 5.59 34100 77800 (2020) 36600 (2017) 59100 37200 38100 68400 75300 76800
2021-01-13 05:00 5.58 34100 77800 (2020) 36600 (2017) 59100 37200 38100 68400 75300 76800
2021-01-13 04:00 5.58 34100 77800 (2020) 36600 (2017) 59100 37200 38100 68400 75300 76800
2021-01-13 03:00 5.58 34100 77800 (2020) 36600 (2017) 59100 37200 38100 68400 75300 76800
2021-01-13 02:00 5.57 34000 77800 (2020) 36600 (2017) 59100 37200 38100 68400 75300 76800
2021-01-13 01:00 5.56 34000 77800 (2020) 36600 (2017) 59100 37200 38100 68400 75300 76800
2021-01-13 00:00 5.58 34100 77800 (2020) 36600 (2017) 59100 37200 38100 68400 75300 76800
2021-01-12 23:00 5.59 34100 82900 (2020) 37100 (2017) 60500 37200 37300 70900 78500 81200
2021-01-12 22:00 5.57 34000 82900 (2020) 37100 (2017) 60500 37200 37300 70900 78500 81200
2021-01-12 21:00 5.61 34200 82900 (2020) 37100 (2017) 60500 37200 37300 70900 78500 81200
2021-01-12 20:00 5.60 34200 82900 (2020) 37100 (2017) 60500 37200 37300 70900 78500 81200
2021-01-12 19:00 5.57 34000 82900 (2020) 37100 (2017) 60500 37200 37300 70900 78500 81200
2021-01-12 18:00 5.59 34100 82900 (2020) 37100 (2017) 60500 37200 37300 70900 78500 81200
2021-01-12 17:00 5.62 34200 82900 (2020) 37100 (2017) 60500 37200 37300 70900 78500 81200
2021-01-12 16:00 5.60 34200 82900 (2020) 37100 (2017) 60500 37200 37300 70900 78500 81200
2021-01-12 15:00 5.63 34300 82900 (2020) 37100 (2017) 60500 37200 37300 70900 78500 81200
2021-01-12 14:00 5.58 34100 82900 (2020) 37100 (2017) 60500 37200 37300 70900 78500 81200
2021-01-12 13:00 5.61 34200 82900 (2020) 37100 (2017) 60500 37200 37300 70900 78500 81200
2021-01-12 12:00 5.61 34200 82900 (2020) 37100 (2017) 60500 37200 37300 70900 78500 81200
2021-01-12 11:00 5.60 34200 82900 (2020) 37100 (2017) 60500 37200 37300 70900 78500 81200
2021-01-12 10:00 5.61 34200 82900 (2020) 37100 (2017) 60500 37200 37300 70900 78500 81200
2021-01-12 09:00 5.62 34200 82900 (2020) 37100 (2017) 60500 37200 37300 70900 78500 81200
2021-01-12 08:00 5.60 34200 82900 (2020) 37100 (2017) 60500 37200 37300 70900 78500 81200
2021-01-12 07:00 5.58 34100 82900 (2020) 37100 (2017) 60500 37200 37300 70900 78500 81200
2021-01-12 06:00 5.60 34200 82900 (2020) 37100 (2017) 60500 37200 37300 70900 78500 81200
2021-01-12 05:00 5.61 34200 82900 (2020) 37100 (2017) 60500 37200 37300 70900 78500 81200
2021-01-12 04:00 5.59 34100 82900 (2020) 37100 (2017) 60500 37200 37300 70900 78500 81200
2021-01-12 03:00 5.59 34100 82900 (2020) 37100 (2017) 60500 37200 37300 70900 78500 81200
2021-01-12 02:00 5.58 34100 82900 (2020) 37100 (2017) 60500 37200 37300 70900 78500 81200
2021-01-12 01:00 5.60 34200 82900 (2020) 37100 (2017) 60500 37200 37300 70900 78500 81200
2021-01-12 00:00 5.60 34200 82900 (2020) 37100 (2017) 60500 37200 37300 70900 78500 81200
2021-01-11 23:00 5.59 34100 86200 (2020) 36300 (2018) 62400 36500 36700 74600 81900 84500
2021-01-11 22:00 5.56 34000 86200 (2020) 36300 (2018) 62400 36500 36700 74600 81900 84500
2021-01-11 21:00 5.58 34100 86200 (2020) 36300 (2018) 62400 36500 36700 74600 81900 84500
2021-01-11 20:00 5.58 34100 86200 (2020) 36300 (2018) 62400 36500 36700 74600 81900 84500
2021-01-11 19:00 5.60 34200 86200 (2020) 36300 (2018) 62400 36500 36700 74600 81900 84500
2021-01-11 18:00 5.59 34100 86200 (2020) 36300 (2018) 62400 36500 36700 74600 81900 84500
2021-01-11 17:00 5.54 33900 86200 (2020) 36300 (2018) 62400 36500 36700 74600 81900 84500
2021-01-11 16:00 5.56 34000 86200 (2020) 36300 (2018) 62400 36500 36700 74600 81900 84500
2021-01-11 15:00 5.58 34100 86200 (2020) 36300 (2018) 62400 36500 36700 74600 81900 84500
2021-01-11 14:00 5.55 33900 86200 (2020) 36300 (2018) 62400 36500 36700 74600 81900 84500
2021-01-11 13:00 5.55 33900 86200 (2020) 36300 (2018) 62400 36500 36700 74600 81900 84500
2021-01-11 12:00 5.55 33900 86200 (2020) 36300 (2018) 62400 36500 36700 74600 81900 84500
2021-01-11 11:00 5.51 33800 86200 (2020) 36300 (2018) 62400 36500 36700 74600 81900 84500
2021-01-11 10:00 5.53 33900 86200 (2020) 36300 (2018) 62400 36500 36700 74600 81900 84500
2021-01-11 09:00 5.51 33800 86200 (2020) 36300 (2018) 62400 36500 36700 74600 81900 84500
2021-01-11 08:00 5.48 33600 86200 (2020) 36300 (2018) 62400 36500 36700 74600 81900 84500
2021-01-11 07:00 5.51 33800 86200 (2020) 36300 (2018) 62400 36500 36700 74600 81900 84500
2021-01-11 06:00 5.50 33700 86200 (2020) 36300 (2018) 62400 36500 36700 74600 81900 84500
2021-01-11 05:00 5.51 33800 86200 (2020) 36300 (2018) 62400 36500 36700 74600 81900 84500
2021-01-11 04:00 5.48 33600 86200 (2020) 36300 (2018) 62400 36500 36700 74600 81900 84500
2021-01-11 03:00 5.49 33700 86200 (2020) 36300 (2018) 62400 36500 36700 74600 81900 84500
2021-01-11 02:00 5.49 33700 86200 (2020) 36300 (2018) 62400 36500 36700 74600 81900 84500
2021-01-11 01:00 5.48 33600 86200 (2020) 36300 (2018) 62400 36500 36700 74600 81900 84500
2021-01-11 00:00 5.47 33600 86200 (2020) 36300 (2018) 62400 36500 36700 74600 81900 84500
2021-01-10 23:00 5.47 33600 80600 (2019) 36100 (2018) 61600 36300 36700 76400 79000 80000
2021-01-10 22:00 5.46 33600 80600 (2019) 36100 (2018) 61600 36300 36700 76400 79000 80000
2021-01-10 21:00 5.44 33500 80600 (2019) 36100 (2018) 61600 36300 36700 76400 79000 80000
2021-01-10 20:00 5.45 33500 80600 (2019) 36100 (2018) 61600 36300 36700 76400 79000 80000
2021-01-10 19:00 5.42 33400 80600 (2019) 36100 (2018) 61600 36300 36700 76400 79000 80000
2021-01-10 18:00 5.45 33500 80600 (2019) 36100 (2018) 61600 36300 36700 76400 79000 80000
2021-01-10 17:00 5.46 33600 80600 (2019) 36100 (2018) 61600 36300 36700 76400 79000 80000
2021-01-10 16:00 5.41 33300 80600 (2019) 36100 (2018) 61600 36300 36700 76400 79000 80000
2021-01-10 15:00 5.44 33500 80600 (2019) 36100 (2018) 61600 36300 36700 76400 79000 80000
2021-01-10 14:00 5.42 33400 80600 (2019) 36100 (2018) 61600 36300 36700 76400 79000 80000
2021-01-10 13:00 5.39 33200 80600 (2019) 36100 (2018) 61600 36300 36700 76400 79000 80000
2021-01-10 12:00 5.39 33200 80600 (2019) 36100 (2018) 61600 36300 36700 76400 79000 80000
2021-01-10 11:00 5.33 33000 80600 (2019) 36100 (2018) 61600 36300 36700 76400 79000 80000
2021-01-10 10:00 5.35 33100 80600 (2019) 36100 (2018) 61600 36300 36700 76400 79000 80000
2021-01-10 09:00 5.33 33000 80600 (2019) 36100 (2018) 61600 36300 36700 76400 79000 80000
2021-01-10 08:00 5.34 33000 80600 (2019) 36100 (2018) 61600 36300 36700 76400 79000 80000
2021-01-10 07:00 5.34 33000 80600 (2019) 36100 (2018) 61600 36300 36700 76400 79000 80000
2021-01-10 06:00 5.31 32900 80600 (2019) 36100 (2018) 61600 36300 36700 76400 79000 80000
2021-01-10 05:00 5.32 32900 80600 (2019) 36100 (2018) 61600 36300 36700 76400 79000 80000
2021-01-10 04:00 5.31 32900 80600 (2019) 36100 (2018) 61600 36300 36700 76400 79000 80000
2021-01-10 03:00 5.34 33000 80600 (2019) 36100 (2018) 61600 36300 36700 76400 79000 80000
2021-01-10 02:00 5.32 32900 80600 (2019) 36100 (2018) 61600 36300 36700 76400 79000 80000
2021-01-10 01:00 5.31 32900 80600 (2019) 36100 (2018) 61600 36300 36700 76400 79000 80000
2021-01-09 23:00 5.29 32800 80800 (2019) 36800 (2018) 61000 36900 37000 73600 78700 80000
2021-01-09 21:00 5.30 32900 80800 (2019) 36800 (2018) 61000 36900 37000 73600 78700 80000
2021-01-09 20:00 5.30 32900 80800 (2019) 36800 (2018) 61000 36900 37000 73600 78700 80000
2021-01-09 19:00 5.28 32800 80800 (2019) 36800 (2018) 61000 36900 37000 73600 78700 80000
2021-01-09 18:00 5.30 32900 80800 (2019) 36800 (2018) 61000 36900 37000 73600 78700 80000
2021-01-09 17:00 5.28 32800 80800 (2019) 36800 (2018) 61000 36900 37000 73600 78700 80000
2021-01-09 16:00 5.27 32700 80800 (2019) 36800 (2018) 61000 36900 37000 73600 78700 80000
2021-01-09 15:00 5.23 32600 80800 (2019) 36800 (2018) 61000 36900 37000 73600 78700 80000
2021-01-09 14:00 5.28 32800 80800 (2019) 36800 (2018) 61000 36900 37000 73600 78700 80000
2021-01-09 13:00 5.27 32700 80800 (2019) 36800 (2018) 61000 36900 37000 73600 78700 80000
2021-01-09 12:00 5.24 32600 80800 (2019) 36800 (2018) 61000 36900 37000 73600 78700 80000
2021-01-09 11:00 5.25 32600 80800 (2019) 36800 (2018) 61000 36900 37000 73600 78700 80000
2021-01-09 10:00 5.24 32600 80800 (2019) 36800 (2018) 61000 36900 37000 73600 78700 80000
2021-01-09 09:00 5.29 32800 80800 (2019) 36800 (2018) 61000 36900 37000 73600 78700 80000
2021-01-09 08:00 5.26 32700 80800 (2019) 36800 (2018) 61000 36900 37000 73600 78700 80000
2021-01-09 07:00 5.23 32600 80800 (2019) 36800 (2018) 61000 36900 37000 73600 78700 80000
2021-01-09 06:00 5.23 32600 80800 (2019) 36800 (2018) 61000 36900 37000 73600 78700 80000
2021-01-09 05:00 5.24 32600 80800 (2019) 36800 (2018) 61000 36900 37000 73600 78700 80000
2021-01-09 04:00 5.24 32600 80800 (2019) 36800 (2018) 61000 36900 37000 73600 78700 80000
2021-01-09 03:00 5.27 32700 80800 (2019) 36800 (2018) 61000 36900 37000 73600 78700 80000
2021-01-09 02:00 5.22 32500 80800 (2019) 36800 (2018) 61000 36900 37000 73600 78700 80000
2021-01-09 01:00 5.26 32700 80800 (2019) 36800 (2018) 61000 36900 37000 73600 78700 80000
2021-01-09 00:00 5.25 32600 80800 (2019) 36800 (2018) 61000 36900 37000 73600 78700 80000
2021-01-08 23:00 5.25 32600 77600 (2019) 37600 (2018) 60200 37700 38000 70300 77300 77500
2021-01-08 22:00 5.26 32700 77600 (2019) 37600 (2018) 60200 37700 38000 70300 77300 77500
2021-01-08 21:00 5.25 32600 77600 (2019) 37600 (2018) 60200 37700 38000 70300 77300 77500
2021-01-08 20:00 5.26 32700 77600 (2019) 37600 (2018) 60200 37700 38000 70300 77300 77500
2021-01-08 19:00 5.25 32600 77600 (2019) 37600 (2018) 60200 37700 38000 70300 77300 77500
2021-01-08 18:00 5.29 32800 77600 (2019) 37600 (2018) 60200 37700 38000 70300 77300 77500
2021-01-08 17:00 5.28 32800 77600 (2019) 37600 (2018) 60200 37700 38000 70300 77300 77500
2021-01-08 16:00 5.31 32900 77600 (2019) 37600 (2018) 60200 37700 38000 70300 77300 77500
2021-01-08 15:00 5.32 32900 77600 (2019) 37600 (2018) 60200 37700 38000 70300 77300 77500
2021-01-08 14:00 5.28 32800 77600 (2019) 37600 (2018) 60200 37700 38000 70300 77300 77500
2021-01-08 13:00 5.31 32900 77600 (2019) 37600 (2018) 60200 37700 38000 70300 77300 77500
2021-01-08 12:00 5.30 32900 77600 (2019) 37600 (2018) 60200 37700 38000 70300 77300 77500
2021-01-08 11:00 5.31 32900 77600 (2019) 37600 (2018) 60200 37700 38000 70300 77300 77500
2021-01-08 10:00 5.33 33000 77600 (2019) 37600 (2018) 60200 37700 38000 70300 77300 77500
2021-01-08 09:00 5.33 33000 77600 (2019) 37600 (2018) 60200 37700 38000 70300 77300 77500
2021-01-08 08:00 5.30 32900 77600 (2019) 37600 (2018) 60200 37700 38000 70300 77300 77500
2021-01-08 07:00 5.32 32900 77600 (2019) 37600 (2018) 60200 37700 38000 70300 77300 77500
2021-01-08 06:00 5.32 32900 77600 (2019) 37600 (2018) 60200 37700 38000 70300 77300 77500
2021-01-08 05:00 5.32 32900 77600 (2019) 37600 (2018) 60200 37700 38000 70300 77300 77500
2021-01-08 04:00 5.37 33200 77600 (2019) 37600 (2018) 60200 37700 38000 70300 77300 77500
2021-01-08 03:00 5.33 33000 77600 (2019) 37600 (2018) 60200 37700 38000 70300 77300 77500
2021-01-08 02:00 5.33 33000 77600 (2019) 37600 (2018) 60200 37700 38000 70300 77300 77500
2021-01-08 01:00 5.34 33000 77600 (2019) 37600 (2018) 60200 37700 38000 70300 77300 77500
2021-01-08 00:00 5.38 33200 77600 (2019) 37600 (2018) 60200 37700 38000 70300 77300 77500
2021-01-07 23:00 5.37 33200 77100 (2020) 37600 (2018) 57600 38200 39000 62700 73700 75700
2021-01-07 22:00 5.36 33100 77100 (2020) 37600 (2018) 57600 38200 39000 62700 73700 75700
2021-01-07 21:00 5.37 33200 77100 (2020) 37600 (2018) 57600 38200 39000 62700 73700 75700
2021-01-07 20:00 5.33 33000 77100 (2020) 37600 (2018) 57600 38200 39000 62700 73700 75700
2021-01-07 19:00 5.34 33000 77100 (2020) 37600 (2018) 57600 38200 39000 62700 73700 75700
2021-01-07 18:00 5.33 33000 77100 (2020) 37600 (2018) 57600 38200 39000 62700 73700 75700
2021-01-07 17:00 5.34 33000 77100 (2020) 37600 (2018) 57600 38200 39000 62700 73700 75700
2021-01-07 16:00 5.33 33000 77100 (2020) 37600 (2018) 57600 38200 39000 62700 73700 75700
2021-01-07 15:00 5.32 32900 77100 (2020) 37600 (2018) 57600 38200 39000 62700 73700 75700
2021-01-07 14:00 5.33 33000 77100 (2020) 37600 (2018) 57600 38200 39000 62700 73700 75700
2021-01-07 13:00 5.33 33000 77100 (2020) 37600 (2018) 57600 38200 39000 62700 73700 75700
2021-01-07 12:00 5.32 32900 77100 (2020) 37600 (2018) 57600 38200 39000 62700 73700 75700
2021-01-07 11:00 5.27 32700 77100 (2020) 37600 (2018) 57600 38200 39000 62700 73700 75700
2021-01-07 10:00 5.27 32700 77100 (2020) 37600 (2018) 57600 38200 39000 62700 73700 75700
2021-01-07 09:00 5.29 32800 77100 (2020) 37600 (2018) 57600 38200 39000 62700 73700 75700
2021-01-07 08:00 5.24 32600 77100 (2020) 37600 (2018) 57600 38200 39000 62700 73700 75700
2021-01-07 07:00 5.23 32600 77100 (2020) 37600 (2018) 57600 38200 39000 62700 73700 75700
2021-01-07 06:00 5.18 32400 77100 (2020) 37600 (2018) 57600 38200 39000 62700 73700 75700
2021-01-07 05:00 5.16 32300 77100 (2020) 37600 (2018) 57600 38200 39000 62700 73700 75700
2021-01-07 04:00 5.13 32100 77100 (2020) 37600 (2018) 57600 38200 39000 62700 73700 75700
2021-01-07 03:00 5.12 32100 77100 (2020) 37600 (2018) 57600 38200 39000 62700 73700 75700
2021-01-07 02:00 5.13 32100 77100 (2020) 37600 (2018) 57600 38200 39000 62700 73700 75700
2021-01-07 01:00 5.08 31900 77100 (2020) 37600 (2018) 57600 38200 39000 62700 73700 75700
2021-01-07 00:00 5.10 32000 77100 (2020) 37600 (2018) 57600 38200 39000 62700 73700 75700
2021-01-06 23:00 5.08 31900 77900 (2020) 36100 (2018) 57000 37500 39600 61000 72500 75700
2021-01-06 22:00 5.06 31800 77900 (2020) 36100 (2018) 57000 37500 39600 61000 72500 75700
2021-01-06 21:00 5.02 31700 77900 (2020) 36100 (2018) 57000 37500 39600 61000 72500 75700
2021-01-06 20:00 5.03 31700 77900 (2020) 36100 (2018) 57000 37500 39600 61000 72500 75700
2021-01-06 19:00 5.03 31700 77900 (2020) 36100 (2018) 57000 37500 39600 61000 72500 75700
2021-01-06 18:00 5.03 31700 77900 (2020) 36100 (2018) 57000 37500 39600 61000 72500 75700
2021-01-06 17:00 5.03 31700 77900 (2020) 36100 (2018) 57000 37500 39600 61000 72500 75700
2021-01-06 16:00 5.03 31700 77900 (2020) 36100 (2018) 57000 37500 39600 61000 72500 75700
2021-01-06 15:00 5.04 31800 77900 (2020) 36100 (2018) 57000 37500 39600 61000 72500 75700
2021-01-06 14:00 5.07 31900 77900 (2020) 36100 (2018) 57000 37500 39600 61000 72500 75700
2021-01-06 13:00 5.07 31900 77900 (2020) 36100 (2018) 57000 37500 39600 61000 72500 75700
2021-01-06 12:00 5.11 32100 77900 (2020) 36100 (2018) 57000 37500 39600 61000 72500 75700
2021-01-06 11:00 5.09 32000 77900 (2020) 36100 (2018) 57000 37500 39600 61000 72500 75700
2021-01-06 10:00 5.12 32100 77900 (2020) 36100 (2018) 57000 37500 39600 61000 72500 75700
2021-01-06 09:00 5.13 32100 77900 (2020) 36100 (2018) 57000 37500 39600 61000 72500 75700
2021-01-06 08:00 5.14 32200 77900 (2020) 36100 (2018) 57000 37500 39600 61000 72500 75700
2021-01-06 07:00 5.15 32200 77900 (2020) 36100 (2018) 57000 37500 39600 61000 72500 75700
2021-01-06 06:00 5.15 32200 77900 (2020) 36100 (2018) 57000 37500 39600 61000 72500 75700
2021-01-06 05:00 5.21 32500 77900 (2020) 36100 (2018) 57000 37500 39600 61000 72500 75700
2021-01-06 04:00 5.20 32400 77900 (2020) 36100 (2018) 57000 37500 39600 61000 72500 75700
2021-01-06 03:00 5.20 32400 77900 (2020) 36100 (2018) 57000 37500 39600 61000 72500 75700
2021-01-06 02:00 5.20 32400 77900 (2020) 36100 (2018) 57000 37500 39600 61000 72500 75700
2021-01-06 01:00 5.24 32600 77900 (2020) 36100 (2018) 57000 37500 39600 61000 72500 75700
2021-01-06 00:00 5.24 32600 77900 (2020) 36100 (2018) 57000 37500 39600 61000 72500 75700
2021-01-05 23:00 5.25 32600 77400 (2020) 35500 (2018) 57600 37400 40300 60500 73400 75800
2021-01-05 22:00 5.25 32600 77400 (2020) 35500 (2018) 57600 37400 40300 60500 73400 75800
2021-01-05 21:00 5.27 32700 77400 (2020) 35500 (2018) 57600 37400 40300 60500 73400 75800
2021-01-05 20:00 5.30 32900 77400 (2020) 35500 (2018) 57600 37400 40300 60500 73400 75800
2021-01-05 19:00 5.28 32800 77400 (2020) 35500 (2018) 57600 37400 40300 60500 73400 75800
2021-01-05 18:00 5.32 32900 77400 (2020) 35500 (2018) 57600 37400 40300 60500 73400 75800
2021-01-05 17:00 5.29 32800 77400 (2020) 35500 (2018) 57600 37400 40300 60500 73400 75800
2021-01-05 16:00 5.33 33000 77400 (2020) 35500 (2018) 57600 37400 40300 60500 73400 75800
2021-01-05 15:00 5.34 33000 77400 (2020) 35500 (2018) 57600 37400 40300 60500 73400 75800
2021-01-05 14:00 5.33 33000 77400 (2020) 35500 (2018) 57600 37400 40300 60500 73400 75800
2021-01-05 13:00 5.32 32900 77400 (2020) 35500 (2018) 57600 37400 40300 60500 73400 75800
2021-01-05 12:00 5.32 32900 77400 (2020) 35500 (2018) 57600 37400 40300 60500 73400 75800
2021-01-05 11:00 5.32 32900 77400 (2020) 35500 (2018) 57600 37400 40300 60500 73400 75800
2021-01-05 10:00 5.30 32900 77400 (2020) 35500 (2018) 57600 37400 40300 60500 73400 75800
2021-01-05 09:00 5.33 33000 77400 (2020) 35500 (2018) 57600 37400 40300 60500 73400 75800
2021-01-05 08:00 5.35 33100 77400 (2020) 35500 (2018) 57600 37400 40300 60500 73400 75800
2021-01-05 07:00 5.33 33000 77400 (2020) 35500 (2018) 57600 37400 40300 60500 73400 75800
2021-01-05 06:00 5.34 33000 77400 (2020) 35500 (2018) 57600 37400 40300 60500 73400 75800
2021-01-05 05:00 5.36 33100 77400 (2020) 35500 (2018) 57600 37400 40300 60500 73400 75800
2021-01-05 04:00 5.37 33200 77400 (2020) 35500 (2018) 57600 37400 40300 60500 73400 75800
2021-01-05 03:00 5.35 33100 77400 (2020) 35500 (2018) 57600 37400 40300 60500 73400 75800
2021-01-05 02:00 5.36 33100 77400 (2020) 35500 (2018) 57600 37400 40300 60500 73400 75800
2021-01-05 01:00 5.37 33200 77400 (2020) 35500 (2018) 57600 37400 40300 60500 73400 75800
2021-01-05 00:00 5.36 33100 77400 (2020) 35500 (2018) 57600 37400 40300 60500 73400 75800
2021-01-04 23:00 5.37 33200 77500 (2020) 35600 (2018) 58700 37700 40800 60700 75500 76700
2021-01-04 22:00 5.38 33200 77500 (2020) 35600 (2018) 58700 37700 40800 60700 75500 76700
2021-01-04 21:00 5.38 33200 77500 (2020) 35600 (2018) 58700 37700 40800 60700 75500 76700
2021-01-04 20:00 5.39 33200 77500 (2020) 35600 (2018) 58700 37700 40800 60700 75500 76700
2021-01-04 19:00 5.35 33100 77500 (2020) 35600 (2018) 58700 37700 40800 60700 75500 76700
2021-01-04 18:00 5.42 33400 77500 (2020) 35600 (2018) 58700 37700 40800 60700 75500 76700
2021-01-04 17:00 5.40 33300 77500 (2020) 35600 (2018) 58700 37700 40800 60700 75500 76700
2021-01-04 16:00 5.38 33200 77500 (2020) 35600 (2018) 58700 37700 40800 60700 75500 76700
2021-01-04 15:00 5.42 33400 77500 (2020) 35600 (2018) 58700 37700 40800 60700 75500 76700
2021-01-04 14:00 5.40 33300 77500 (2020) 35600 (2018) 58700 37700 40800 60700 75500 76700
2021-01-04 13:00 5.42 33400 77500 (2020) 35600 (2018) 58700 37700 40800 60700 75500 76700
2021-01-04 12:00 5.40 33300 77500 (2020) 35600 (2018) 58700 37700 40800 60700 75500 76700
2021-01-04 11:00 5.38 33200 77500 (2020) 35600 (2018) 58700 37700 40800 60700 75500 76700
2021-01-04 10:00 5.44 33500 77500 (2020) 35600 (2018) 58700 37700 40800 60700 75500 76700
2021-01-04 09:00 5.44 33500 77500 (2020) 35600 (2018) 58700 37700 40800 60700 75500 76700
2021-01-04 08:00 5.44 33500 77500 (2020) 35600 (2018) 58700 37700 40800 60700 75500 76700
2021-01-04 07:00 5.43 33400 77500 (2020) 35600 (2018) 58700 37700 40800 60700 75500 76700
2021-01-04 06:00 5.42 33400 77500 (2020) 35600 (2018) 58700 37700 40800 60700 75500 76700
2021-01-04 05:00 5.44 33500 77500 (2020) 35600 (2018) 58700 37700 40800 60700 75500 76700
2021-01-04 04:00 5.45 33500 77500 (2020) 35600 (2018) 58700 37700 40800 60700 75500 76700
2021-01-04 03:00 5.44 33500 77500 (2020) 35600 (2018) 58700 37700 40800 60700 75500 76700
2021-01-04 02:00 5.45 33500 77500 (2020) 35600 (2018) 58700 37700 40800 60700 75500 76700
2021-01-04 01:00 5.46 33600 77500 (2020) 35600 (2018) 58700 37700 40800 60700 75500 76700
2021-01-04 00:00 5.46 33600 77500 (2020) 35600 (2018) 58700 37700 40800 60700 75500 76700
2021-01-03 23:00 5.45 33500 81200 (2020) 35700 (2018) 60300 38000 41400 60000 79400 80500
2021-01-03 22:00 5.48 33600 81200 (2020) 35700 (2018) 60300 38000 41400 60000 79400 80500
2021-01-03 21:00 5.48 33600 81200 (2020) 35700 (2018) 60300 38000 41400 60000 79400 80500
2021-01-03 20:00 5.48 33600 81200 (2020) 35700 (2018) 60300 38000 41400 60000 79400 80500
2021-01-03 19:00 5.46 33600 81200 (2020) 35700 (2018) 60300 38000 41400 60000 79400 80500
2021-01-03 18:00 5.47 33600 81200 (2020) 35700 (2018) 60300 38000 41400 60000 79400 80500
2021-01-03 17:00 5.49 33700 81200 (2020) 35700 (2018) 60300 38000 41400 60000 79400 80500
2021-01-03 16:00 5.51 33800 81200 (2020) 35700 (2018) 60300 38000 41400 60000 79400 80500
2021-01-03 15:00 5.51 33800 81200 (2020) 35700 (2018) 60300 38000 41400 60000 79400 80500
2021-01-03 14:00 5.50 33700 81200 (2020) 35700 (2018) 60300 38000 41400 60000 79400 80500
2021-01-03 13:00 5.51 33800 81200 (2020) 35700 (2018) 60300 38000 41400 60000 79400 80500
2021-01-03 12:00 5.53 33900 81200 (2020) 35700 (2018) 60300 38000 41400 60000 79400 80500
2021-01-03 11:00 5.51 33800 81200 (2020) 35700 (2018) 60300 38000 41400 60000 79400 80500
2021-01-03 10:00 5.54 33900 81200 (2020) 35700 (2018) 60300 38000 41400 60000 79400 80500
2021-01-03 09:00 5.52 33800 81200 (2020) 35700 (2018) 60300 38000 41400 60000 79400 80500
2021-01-03 08:00 5.51 33800 81200 (2020) 35700 (2018) 60300 38000 41400 60000 79400 80500
2021-01-03 07:00 5.54 33900 81200 (2020) 35700 (2018) 60300 38000 41400 60000 79400 80500
2021-01-03 06:00 5.54 33900 81200 (2020) 35700 (2018) 60300 38000 41400 60000 79400 80500
2021-01-03 05:00 5.52 33800 81200 (2020) 35700 (2018) 60300 38000 41400 60000 79400 80500
2021-01-03 04:00 5.54 33900 81200 (2020) 35700 (2018) 60300 38000 41400 60000 79400 80500
2021-01-03 03:00 5.55 33900 81200 (2020) 35700 (2018) 60300 38000 41400 60000 79400 80500
2021-01-03 02:00 5.57 34000 81200 (2020) 35700 (2018) 60300 38000 41400 60000 79400 80500
2021-01-03 01:00 5.58 34100 81200 (2020) 35700 (2018) 60300 38000 41400 60000 79400 80500
2021-01-03 00:00 5.55 33900 81200 (2020) 35700 (2018) 60300 38000 41400 60000 79400 80500
2021-01-02 23:00 5.57 34000 87100 (2020) 34300 (2018) 62900 37000 41000 62000 85300 86400
2021-01-02 22:00 5.58 34100 87100 (2020) 34300 (2018) 62900 37000 41000 62000 85300 86400
2021-01-02 21:00 5.56 34000 87100 (2020) 34300 (2018) 62900 37000 41000 62000 85300 86400
2021-01-02 20:00 5.58 34100 87100 (2020) 34300 (2018) 62900 37000 41000 62000 85300 86400
2021-01-02 19:00 5.55 33900 87100 (2020) 34300 (2018) 62900 37000 41000 62000 85300 86400
2021-01-02 18:00 5.56 34000 87100 (2020) 34300 (2018) 62900 37000 41000 62000 85300 86400
2021-01-02 17:00 5.59 34100 87100 (2020) 34300 (2018) 62900 37000 41000 62000 85300 86400
2021-01-02 16:00 5.60 34200 87100 (2020) 34300 (2018) 62900 37000 41000 62000 85300 86400
2021-01-02 15:00 5.58 34100 87100 (2020) 34300 (2018) 62900 37000 41000 62000 85300 86400
2021-01-02 14:00 5.59 34100 87100 (2020) 34300 (2018) 62900 37000 41000 62000 85300 86400
2021-01-02 13:00 5.59 34100 87100 (2020) 34300 (2018) 62900 37000 41000 62000 85300 86400
2021-01-02 12:00 5.60 34200 87100 (2020) 34300 (2018) 62900 37000 41000 62000 85300 86400
2021-01-02 11:00 5.54 33900 87100 (2020) 34300 (2018) 62900 37000 41000 62000 85300 86400
2021-01-02 10:00 5.56 34000 87100 (2020) 34300 (2018) 62900 37000 41000 62000 85300 86400
2021-01-02 09:00 5.57 34000 87100 (2020) 34300 (2018) 62900 37000 41000 62000 85300 86400
2021-01-02 08:00 5.57 34000 87100 (2020) 34300 (2018) 62900 37000 41000 62000 85300 86400
2021-01-02 07:00 5.56 34000 87100 (2020) 34300 (2018) 62900 37000 41000 62000 85300 86400
2021-01-02 06:00 5.55 33900 87100 (2020) 34300 (2018) 62900 37000 41000 62000 85300 86400
2021-01-02 05:00 5.55 33900 87100 (2020) 34300 (2018) 62900 37000 41000 62000 85300 86400
2021-01-02 04:00 5.53 33900 87100 (2020) 34300 (2018) 62900 37000 41000 62000 85300 86400
2021-01-01 05:00 5.37 33200 92200 (2019) 33300 (2018) 65900 36100 40400 65600 91600 92000
2021-01-01 04:00 5.36 33100 92200 (2019) 33300 (2018) 65900 36100 40400 65600 91600 92000
2021-01-01 03:00 5.33 33000 92200 (2019) 33300 (2018) 65900 36100 40400 65600 91600 92000
2021-01-01 02:00 5.35 33100 92200 (2019) 33300 (2018) 65900 36100 40400 65600 91600 92000
2021-01-01 01:00 5.32 32900 92200 (2019) 33300 (2018) 65900 36100 40400 65600 91600 92000
2021-01-01 00:00 5.31 32900 92200 (2019) 33300 (2018) 65900 36100 40400 65600 91600 92000
2020-12-31 23:00 5.29 32800 100000 (2019) 33300 (2018) 68700 36200 40500 70600 96100 98400
2020-12-31 22:00 5.26 32700 100000 (2019) 33300 (2018) 68700 36200 40500 70600 96100 98400
2020-12-31 21:00 5.27 32700 100000 (2019) 33300 (2018) 68700 36200 40500 70600 96100 98400
2020-12-31 20:00 5.25 32600 100000 (2019) 33300 (2018) 68700 36200 40500 70600 96100 98400
2020-12-31 19:00 5.25 32600 100000 (2019) 33300 (2018) 68700 36200 40500 70600 96100 98400
2020-12-31 18:00 5.26 32700 100000 (2019) 33300 (2018) 68700 36200 40500 70600 96100 98400
2020-12-31 17:00 5.27 32700 100000 (2019) 33300 (2018) 68700 36200 40500 70600 96100 98400
2020-12-31 16:00 5.25 32600 100000 (2019) 33300 (2018) 68700 36200 40500 70600 96100 98400
2020-12-31 15:00 5.26 32700 100000 (2019) 33300 (2018) 68700 36200 40500 70600 96100 98400
2020-12-31 14:00 5.29 32800 100000 (2019) 33300 (2018) 68700 36200 40500 70600 96100 98400
2020-12-31 13:00 5.27 32700 100000 (2019) 33300 (2018) 68700 36200 40500 70600 96100 98400
2020-12-31 12:00 5.25 32600 100000 (2019) 33300 (2018) 68700 36200 40500 70600 96100 98400
2020-12-31 11:00 5.27 32700 100000 (2019) 33300 (2018) 68700 36200 40500 70600 96100 98400
2020-12-31 10:00 5.28 32800 100000 (2019) 33300 (2018) 68700 36200 40500 70600 96100 98400
2020-12-31 09:00 5.26 32700 100000 (2019) 33300 (2018) 68700 36200 40500 70600 96100 98400
2020-12-31 08:00 5.27 32700 100000 (2019) 33300 (2018) 68700 36200 40500 70600 96100 98400
2020-12-31 07:00 5.24 32600 100000 (2019) 33300 (2018) 68700 36200 40500 70600 96100 98400
2020-12-31 06:00 5.28 32800 100000 (2019) 33300 (2018) 68700 36200 40500 70600 96100 98400
2020-12-31 05:00 5.28 32800 100000 (2019) 33300 (2018) 68700 36200 40500 70600 96100 98400
2020-12-31 04:00 5.27 32700 100000 (2019) 33300 (2018) 68700 36200 40500 70600 96100 98400
2020-12-31 03:00 5.28 32800 100000 (2019) 33300 (2018) 68700 36200 40500 70600 96100 98400
2020-12-31 02:00 5.30 32900 100000 (2019) 33300 (2018) 68700 36200 40500 70600 96100 98400
2020-12-31 01:00 5.29 32800 100000 (2019) 33300 (2018) 68700 36200 40500 70600 96100 98400
2020-12-31 00:00 5.30 32900 100000 (2019) 33300 (2018) 68700 36200 40500 70600 96100 98400
2020-12-30 23:00 5.32 32900 112000 (2019) 33600 (2018) 72400 37400 43000 76500 99800 107000
2020-12-30 22:00 5.30 32900 112000 (2019) 33600 (2018) 72400 37400 43000 76500 99800 107000
2020-12-30 21:00 5.30 32900 112000 (2019) 33600 (2018) 72400 37400 43000 76500 99800 107000
2020-12-30 20:00 5.29 32800 112000 (2019) 33600 (2018) 72400 37400 43000 76500 99800 107000
2020-12-30 19:00 5.29 32800 112000 (2019) 33600 (2018) 72400 37400 43000 76500 99800 107000
2020-12-30 18:00 5.28 32800 112000 (2019) 33600 (2018) 72400 37400 43000 76500 99800 107000
2020-12-30 17:00 5.27 32700 112000 (2019) 33600 (2018) 72400 37400 43000 76500 99800 107000
2020-12-30 16:00 5.26 32700 112000 (2019) 33600 (2018) 72400 37400 43000 76500 99800 107000
2020-12-30 15:00 5.25 32600 112000 (2019) 33600 (2018) 72400 37400 43000 76500 99800 107000
2020-12-30 14:00 5.24 32600 112000 (2019) 33600 (2018) 72400 37400 43000 76500 99800 107000
2020-12-30 13:00 5.18 32400 112000 (2019) 33600 (2018) 72400 37400 43000 76500 99800 107000
2020-12-30 12:00 5.20 32400 112000 (2019) 33600 (2018) 72400 37400 43000 76500 99800 107000
2020-12-30 11:00 5.13 32100 112000 (2019) 33600 (2018) 72400 37400 43000 76500 99800 107000
2020-12-30 10:00 5.07 31900 112000 (2019) 33600 (2018) 72400 37400 43000 76500 99800 107000
2020-12-30 09:00 5.06 31800 112000 (2019) 33600 (2018) 72400 37400 43000 76500 99800 107000
2020-12-30 08:00 5.02 31700 112000 (2019) 33600 (2018) 72400 37400 43000 76500 99800 107000
2020-12-30 07:00 4.99 31600 112000 (2019) 33600 (2018) 72400 37400 43000 76500 99800 107000
2020-12-30 06:00 4.97 31500 112000 (2019) 33600 (2018) 72400 37400 43000 76500 99800 107000
2020-12-30 05:00 4.94 31300 112000 (2019) 33600 (2018) 72400 37400 43000 76500 99800 107000
2020-12-30 04:00 4.91 31200 112000 (2019) 33600 (2018) 72400 37400 43000 76500 99800 107000
2020-12-30 03:00 4.92 31300 112000 (2019) 33600 (2018) 72400 37400 43000 76500 99800 107000
2020-12-30 02:00 4.94 31300 112000 (2019) 33600 (2018) 72400 37400 43000 76500 99800 107000
2020-12-30 01:00 4.91 31200 112000 (2019) 33600 (2018) 72400 37400 43000 76500 99800 107000
2020-12-30 00:00 4.88 31100 112000 (2019) 33600 (2018) 72400 37400 43000 76500 99800 107000
2020-12-29 23:00 4.91 31200 111000 (2019) 35900 (2018) 73600 39800 45600 81900 97600 106000
2020-12-29 22:00 4.87 31100 111000 (2019) 35900 (2018) 73600 39800 45600 81900 97600 106000
2020-12-29 21:00 4.85 31000 111000 (2019) 35900 (2018) 73600 39800 45600 81900 97600 106000
2020-12-29 20:00 4.87 31100 111000 (2019) 35900 (2018) 73600 39800 45600 81900 97600 106000
2020-12-29 19:00 4.87 31100 111000 (2019) 35900 (2018) 73600 39800 45600 81900 97600 106000
2020-12-29 18:00 4.85 31000 111000 (2019) 35900 (2018) 73600 39800 45600 81900 97600 106000
2020-12-29 17:00 4.87 31100 111000 (2019) 35900 (2018) 73600 39800 45600 81900 97600 106000
2020-12-29 16:00 4.87 31100 111000 (2019) 35900 (2018) 73600 39800 45600 81900 97600 106000
2020-12-29 15:00 4.88 31100 111000 (2019) 35900 (2018) 73600 39800 45600 81900 97600 106000
2020-12-29 14:00 4.89 31100 111000 (2019) 35900 (2018) 73600 39800 45600 81900 97600 106000
2020-12-29 13:00 4.88 31100 111000 (2019) 35900 (2018) 73600 39800 45600 81900 97600 106000
2020-12-29 12:00 4.91 31200 111000 (2019) 35900 (2018) 73600 39800 45600 81900 97600 106000
2020-12-29 11:00 4.90 31200 111000 (2019) 35900 (2018) 73600 39800 45600 81900 97600 106000
2020-12-29 10:00 4.91 31200 111000 (2019) 35900 (2018) 73600 39800 45600 81900 97600 106000
2020-12-29 09:00 4.94 31300 111000 (2019) 35900 (2018) 73600 39800 45600 81900 97600 106000
2020-12-29 08:00 4.95 31400 111000 (2019) 35900 (2018) 73600 39800 45600 81900 97600 106000
2020-12-29 07:00 4.94 31300 111000 (2019) 35900 (2018) 73600 39800 45600 81900 97600 106000
2020-12-29 06:00 4.96 31400 111000 (2019) 35900 (2018) 73600 39800 45600 81900 97600 106000
2020-12-29 05:00 4.97 31500 111000 (2019) 35900 (2018) 73600 39800 45600 81900 97600 106000
2020-12-29 04:00 4.98 31500 111000 (2019) 35900 (2018) 73600 39800 45600 81900 97600 106000
2020-12-29 03:00 4.98 31500 111000 (2019) 35900 (2018) 73600 39800 45600 81900 97600 106000
2020-12-29 02:00 5.00 31600 111000 (2019) 35900 (2018) 73600 39800 45600 81900 97600 106000
2020-12-29 01:00 5.05 31800 111000 (2019) 35900 (2018) 73600 39800 45600 81900 97600 106000
2020-12-29 00:00 5.04 31800 111000 (2019) 35900 (2018) 73600 39800 45600 81900 97600 106000
2020-12-28 23:00 5.08 31900 91700 (2016) 38300 (2018) 66300 39600 41500 72300 88100 90300
2020-12-28 22:00 5.09 32000 91700 (2016) 38300 (2018) 66300 39600 41500 72300 88100 90300
2020-12-28 21:00 5.11 32100 91700 (2016) 38300 (2018) 66300 39600 41500 72300 88100 90300
2020-12-28 20:00 5.13 32100 91700 (2016) 38300 (2018) 66300 39600 41500 72300 88100 90300
2020-12-28 19:00 5.11 32100 91700 (2016) 38300 (2018) 66300 39600 41500 72300 88100 90300
2020-12-28 18:00 5.13 32100 91700 (2016) 38300 (2018) 66300 39600 41500 72300 88100 90300
2020-12-28 17:00 5.16 32300 91700 (2016) 38300 (2018) 66300 39600 41500 72300 88100 90300
2020-12-28 16:00 5.18 32400 91700 (2016) 38300 (2018) 66300 39600 41500 72300 88100 90300
2020-12-28 15:00 5.19 32400 91700 (2016) 38300 (2018) 66300 39600 41500 72300 88100 90300
2020-12-28 14:00 5.21 32500 91700 (2016) 38300 (2018) 66300 39600 41500 72300 88100 90300
2020-12-28 13:00 5.21 32500 91700 (2016) 38300 (2018) 66300 39600 41500 72300 88100 90300
2020-12-28 12:00 5.24 32600 91700 (2016) 38300 (2018) 66300 39600 41500 72300 88100 90300
2020-12-28 11:00 5.25 32600 91700 (2016) 38300 (2018) 66300 39600 41500 72300 88100 90300
2020-12-28 10:00 5.27 32700 91700 (2016) 38300 (2018) 66300 39600 41500 72300 88100 90300
2020-12-28 09:00 5.28 32800 91700 (2016) 38300 (2018) 66300 39600 41500 72300 88100 90300
2020-12-28 08:00 5.30 32900 91700 (2016) 38300 (2018) 66300 39600 41500 72300 88100 90300
2020-12-28 07:00 5.32 32900 91700 (2016) 38300 (2018) 66300 39600 41500 72300 88100 90300
2020-12-28 06:00 5.32 32900 91700 (2016) 38300 (2018) 66300 39600 41500 72300 88100 90300
2020-12-28 05:00 5.32 32900 91700 (2016) 38300 (2018) 66300 39600 41500 72300 88100 90300
2020-12-28 04:00 5.34 33000 91700 (2016) 38300 (2018) 66300 39600 41500 72300 88100 90300
2020-12-28 03:00 5.34 33000 91700 (2016) 38300 (2018) 66300 39600 41500 72300 88100 90300
2020-12-28 02:00 5.34 33000 91700 (2016) 38300 (2018) 66300 39600 41500 72300 88100 90300
2020-12-28 01:00 5.35 33100 91700 (2016) 38300 (2018) 66300 39600 41500 72300 88100 90300
2020-12-28 00:00 5.29 32800 91700 (2016) 38300 (2018) 66300 39600 41500 72300 88100 90300
2020-12-27 23:00 5.32 32900 98200 (2016) 39400 (2018) 64600 39800 40300 71600 85500 93100
2020-12-27 22:00 5.32 32900 98200 (2016) 39400 (2018) 64600 39800 40300 71600 85500 93100
2020-12-27 21:00 5.36 33100 98200 (2016) 39400 (2018) 64600 39800 40300 71600 85500 93100
2020-12-27 20:00 5.34 33000 98200 (2016) 39400 (2018) 64600 39800 40300 71600 85500 93100
2020-12-27 19:00 5.37 33200 98200 (2016) 39400 (2018) 64600 39800 40300 71600 85500 93100
2020-12-27 18:00 5.32 32900 98200 (2016) 39400 (2018) 64600 39800 40300 71600 85500 93100
2020-12-27 17:00 5.31 32900 98200 (2016) 39400 (2018) 64600 39800 40300 71600 85500 93100
2020-12-27 16:00 5.34 33000 98200 (2016) 39400 (2018) 64600 39800 40300 71600 85500 93100
2020-12-27 15:00 5.37 33200 98200 (2016) 39400 (2018) 64600 39800 40300 71600 85500 93100
2020-12-27 14:00 5.35 33100 98200 (2016) 39400 (2018) 64600 39800 40300 71600 85500 93100
2020-12-27 13:00 5.32 32900 98200 (2016) 39400 (2018) 64600 39800 40300 71600 85500 93100
2020-12-27 12:00 5.32 32900 98200 (2016) 39400 (2018) 64600 39800 40300 71600 85500 93100
2020-12-27 11:00 5.28 32800 98200 (2016) 39400 (2018) 64600 39800 40300 71600 85500 93100
2020-12-27 10:00 5.30 32900 98200 (2016) 39400 (2018) 64600 39800 40300 71600 85500 93100
2020-12-27 09:00 5.32 32900 98200 (2016) 39400 (2018) 64600 39800 40300 71600 85500 93100
2020-12-27 08:00 5.31 32900 98200 (2016) 39400 (2018) 64600 39800 40300 71600 85500 93100
2020-12-27 07:00 5.28 32800 98200 (2016) 39400 (2018) 64600 39800 40300 71600 85500 93100
2020-12-27 06:00 5.30 32900 98200 (2016) 39400 (2018) 64600 39800 40300 71600 85500 93100
2020-12-27 05:00 5.29 32800 98200 (2016) 39400 (2018) 64600 39800 40300 71600 85500 93100
2020-12-27 04:00 5.25 32600 98200 (2016) 39400 (2018) 64600 39800 40300 71600 85500 93100
2020-12-27 03:00 5.26 32700 98200 (2016) 39400 (2018) 64600 39800 40300 71600 85500 93100
2020-12-27 02:00 5.28 32800 98200 (2016) 39400 (2018) 64600 39800 40300 71600 85500 93100
2020-12-27 01:00 5.25 32600 98200 (2016) 39400 (2018) 64600 39800 40300 71600 85500 93100
2020-12-27 00:00 5.26 32700 98200 (2016) 39400 (2018) 64600 39800 40300 71600 85500 93100
2020-12-26 23:00 5.26 32700 103000 (2016) 41000 (2018) 65700 41000 41000 70300 88000 97000
2020-12-26 22:00 5.25 32600 103000 (2016) 41000 (2018) 65700 41000 41000 70300 88000 97000
2020-12-26 21:00 5.29 32800 103000 (2016) 41000 (2018) 65700 41000 41000 70300 88000 97000
2020-12-26 20:00 5.28 32800 103000 (2016) 41000 (2018) 65700 41000 41000 70300 88000 97000
2020-12-26 19:00 5.28 32800 103000 (2016) 41000 (2018) 65700 41000 41000 70300 88000 97000
2020-12-26 18:00 5.27 32700 103000 (2016) 41000 (2018) 65700 41000 41000 70300 88000 97000
2020-12-26 17:00 5.25 32600 103000 (2016) 41000 (2018) 65700 41000 41000 70300 88000 97000
2020-12-26 16:00 5.29 32800 103000 (2016) 41000 (2018) 65700 41000 41000 70300 88000 97000
2020-12-26 15:00 5.26 32700 103000 (2016) 41000 (2018) 65700 41000 41000 70300 88000 97000
2020-12-26 14:00 5.29 32800 103000 (2016) 41000 (2018) 65700 41000 41000 70300 88000 97000
2020-12-26 13:00 5.25 32600 103000 (2016) 41000 (2018) 65700 41000 41000 70300 88000 97000
2020-12-26 12:00 5.25 32600 103000 (2016) 41000 (2018) 65700 41000 41000 70300 88000 97000
2020-12-26 11:00 5.26 32700 103000 (2016) 41000 (2018) 65700 41000 41000 70300 88000 97000
2020-12-26 10:00 5.22 32500 103000 (2016) 41000 (2018) 65700 41000 41000 70300 88000 97000
2020-12-26 09:00 5.23 32600 103000 (2016) 41000 (2018) 65700 41000 41000 70300 88000 97000
2020-12-26 08:00 5.25 32600 103000 (2016) 41000 (2018) 65700 41000 41000 70300 88000 97000
2020-12-26 07:00 5.24 32600 103000 (2016) 41000 (2018) 65700 41000 41000 70300 88000 97000
2020-12-26 06:00 5.20 32400 103000 (2016) 41000 (2018) 65700 41000 41000 70300 88000 97000
2020-12-26 05:00 5.20 32400 103000 (2016) 41000 (2018) 65700 41000 41000 70300 88000 97000
2020-12-26 04:00 5.23 32600 103000 (2016) 41000 (2018) 65700 41000 41000 70300 88000 97000
2020-12-26 03:00 5.20 32400 103000 (2016) 41000 (2018) 65700 41000 41000 70300 88000 97000
2020-12-26 02:00 5.22 32500 103000 (2016) 41000 (2018) 65700 41000 41000 70300 88000 97000
2020-12-26 01:00 5.16 32300 103000 (2016) 41000 (2018) 65700 41000 41000 70300 88000 97000
2020-12-26 00:00 5.21 32500 103000 (2016) 41000 (2018) 65700 41000 41000 70300 88000 97000
2020-12-25 23:00 5.15 32200 97500 (2016) 39600 (2017) 64500 40000 40600 70800 85300 92600
2020-12-25 22:00 5.15 32200 97500 (2016) 39600 (2017) 64500 40000 40600 70800 85300 92600
2020-12-25 21:00 5.15 32200 97500 (2016) 39600 (2017) 64500 40000 40600 70800 85300 92600
2020-12-25 20:00 5.16 32300 97500 (2016) 39600 (2017) 64500 40000 40600 70800 85300 92600
2020-12-25 19:00 5.13 32100 97500 (2016) 39600 (2017) 64500 40000 40600 70800 85300 92600
2020-12-25 18:00 5.13 32100 97500 (2016) 39600 (2017) 64500 40000 40600 70800 85300 92600
2020-12-25 17:00 5.14 32200 97500 (2016) 39600 (2017) 64500 40000 40600 70800 85300 92600
2020-12-25 16:00 5.13 32100 97500 (2016) 39600 (2017) 64500 40000 40600 70800 85300 92600
2020-12-25 15:00 5.11 32100 97500 (2016) 39600 (2017) 64500 40000 40600 70800 85300 92600
2020-12-25 14:00 5.08 31900 97500 (2016) 39600 (2017) 64500 40000 40600 70800 85300 92600
2020-12-25 13:00 5.10 32000 97500 (2016) 39600 (2017) 64500 40000 40600 70800 85300 92600
2020-12-25 12:00 5.10 32000 97500 (2016) 39600 (2017) 64500 40000 40600 70800 85300 92600
2020-12-25 11:00 5.12 32100 97500 (2016) 39600 (2017) 64500 40000 40600 70800 85300 92600
2020-12-25 10:00 5.07 31900 97500 (2016) 39600 (2017) 64500 40000 40600 70800 85300 92600
2020-12-25 09:00 5.06 31800 97500 (2016) 39600 (2017) 64500 40000 40600 70800 85300 92600
2020-12-25 08:00 5.03 31700 97500 (2016) 39600 (2017) 64500 40000 40600 70800 85300 92600
2020-12-25 07:00 5.01 31600 97500 (2016) 39600 (2017) 64500 40000 40600 70800 85300 92600
2020-12-25 06:00 5.03 31700 97500 (2016) 39600 (2017) 64500 40000 40600 70800 85300 92600
2020-12-25 05:00 5.02 31700 97500 (2016) 39600 (2017) 64500 40000 40600 70800 85300 92600
2020-12-25 04:00 5.02 31700 97500 (2016) 39600 (2017) 64500 40000 40600 70800 85300 92600
2020-12-25 03:00 5.01 31600 97500 (2016) 39600 (2017) 64500 40000 40600 70800 85300 92600
2020-12-25 02:00 4.97 31500 97500 (2016) 39600 (2017) 64500 40000 40600 70800 85300 92600
2020-12-25 01:00 4.98 31500 97500 (2016) 39600 (2017) 64500 40000 40600 70800 85300 92600
2020-12-25 00:00 4.98 31500 97500 (2016) 39600 (2017) 64500 40000 40600 70800 85300 92600
2020-12-24 23:00 4.98 31500 86600 (2016) 38900 (2017) 62400 39500 40400 71800 79800 83900
2020-12-24 22:00 4.98 31500 86600 (2016) 38900 (2017) 62400 39500 40400 71800 79800 83900
2020-12-24 21:00 4.99 31600 86600 (2016) 38900 (2017) 62400 39500 40400 71800 79800 83900
2020-12-24 20:00 4.95 31400 86600 (2016) 38900 (2017) 62400 39500 40400 71800 79800 83900
2020-12-24 19:00 4.94 31300 86600 (2016) 38900 (2017) 62400 39500 40400 71800 79800 83900
2020-12-24 18:00 4.96 31400 86600 (2016) 38900 (2017) 62400 39500 40400 71800 79800 83900
2020-12-24 17:00 4.96 31400 86600 (2016) 38900 (2017) 62400 39500 40400 71800 79800 83900
2020-12-24 16:00 4.94 31300 86600 (2016) 38900 (2017) 62400 39500 40400 71800 79800 83900
2020-12-24 15:00 4.95 31400 86600 (2016) 38900 (2017) 62400 39500 40400 71800 79800 83900
2020-12-24 14:00 4.97 31500 86600 (2016) 38900 (2017) 62400 39500 40400 71800 79800 83900
2020-12-24 13:00 4.95 31400 86600 (2016) 38900 (2017) 62400 39500 40400 71800 79800 83900
2020-12-24 12:00 4.91 31200 86600 (2016) 38900 (2017) 62400 39500 40400 71800 79800 83900
2020-12-24 11:00 4.95 31400 86600 (2016) 38900 (2017) 62400 39500 40400 71800 79800 83900
2020-12-24 10:00 4.97 31500 86600 (2016) 38900 (2017) 62400 39500 40400 71800 79800 83900
2020-12-24 09:00 4.94 31300 86600 (2016) 38900 (2017) 62400 39500 40400 71800 79800 83900
2020-12-24 08:00 4.94 31300 86600 (2016) 38900 (2017) 62400 39500 40400 71800 79800 83900
2020-12-24 07:00 4.95 31400 86600 (2016) 38900 (2017) 62400 39500 40400 71800 79800 83900
2020-12-24 06:00 4.94 31300 86600 (2016) 38900 (2017) 62400 39500 40400 71800 79800 83900
2020-12-24 05:00 4.94 31300 86600 (2016) 38900 (2017) 62400 39500 40400 71800 79800 83900
2020-12-24 04:00 4.91 31200 86600 (2016) 38900 (2017) 62400 39500 40400 71800 79800 83900
2020-12-24 03:00 4.93 31300 86600 (2016) 38900 (2017) 62400 39500 40400 71800 79800 83900
2020-12-24 02:00 4.93 31300 86600 (2016) 38900 (2017) 62400 39500 40400 71800 79800 83900
2020-12-24 01:00 4.88 31100 86600 (2016) 38900 (2017) 62400 39500 40400 71800 79800 83900
2020-12-24 00:00 4.88 31100 86600 (2016) 38900 (2017) 62400 39500 40400 71800 79800 83900
2020-12-23 23:00 4.90 31200 89500 (2016) 38800 (2017) 63200 39600 40700 72100 81200 86200
2020-12-23 22:00 4.90 31200 89500 (2016) 38800 (2017) 63200 39600 40700 72100 81200 86200
2020-12-23 21:00 4.90 31200 89500 (2016) 38800 (2017) 63200 39600 40700 72100 81200 86200
2020-12-23 20:00 4.87 31100 89500 (2016) 38800 (2017) 63200 39600 40700 72100 81200 86200
2020-12-23 19:00 4.91 31200 89500 (2016) 38800 (2017) 63200 39600 40700 72100 81200 86200
2020-12-23 18:00 4.91 31200 89500 (2016) 38800 (2017) 63200 39600 40700 72100 81200 86200
2020-12-23 17:00 4.86 31000 89500 (2016) 38800 (2017) 63200 39600 40700 72100 81200 86200
2020-12-23 16:00 4.85 31000 89500 (2016) 38800 (2017) 63200 39600 40700 72100 81200 86200
2020-12-23 15:00 4.88 31100 89500 (2016) 38800 (2017) 63200 39600 40700 72100 81200 86200
2020-12-23 14:00 4.87 31100 89500 (2016) 38800 (2017) 63200 39600 40700 72100 81200 86200
2020-12-23 13:00 4.85 31000 89500 (2016) 38800 (2017) 63200 39600 40700 72100 81200 86200
2020-12-23 12:00 4.86 31000 89500 (2016) 38800 (2017) 63200 39600 40700 72100 81200 86200
2020-12-23 11:00 4.84 30900 89500 (2016) 38800 (2017) 63200 39600 40700 72100 81200 86200
2020-12-23 10:00 4.84 30900 89500 (2016) 38800 (2017) 63200 39600 40700 72100 81200 86200
2020-12-23 09:00 4.85 31000 89500 (2016) 38800 (2017) 63200 39600 40700 72100 81200 86200
2020-12-23 08:00 4.85 31000 89500 (2016) 38800 (2017) 63200 39600 40700 72100 81200 86200
2020-12-23 07:00 4.83 30900 89500 (2016) 38800 (2017) 63200 39600 40700 72100 81200 86200
2020-12-23 06:00 4.85 31000 89500 (2016) 38800 (2017) 63200 39600 40700 72100 81200 86200
2020-12-23 05:00 4.87 31100 89500 (2016) 38800 (2017) 63200 39600 40700 72100 81200 86200
2020-12-23 04:00 4.83 30900 89500 (2016) 38800 (2017) 63200 39600 40700 72100 81200 86200
2020-12-23 03:00 4.84 30900 89500 (2016) 38800 (2017) 63200 39600 40700 72100 81200 86200
2020-12-23 02:00 4.83 30900 89500 (2016) 38800 (2017) 63200 39600 40700 72100 81200 86200
2020-12-23 01:00 4.82 30900 89500 (2016) 38800 (2017) 63200 39600 40700 72100 81200 86200
2020-12-23 00:00 4.84 30900 89500 (2016) 38800 (2017) 63200 39600 40700 72100 81200 86200
2020-12-22 23:00 4.84 30900 92100 (2016) 38200 (2017) 63800 39300 41000 72400 82400 88200
2020-12-22 22:00 4.85 31000 92100 (2016) 38200 (2017) 63800 39300 41000 72400 82400 88200
2020-12-22 21:00 4.83 30900 92100 (2016) 38200 (2017) 63800 39300 41000 72400 82400 88200
2020-12-22 20:00 4.88 31100 92100 (2016) 38200 (2017) 63800 39300 41000 72400 82400 88200
2020-12-22 19:00 4.85 31000 92100 (2016) 38200 (2017) 63800 39300 41000 72400 82400 88200
2020-12-22 18:00 4.88 31100 92100 (2016) 38200 (2017) 63800 39300 41000 72400 82400 88200
2020-12-22 17:00 4.89 31100 92100 (2016) 38200 (2017) 63800 39300 41000 72400 82400 88200
2020-12-22 16:00 4.88 31100 92100 (2016) 38200 (2017) 63800 39300 41000 72400 82400 88200
2020-12-22 15:00 4.87 31100 92100 (2016) 38200 (2017) 63800 39300 41000 72400 82400 88200
2020-12-22 14:00 4.87 31100 92100 (2016) 38200 (2017) 63800 39300 41000 72400 82400 88200
2020-12-22 13:00 4.89 31100 92100 (2016) 38200 (2017) 63800 39300 41000 72400 82400 88200
2020-12-22 12:00 4.88 31100 92100 (2016) 38200 (2017) 63800 39300 41000 72400 82400 88200
2020-12-22 11:00 4.88 31100 92100 (2016) 38200 (2017) 63800 39300 41000 72400 82400 88200
2020-12-22 10:00 4.87 31100 92100 (2016) 38200 (2017) 63800 39300 41000 72400 82400 88200
2020-12-22 09:00 4.89 31100 92100 (2016) 38200 (2017) 63800 39300 41000 72400 82400 88200
2020-12-22 08:00 4.89 31100 92100 (2016) 38200 (2017) 63800 39300 41000 72400 82400 88200
2020-12-22 07:00 4.90 31200 92100 (2016) 38200 (2017) 63800 39300 41000 72400 82400 88200
2020-12-22 06:00 4.92 31300 92100 (2016) 38200 (2017) 63800 39300 41000 72400 82400 88200
2020-12-22 05:00 4.90 31200 92100 (2016) 38200 (2017) 63800 39300 41000 72400 82400 88200
2020-12-22 04:00 4.91 31200 92100 (2016) 38200 (2017) 63800 39300 41000 72400 82400 88200
2020-12-22 03:00 4.89 31100 92100 (2016) 38200 (2017) 63800 39300 41000 72400 82400 88200
2020-12-22 02:00 4.91 31200 92100 (2016) 38200 (2017) 63800 39300 41000 72400 82400 88200
2020-12-22 01:00 4.92 31300 92100 (2016) 38200 (2017) 63800 39300 41000 72400 82400 88200
2020-12-22 00:00 4.89 31100 92100 (2016) 38200 (2017) 63800 39300 41000 72400 82400 88200
2020-12-21 23:00 4.90 31200 98600 (2016) 37300 (2017) 65100 38700 40700 72100 86000 93500
2020-12-21 22:00 4.91 31200 98600 (2016) 37300 (2017) 65100 38700 40700 72100 86000 93500
2020-12-21 21:00 4.90 31200 98600 (2016) 37300 (2017) 65100 38700 40700 72100 86000 93500
2020-12-21 20:00 4.92 31300 98600 (2016) 37300 (2017) 65100 38700 40700 72100 86000 93500
2020-12-21 19:00 4.92 31300 98600 (2016) 37300 (2017) 65100 38700 40700 72100 86000 93500
2020-12-21 18:00 4.92 31300 98600 (2016) 37300 (2017) 65100 38700 40700 72100 86000 93500
2020-12-21 17:00 4.90 31200 98600 (2016) 37300 (2017) 65100 38700 40700 72100 86000 93500
2020-12-21 16:00 4.92 31300 98600 (2016) 37300 (2017) 65100 38700 40700 72100 86000 93500
2020-12-21 15:00 4.94 31300 98600 (2016) 37300 (2017) 65100 38700 40700 72100 86000 93500
2020-12-21 14:00 4.95 31400 98600 (2016) 37300 (2017) 65100 38700 40700 72100 86000 93500
2020-12-21 13:00 4.90 31200 98600 (2016) 37300 (2017) 65100 38700 40700 72100 86000 93500
2020-12-21 12:00 4.93 31300 98600 (2016) 37300 (2017) 65100 38700 40700 72100 86000 93500
2020-12-21 11:00 4.24 28500 98600 (2016) 37300 (2017) 65100 38700 40700 72100 86000 93500
2020-12-21 10:00 5.12 32100 98600 (2016) 37300 (2017) 65100 38700 40700 72100 86000 93500
2020-12-21 09:00 5.13 32100 98600 (2016) 37300 (2017) 65100 38700 40700 72100 86000 93500
2020-12-21 08:00 5.09 32000 98600 (2016) 37300 (2017) 65100 38700 40700 72100 86000 93500
2020-12-21 07:00 5.10 32000 98600 (2016) 37300 (2017) 65100 38700 40700 72100 86000 93500
2020-12-21 06:00 5.11 32100 98600 (2016) 37300 (2017) 65100 38700 40700 72100 86000 93500
2020-12-21 05:00 5.11 32100 98600 (2016) 37300 (2017) 65100 38700 40700 72100 86000 93500
2020-12-21 04:00 5.11 32100 98600 (2016) 37300 (2017) 65100 38700 40700 72100 86000 93500
2020-12-21 03:00 5.08 31900 98600 (2016) 37300 (2017) 65100 38700 40700 72100 86000 93500
2020-12-21 02:00 5.07 31900 98600 (2016) 37300 (2017) 65100 38700 40700 72100 86000 93500
2020-12-21 01:00 4.99 31600 98600 (2016) 37300 (2017) 65100 38700 40700 72100 86000 93500
2020-12-21 00:00 5.00 31600 98600 (2016) 37300 (2017) 65100 38700 40700 72100 86000 93500
2020-12-20 23:00 5.03 31700 112000 (2016) 37600 (2017) 68400 38900 40800 73800 93300 105000
2020-12-20 22:00 5.02 31700 112000 (2016) 37600 (2017) 68400 38900 40800 73800 93300 105000
2020-12-20 21:00 5.03 31700 112000 (2016) 37600 (2017) 68400 38900 40800 73800 93300 105000
2020-12-20 20:00 5.02 31700 112000 (2016) 37600 (2017) 68400 38900 40800 73800 93300 105000
2020-12-20 19:00 5.03 31700 112000 (2016) 37600 (2017) 68400 38900 40800 73800 93300 105000
2020-12-20 18:00 5.05 31800 112000 (2016) 37600 (2017) 68400 38900 40800 73800 93300 105000
2020-12-20 17:00 5.03 31700 112000 (2016) 37600 (2017) 68400 38900 40800 73800 93300 105000
2020-12-20 16:00 5.03 31700 112000 (2016) 37600 (2017) 68400 38900 40800 73800 93300 105000
2020-12-20 15:00 5.02 31700 112000 (2016) 37600 (2017) 68400 38900 40800 73800 93300 105000
2020-12-20 14:00 5.02 31700 112000 (2016) 37600 (2017) 68400 38900 40800 73800 93300 105000
2020-12-20 13:00 5.05 31800 112000 (2016) 37600 (2017) 68400 38900 40800 73800 93300 105000
2020-12-20 12:00 5.04 31800 112000 (2016) 37600 (2017) 68400 38900 40800 73800 93300 105000
2020-12-20 11:00 5.02 31700 112000 (2016) 37600 (2017) 68400 38900 40800 73800 93300 105000
2020-12-20 10:00 5.02 31700 112000 (2016) 37600 (2017) 68400 38900 40800 73800 93300 105000
2020-12-20 09:00 5.03 31700 112000 (2016) 37600 (2017) 68400 38900 40800 73800 93300 105000
2020-12-20 08:00 5.03 31700 112000 (2016) 37600 (2017) 68400 38900 40800 73800 93300 105000
2020-12-20 07:00 5.04 31800 112000 (2016) 37600 (2017) 68400 38900 40800 73800 93300 105000
2020-12-20 06:00 5.06 31800 112000 (2016) 37600 (2017) 68400 38900 40800 73800 93300 105000
2020-12-20 05:00 5.06 31800 112000 (2016) 37600 (2017) 68400 38900 40800 73800 93300 105000
2020-12-20 04:00 5.07 31900 112000 (2016) 37600 (2017) 68400 38900 40800 73800 93300 105000
2020-12-20 03:00 5.05 31800 112000 (2016) 37600 (2017) 68400 38900 40800 73800 93300 105000
2020-12-20 02:00 5.07 31900 112000 (2016) 37600 (2017) 68400 38900 40800 73800 93300 105000
2020-12-20 01:00 5.05 31800 112000 (2016) 37600 (2017) 68400 38900 40800 73800 93300 105000
2020-12-20 00:00 5.06 31800 112000 (2016) 37600 (2017) 68400 38900 40800 73800 93300 105000
2020-12-19 23:00 5.07 31900 124000 (2016) 38600 (2017) 71700 39700 41300 75200 100000 115000
2020-12-19 22:00 5.10 32000 124000 (2016) 38600 (2017) 71700 39700 41300 75200 100000 115000
2020-12-19 21:00 5.10 32000 124000 (2016) 38600 (2017) 71700 39700 41300 75200 100000 115000
2020-12-19 20:00 5.11 32100 124000 (2016) 38600 (2017) 71700 39700 41300 75200 100000 115000
2020-12-19 19:00 5.10 32000 124000 (2016) 38600 (2017) 71700 39700 41300 75200 100000 115000
2020-12-19 18:00 5.11 32100 124000 (2016) 38600 (2017) 71700 39700 41300 75200 100000 115000
2020-12-19 17:00 5.14 32200 124000 (2016) 38600 (2017) 71700 39700 41300 75200 100000 115000
2020-12-19 16:00 5.13 32100 124000 (2016) 38600 (2017) 71700 39700 41300 75200 100000 115000
2020-12-19 15:00 5.08 31900 124000 (2016) 38600 (2017) 71700 39700 41300 75200 100000 115000
2020-12-19 14:00 5.07 31900 124000 (2016) 38600 (2017) 71700 39700 41300 75200 100000 115000
2020-12-19 13:00 5.07 31900 124000 (2016) 38600 (2017) 71700 39700 41300 75200 100000 115000
2020-12-19 12:00 5.07 31900 124000 (2016) 38600 (2017) 71700 39700 41300 75200 100000 115000
2020-12-19 11:00 5.08 31900 124000 (2016) 38600 (2017) 71700 39700 41300 75200 100000 115000
2020-12-19 10:00 5.09 32000 124000 (2016) 38600 (2017) 71700 39700 41300 75200 100000 115000
2020-12-19 09:00 5.10 32000 124000 (2016) 38600 (2017) 71700 39700 41300 75200 100000 115000
2020-12-19 08:00 5.11 32100 124000 (2016) 38600 (2017) 71700 39700 41300 75200 100000 115000
2020-12-19 07:00 5.11 32100 124000 (2016) 38600 (2017) 71700 39700 41300 75200 100000 115000
2020-12-19 06:00 5.11 32100 124000 (2016) 38600 (2017) 71700 39700 41300 75200 100000 115000
2020-12-19 05:00 5.12 32100 124000 (2016) 38600 (2017) 71700 39700 41300 75200 100000 115000
2020-12-19 04:00 5.14 32200 124000 (2016) 38600 (2017) 71700 39700 41300 75200 100000 115000
2020-12-19 03:00 5.16 32300 124000 (2016) 38600 (2017) 71700 39700 41300 75200 100000 115000
2020-12-19 02:00 5.14 32200 124000 (2016) 38600 (2017) 71700 39700 41300 75200 100000 115000
2020-12-19 01:00 5.16 32300 124000 (2016) 38600 (2017) 71700 39700 41300 75200 100000 115000
2020-12-19 00:00 5.15 32200 124000 (2016) 38600 (2017) 71700 39700 41300 75200 100000 115000
2020-12-18 23:00 5.15 32200 145000 (2016) 38200 (2017) 76800 39300 41000 77700 112000 132000
2020-12-18 22:00 5.16 32300 145000 (2016) 38200 (2017) 76800 39300 41000 77700 112000 132000
2020-12-18 21:00 5.16 32300 145000 (2016) 38200 (2017) 76800 39300 41000 77700 112000 132000
2020-12-18 20:00 5.17 32300 145000 (2016) 38200 (2017) 76800 39300 41000 77700 112000 132000
2020-12-18 19:00 5.17 32300 145000 (2016) 38200 (2017) 76800 39300 41000 77700 112000 132000
2020-12-18 18:00 5.19 32400 145000 (2016) 38200 (2017) 76800 39300 41000 77700 112000 132000
2020-12-18 17:00 5.19 32400 145000 (2016) 38200 (2017) 76800 39300 41000 77700 112000 132000
2020-12-18 16:00 5.20 32400 145000 (2016) 38200 (2017) 76800 39300 41000 77700 112000 132000
2020-12-18 15:00 5.19 32400 145000 (2016) 38200 (2017) 76800 39300 41000 77700 112000 132000
2020-12-18 14:00 5.22 32500 145000 (2016) 38200 (2017) 76800 39300 41000 77700 112000 132000
2020-12-18 13:00 5.19 32400 145000 (2016) 38200 (2017) 76800 39300 41000 77700 112000 132000
2020-12-18 12:00 5.19 32400 145000 (2016) 38200 (2017) 76800 39300 41000 77700 112000 132000
2020-12-18 11:00 5.19 32400 145000 (2016) 38200 (2017) 76800 39300 41000 77700 112000 132000
2020-12-18 10:00 5.23 32600 145000 (2016) 38200 (2017) 76800 39300 41000 77700 112000 132000
2020-12-18 09:00 5.22 32500 145000 (2016) 38200 (2017) 76800 39300 41000 77700 112000 132000
2020-12-18 08:00 5.20 32400 145000 (2016) 38200 (2017) 76800 39300 41000 77700 112000 132000
2020-12-18 07:00 5.22 32500 145000 (2016) 38200 (2017) 76800 39300 41000 77700 112000 132000
2020-12-18 06:00 5.21 32500 145000 (2016) 38200 (2017) 76800 39300 41000 77700 112000 132000
2020-12-18 05:00 5.21 32500 145000 (2016) 38200 (2017) 76800 39300 41000 77700 112000 132000
2020-12-18 04:00 5.22 32500 145000 (2016) 38200 (2017) 76800 39300 41000 77700 112000 132000
2020-12-18 03:00 5.23 32600 145000 (2016) 38200 (2017) 76800 39300 41000 77700 112000 132000
2020-12-18 02:00 5.22 32500 145000 (2016) 38200 (2017) 76800 39300 41000 77700 112000 132000
2020-12-18 01:00 5.22 32500 145000 (2016) 38200 (2017) 76800 39300 41000 77700 112000 132000
2020-12-18 00:00 5.23 32600 145000 (2016) 38200 (2017) 76800 39300 41000 77700 112000 132000
2020-12-17 23:00 5.23 32600 170000 (2016) 37700 (2017) 82700 38900 40600 78600 127000 153000
2020-12-17 22:00 5.28 32800 170000 (2016) 37700 (2017) 82700 38900 40600 78600 127000 153000
2020-12-17 21:00 5.27 32700 170000 (2016) 37700 (2017) 82700 38900 40600 78600 127000 153000
2020-12-17 20:00 5.25 32600 170000 (2016) 37700 (2017) 82700 38900 40600 78600 127000 153000
2020-12-17 19:00 5.26 32700 170000 (2016) 37700 (2017) 82700 38900 40600 78600 127000 153000
2020-12-17 18:00 5.26 32700 170000 (2016) 37700 (2017) 82700 38900 40600 78600 127000 153000
2020-12-17 17:00 5.28 32800 170000 (2016) 37700 (2017) 82700 38900 40600 78600 127000 153000
2020-12-17 16:00 5.29 32800 170000 (2016) 37700 (2017) 82700 38900 40600 78600 127000 153000
2020-12-17 15:00 5.28 32800 170000 (2016) 37700 (2017) 82700 38900 40600 78600 127000 153000
2020-12-17 14:00 5.32 32900 170000 (2016) 37700 (2017) 82700 38900 40600 78600 127000 153000
2020-12-17 13:00 5.28 32800 170000 (2016) 37700 (2017) 82700 38900 40600 78600 127000 153000
2020-12-17 12:00 5.29 32800 170000 (2016) 37700 (2017) 82700 38900 40600 78600 127000 153000
2020-12-17 11:00 5.29 32800 170000 (2016) 37700 (2017) 82700 38900 40600 78600 127000 153000
2020-12-17 10:00 5.30 32900 170000 (2016) 37700 (2017) 82700 38900 40600 78600 127000 153000
2020-12-17 09:00 5.30 32900 170000 (2016) 37700 (2017) 82700 38900 40600 78600 127000 153000
2020-12-17 08:00 5.32 32900 170000 (2016) 37700 (2017) 82700 38900 40600 78600 127000 153000
2020-12-17 07:00 5.35 33100 170000 (2016) 37700 (2017) 82700 38900 40600 78600 127000 153000
2020-12-17 06:00 5.33 33000 170000 (2016) 37700 (2017) 82700 38900 40600 78600 127000 153000
2020-12-17 05:00 5.32 32900 170000 (2016) 37700 (2017) 82700 38900 40600 78600 127000 153000
2020-12-17 04:00 5.33 33000 170000 (2016) 37700 (2017) 82700 38900 40600 78600 127000 153000
2020-12-17 03:00 5.33 33000 170000 (2016) 37700 (2017) 82700 38900 40600 78600 127000 153000
2020-12-17 02:00 5.34 33000 170000 (2016) 37700 (2017) 82700 38900 40600 78600 127000 153000
2020-12-17 01:00 5.34 33000 170000 (2016) 37700 (2017) 82700 38900 40600 78600 127000 153000
2020-12-17 00:00 5.33 33000 170000 (2016) 37700 (2017) 82700 38900 40600 78600 127000 153000
2020-12-16 23:00 5.35 33100 173000 (2016) 37100 (2017) 84500 38400 40300 80200 131000 156000
2020-12-16 22:00 5.36 33100 173000 (2016) 37100 (2017) 84500 38400 40300 80200 131000 156000
2020-12-16 21:00 5.35 33100 173000 (2016) 37100 (2017) 84500 38400 40300 80200 131000 156000
2020-12-16 20:00 5.35 33100 173000 (2016) 37100 (2017) 84500 38400 40300 80200 131000 156000
2020-12-16 19:00 5.35 33100 173000 (2016) 37100 (2017) 84500 38400 40300 80200 131000 156000
2020-12-16 18:00 5.37 33200 173000 (2016) 37100 (2017) 84500 38400 40300 80200 131000 156000
2020-12-16 17:00 5.39 33200 173000 (2016) 37100 (2017) 84500 38400 40300 80200 131000 156000
2020-12-16 16:00 5.36 33100 173000 (2016) 37100 (2017) 84500 38400 40300 80200 131000 156000
2020-12-16 15:00 5.32 32900 173000 (2016) 37100 (2017) 84500 38400 40300 80200 131000 156000
2020-12-16 14:00 5.38 33200 173000 (2016) 37100 (2017) 84500 38400 40300 80200 131000 156000
2020-12-16 13:00 5.35 33100 173000 (2016) 37100 (2017) 84500 38400 40300 80200 131000 156000
2020-12-16 12:00 5.37 33200 173000 (2016) 37100 (2017) 84500 38400 40300 80200 131000 156000
2020-12-16 11:00 5.37 33200 173000 (2016) 37100 (2017) 84500 38400 40300 80200 131000 156000
2020-12-16 10:00 5.38 33200 173000 (2016) 37100 (2017) 84500 38400 40300 80200 131000 156000
2020-12-16 09:00 5.37 33200 173000 (2016) 37100 (2017) 84500 38400 40300 80200 131000 156000
2020-12-16 08:00 5.38 33200 173000 (2016) 37100 (2017) 84500 38400 40300 80200 131000 156000
2020-12-16 07:00 5.37 33200 173000 (2016) 37100 (2017) 84500 38400 40300 80200 131000 156000
2020-12-16 06:00 5.38 33200 173000 (2016) 37100 (2017) 84500 38400 40300 80200 131000 156000
2020-12-16 05:00 5.35 33100 173000 (2016) 37100 (2017) 84500 38400 40300 80200 131000 156000
2020-12-16 04:00 5.33 33000 173000 (2016) 37100 (2017) 84500 38400 40300 80200 131000 156000
2020-12-16 03:00 5.33 33000 173000 (2016) 37100 (2017) 84500 38400 40300 80200 131000 156000
2020-12-16 02:00 5.35 33100 173000 (2016) 37100 (2017) 84500 38400 40300 80200 131000 156000
2020-12-16 01:00 5.32 32900 173000 (2016) 37100 (2017) 84500 38400 40300 80200 131000 156000
2020-12-16 00:00 5.31 32900 173000 (2016) 37100 (2017) 84500 38400 40300 80200 131000 156000
2020-12-15 23:00 5.33 33000 159000 (2016) 37200 (2017) 83500 38400 40300 83300 127000 146000
2020-12-15 22:00 5.33 33000 159000 (2016) 37200 (2017) 83500 38400 40300 83300 127000 146000
2020-12-15 21:00 5.34 33000 159000 (2016) 37200 (2017) 83500 38400 40300 83300 127000 146000
2020-12-15 20:00 5.34 33000 159000 (2016) 37200 (2017) 83500 38400 40300 83300 127000 146000
2020-12-15 19:00 5.34 33000 159000 (2016) 37200 (2017) 83500 38400 40300 83300 127000 146000
2020-12-15 18:00 5.32 32900 159000 (2016) 37200 (2017) 83500 38400 40300 83300 127000 146000
2020-12-15 17:00 5.32 32900 159000 (2016) 37200 (2017) 83500 38400 40300 83300 127000 146000
2020-12-15 16:00 5.32 32900 159000 (2016) 37200 (2017) 83500 38400 40300 83300 127000 146000
2020-12-15 15:00 5.34 33000 159000 (2016) 37200 (2017) 83500 38400 40300 83300 127000 146000
2020-12-15 14:00 5.31 32900 159000 (2016) 37200 (2017) 83500 38400 40300 83300 127000 146000
2020-12-15 13:00 5.34 33000 159000 (2016) 37200 (2017) 83500 38400 40300 83300 127000 146000
2020-12-15 12:00 5.32 32900 159000 (2016) 37200 (2017) 83500 38400 40300 83300 127000 146000
2020-12-15 11:00 5.31 32900 159000 (2016) 37200 (2017) 83500 38400 40300 83300 127000 146000
2020-12-15 10:00 5.31 32900 159000 (2016) 37200 (2017) 83500 38400 40300 83300 127000 146000
2020-12-15 09:00 5.30 32900 159000 (2016) 37200 (2017) 83500 38400 40300 83300 127000 146000
2020-12-15 08:00 5.27 32700 159000 (2016) 37200 (2017) 83500 38400 40300 83300 127000 146000
2020-12-15 07:00 5.30 32900 159000 (2016) 37200 (2017) 83500 38400 40300 83300 127000 146000
2020-12-15 06:00 5.28 32800 159000 (2016) 37200 (2017) 83500 38400 40300 83300 127000 146000
2020-12-15 05:00 5.28 32800 159000 (2016) 37200 (2017) 83500 38400 40300 83300 127000 146000
2020-12-15 04:00 5.29 32800 159000 (2016) 37200 (2017) 83500 38400 40300 83300 127000 146000
2020-12-15 03:00 5.30 32900 159000 (2016) 37200 (2017) 83500 38400 40300 83300 127000 146000
2020-12-15 02:00 5.26 32700 159000 (2016) 37200 (2017) 83500 38400 40300 83300 127000 146000
2020-12-15 01:00 5.26 32700 159000 (2016) 37200 (2017) 83500 38400 40300 83300 127000 146000
2020-12-15 00:00 5.29 32800 159000 (2016) 37200 (2017) 83500 38400 40300 83300 127000 146000
2020-12-14 23:00 5.28 32800 102000 (2020) 37200 (2017) 73000 38400 40100 86500 99100 101000
2020-12-14 22:00 5.30 32900 102000 (2020) 37200 (2017) 73000 38400 40100 86500 99100 101000
2020-12-14 21:00 5.30 32900 102000 (2020) 37200 (2017) 73000 38400 40100 86500 99100 101000
2020-12-14 20:00 5.31 32900 102000 (2020) 37200 (2017) 73000 38400 40100 86500 99100 101000
2020-12-14 19:00 5.30 32900 102000 (2020) 37200 (2017) 73000 38400 40100 86500 99100 101000
2020-12-14 18:00 5.30 32900 102000 (2020) 37200 (2017) 73000 38400 40100 86500 99100 101000
2020-12-14 17:00 5.27 32700 102000 (2020) 37200 (2017) 73000 38400 40100 86500 99100 101000
2020-12-14 16:00 5.28 32800 102000 (2020) 37200 (2017) 73000 38400 40100 86500 99100 101000
2020-12-14 14:00 5.29 32800 102000 (2020) 37200 (2017) 73000 38400 40100 86500 99100 101000
2020-12-14 13:00 5.30 32900 102000 (2020) 37200 (2017) 73000 38400 40100 86500 99100 101000
2020-12-14 12:00 5.30 32900 102000 (2020) 37200 (2017) 73000 38400 40100 86500 99100 101000
2020-12-14 11:00 5.31 32900 102000 (2020) 37200 (2017) 73000 38400 40100 86500 99100 101000
2020-12-14 10:00 5.30 32900 102000 (2020) 37200 (2017) 73000 38400 40100 86500 99100 101000
2020-12-14 09:00 5.30 32900 102000 (2020) 37200 (2017) 73000 38400 40100 86500 99100 101000
2020-12-14 08:00 5.30 32900 102000 (2020) 37200 (2017) 73000 38400 40100 86500 99100 101000
2020-12-14 07:00 5.31 32900 102000 (2020) 37200 (2017) 73000 38400 40100 86500 99100 101000
2020-12-14 06:00 5.31 32900 102000 (2020) 37200 (2017) 73000 38400 40100 86500 99100 101000
2020-12-14 05:00 5.32 32900 102000 (2020) 37200 (2017) 73000 38400 40100 86500 99100 101000
2020-12-14 04:00 5.32 32900 102000 (2020) 37200 (2017) 73000 38400 40100 86500 99100 101000
2020-12-14 03:00 5.34 33000 102000 (2020) 37200 (2017) 73000 38400 40100 86500 99100 101000
2020-12-14 02:00 5.33 33000 102000 (2020) 37200 (2017) 73000 38400 40100 86500 99100 101000
2020-12-14 01:00 5.33 33000 102000 (2020) 37200 (2017) 73000 38400 40100 86500 99100 101000
2020-12-14 00:00 5.33 33000 102000 (2020) 37200 (2017) 73000 38400 40100 86500 99100 101000
2020-12-13 23:00 5.33 33000 109000 (2020) 37400 (2017) 67300 38600 40400 58200 98900 105000
2020-12-13 22:00 5.33 33000 109000 (2020) 37400 (2017) 67300 38600 40400 58200 98900 105000
2020-12-13 21:00 5.33 33000 109000 (2020) 37400 (2017) 67300 38600 40400 58200 98900 105000
2020-12-13 20:00 5.35 33100 109000 (2020) 37400 (2017) 67300 38600 40400 58200 98900 105000
2020-12-13 19:00 5.34 33000 109000 (2020) 37400 (2017) 67300 38600 40400 58200 98900 105000
2020-12-13 18:00 5.36 33100 109000 (2020) 37400 (2017) 67300 38600 40400 58200 98900 105000
2020-12-13 17:00 5.36 33100 109000 (2020) 37400 (2017) 67300 38600 40400 58200 98900 105000
2020-12-13 16:00 5.35 33100 109000 (2020) 37400 (2017) 67300 38600 40400 58200 98900 105000
2020-12-13 15:00 5.36 33100 109000 (2020) 37400 (2017) 67300 38600 40400 58200 98900 105000
2020-12-13 14:00 5.36 33100 109000 (2020) 37400 (2017) 67300 38600 40400 58200 98900 105000
2020-12-13 13:00 5.40 33300 109000 (2020) 37400 (2017) 67300 38600 40400 58200 98900 105000
2020-12-13 12:00 5.38 33200 109000 (2020) 37400 (2017) 67300 38600 40400 58200 98900 105000
2020-12-13 11:00 5.39 33200 109000 (2020) 37400 (2017) 67300 38600 40400 58200 98900 105000
2020-12-13 10:00 5.37 33200 109000 (2020) 37400 (2017) 67300 38600 40400 58200 98900 105000
2020-12-13 09:00 5.40 33300 109000 (2020) 37400 (2017) 67300 38600 40400 58200 98900 105000
2020-12-13 08:00 5.40 33300 109000 (2020) 37400 (2017) 67300 38600 40400 58200 98900 105000
2020-12-13 07:00 5.39 33200 109000 (2020) 37400 (2017) 67300 38600 40400 58200 98900 105000
2020-12-13 06:00 5.39 33200 109000 (2020) 37400 (2017) 67300 38600 40400 58200 98900 105000
2020-12-13 05:00 5.45 33500 109000 (2020) 37400 (2017) 67300 38600 40400 58200 98900 105000
2020-12-13 04:00 5.41 33300 109000 (2020) 37400 (2017) 67300 38600 40400 58200 98900 105000
2020-12-13 03:00 5.43 33400 109000 (2020) 37400 (2017) 67300 38600 40400 58200 98900 105000
2020-12-13 02:00 5.42 33400 109000 (2020) 37400 (2017) 67300 38600 40400 58200 98900 105000
2020-12-13 01:00 5.46 33600 109000 (2020) 37400 (2017) 67300 38600 40400 58200 98900 105000
2020-12-13 00:00 5.43 33400 109000 (2020) 37400 (2017) 67300 38600 40400 58200 98900 105000
2020-12-12 23:00 5.49 33700 112000 (2020) 39100 (2017) 68100 40100 41500 53800 102000 108000
2020-12-12 22:00 5.48 33600 112000 (2020) 39100 (2017) 68100 40100 41500 53800 102000 108000
2020-12-12 21:00 5.49 33700 112000 (2020) 39100 (2017) 68100 40100 41500 53800 102000 108000
2020-12-12 20:00 5.49 33700 112000 (2020) 39100 (2017) 68100 40100 41500 53800 102000 108000
2020-12-12 19:00 5.50 33700 112000 (2020) 39100 (2017) 68100 40100 41500 53800 102000 108000
2020-12-12 18:00 5.51 33800 112000 (2020) 39100 (2017) 68100 40100 41500 53800 102000 108000
2020-12-12 17:00 5.53 33900 112000 (2020) 39100 (2017) 68100 40100 41500 53800 102000 108000
2020-12-12 16:00 5.54 33900 112000 (2020) 39100 (2017) 68100 40100 41500 53800 102000 108000
2020-12-12 15:00 5.55 33900 112000 (2020) 39100 (2017) 68100 40100 41500 53800 102000 108000
2020-12-12 14:00 5.56 34000 112000 (2020) 39100 (2017) 68100 40100 41500 53800 102000 108000
2020-12-12 13:00 5.59 34100 112000 (2020) 39100 (2017) 68100 40100 41500 53800 102000 108000
2020-12-12 12:00 5.62 34200 112000 (2020) 39100 (2017) 68100 40100 41500 53800 102000 108000
2020-12-12 11:00 5.62 34200 112000 (2020) 39100 (2017) 68100 40100 41500 53800 102000 108000
2020-12-12 10:00 5.62 34200 112000 (2020) 39100 (2017) 68100 40100 41500 53800 102000 108000
2020-12-12 09:00 5.62 34200 112000 (2020) 39100 (2017) 68100 40100 41500 53800 102000 108000
2020-12-12 08:00 5.64 34300 112000 (2020) 39100 (2017) 68100 40100 41500 53800 102000 108000
2020-12-12 07:00 5.68 34500 112000 (2020) 39100 (2017) 68100 40100 41500 53800 102000 108000
2020-12-12 06:00 5.69 34600 112000 (2020) 39100 (2017) 68100 40100 41500 53800 102000 108000
2020-12-12 05:00 5.68 34500 112000 (2020) 39100 (2017) 68100 40100 41500 53800 102000 108000
2020-12-12 04:00 5.70 34600 112000 (2020) 39100 (2017) 68100 40100 41500 53800 102000 108000
2020-12-12 03:00 5.71 34600 112000 (2020) 39100 (2017) 68100 40100 41500 53800 102000 108000
2020-12-12 02:00 5.71 34600 112000 (2020) 39100 (2017) 68100 40100 41500 53800 102000 108000
2020-12-12 01:00 5.69 34600 112000 (2020) 39100 (2017) 68100 40100 41500 53800 102000 108000
2020-12-12 00:00 5.72 34700 112000 (2020) 39100 (2017) 68100 40100 41500 53800 102000 108000
2020-12-11 23:00 5.72 34700 116000 (2020) 42100 (2017) 70500 42800 44000 54300 105000 112000
2020-12-11 22:00 5.71 34600 116000 (2020) 42100 (2017) 70500 42800 44000 54300 105000 112000
2020-12-11 21:00 5.70 34600 116000 (2020) 42100 (2017) 70500 42800 44000 54300 105000 112000
2020-12-11 20:00 5.74 34800 116000 (2020) 42100 (2017) 70500 42800 44000 54300 105000 112000
2020-12-11 19:00 5.74 34800 116000 (2020) 42100 (2017) 70500 42800 44000 54300 105000 112000
2020-12-11 18:00 5.78 35000 116000 (2020) 42100 (2017) 70500 42800 44000 54300 105000 112000
2020-12-11 17:00 5.76 34900 116000 (2020) 42100 (2017) 70500 42800 44000 54300 105000 112000
2020-12-11 16:00 5.75 34800 116000 (2020) 42100 (2017) 70500 42800 44000 54300 105000 112000
2020-12-11 15:00 5.76 34900 116000 (2020) 42100 (2017) 70500 42800 44000 54300 105000 112000
2020-12-11 14:00 5.78 35000 116000 (2020) 42100 (2017) 70500 42800 44000 54300 105000 112000
2020-12-11 13:00 5.79 35000 116000 (2020) 42100 (2017) 70500 42800 44000 54300 105000 112000
2020-12-11 12:00 5.79 35000 116000 (2020) 42100 (2017) 70500 42800 44000 54300 105000 112000
2020-12-11 11:00 5.80 35000 116000 (2020) 42100 (2017) 70500 42800 44000 54300 105000 112000
2020-12-11 10:00 5.82 35100 116000 (2020) 42100 (2017) 70500 42800 44000 54300 105000 112000
2020-12-11 09:00 5.80 35000 116000 (2020) 42100 (2017) 70500 42800 44000 54300 105000 112000
2020-12-11 08:00 5.80 35000 116000 (2020) 42100 (2017) 70500 42800 44000 54300 105000 112000
2020-12-11 07:00 5.82 35100 116000 (2020) 42100 (2017) 70500 42800 44000 54300 105000 112000
2020-12-11 06:00 5.82 35100 116000 (2020) 42100 (2017) 70500 42800 44000 54300 105000 112000
2020-12-11 05:00 5.80 35000 116000 (2020) 42100 (2017) 70500 42800 44000 54300 105000 112000
2020-12-11 04:00 5.82 35100 116000 (2020) 42100 (2017) 70500 42800 44000 54300 105000 112000
2020-12-11 03:00 5.81 35100 116000 (2020) 42100 (2017) 70500 42800 44000 54300 105000 112000
2020-12-11 02:00 5.82 35100 116000 (2020) 42100 (2017) 70500 42800 44000 54300 105000 112000
2020-12-11 01:00 5.81 35100 116000 (2020) 42100 (2017) 70500 42800 44000 54300 105000 112000
2020-12-11 00:00 5.83 35200 116000 (2020) 42100 (2017) 70500 42800 44000 54300 105000 112000
2020-12-10 23:00 5.81 35100 121000 (2020) 43100 (2017) 72800 44000 45400 54900 109000 116000
2020-12-10 22:00 5.81 35100 121000 (2020) 43100 (2017) 72800 44000 45400 54900 109000 116000
2020-12-10 21:00 5.82 35100 121000 (2020) 43100 (2017) 72800 44000 45400 54900 109000 116000
2020-12-10 20:00 5.84 35200 121000 (2020) 43100 (2017) 72800 44000 45400 54900 109000 116000
2020-12-10 19:00 5.83 35200 121000 (2020) 43100 (2017) 72800 44000 45400 54900 109000 116000
2020-12-10 18:00 5.83 35200 121000 (2020) 43100 (2017) 72800 44000 45400 54900 109000 116000
2020-12-10 17:00 5.84 35200 121000 (2020) 43100 (2017) 72800 44000 45400 54900 109000 116000
2020-12-10 16:00 5.83 35200 121000 (2020) 43100 (2017) 72800 44000 45400 54900 109000 116000
2020-12-10 15:00 5.84 35200 121000 (2020) 43100 (2017) 72800 44000 45400 54900 109000 116000
2020-12-10 14:00 5.85 35300 121000 (2020) 43100 (2017) 72800 44000 45400 54900 109000 116000
2020-12-10 13:00 5.85 35300 121000 (2020) 43100 (2017) 72800 44000 45400 54900 109000 116000
2020-12-10 12:00 5.85 35300 121000 (2020) 43100 (2017) 72800 44000 45400 54900 109000 116000
2020-12-10 11:00 5.86 35300 121000 (2020) 43100 (2017) 72800 44000 45400 54900 109000 116000
2020-12-10 10:00 5.85 35300 121000 (2020) 43100 (2017) 72800 44000 45400 54900 109000 116000
2020-12-10 09:00 5.87 35400 121000 (2020) 43100 (2017) 72800 44000 45400 54900 109000 116000
2020-12-10 08:00 5.86 35300 121000 (2020) 43100 (2017) 72800 44000 45400 54900 109000 116000
2020-12-10 07:00 5.85 35300 121000 (2020) 43100 (2017) 72800 44000 45400 54900 109000 116000
2020-12-10 06:00 5.87 35400 121000 (2020) 43100 (2017) 72800 44000 45400 54900 109000 116000
2020-12-10 05:00 5.86 35300 121000 (2020) 43100 (2017) 72800 44000 45400 54900 109000 116000
2020-12-10 04:00 5.85 35300 121000 (2020) 43100 (2017) 72800 44000 45400 54900 109000 116000
2020-12-10 03:00 5.86 35300 121000 (2020) 43100 (2017) 72800 44000 45400 54900 109000 116000
2020-12-10 02:00 5.85 35300 121000 (2020) 43100 (2017) 72800 44000 45400 54900 109000 116000
2020-12-10 01:00 5.84 35200 121000 (2020) 43100 (2017) 72800 44000 45400 54900 109000 116000
2020-12-10 00:00 5.87 35400 121000 (2020) 43100 (2017) 72800 44000 45400 54900 109000 116000
2020-12-09 23:00 5.89 35400 124000 (2020) 43000 (2017) 74000 44100 45900 54400 112000 119000
2020-12-09 22:00 5.87 35400 124000 (2020) 43000 (2017) 74000 44100 45900 54400 112000 119000
2020-12-09 21:00 5.88 35400 124000 (2020) 43000 (2017) 74000 44100 45900 54400 112000 119000
2020-12-09 20:00 5.86 35300 124000 (2020) 43000 (2017) 74000 44100 45900 54400 112000 119000
2020-12-09 19:00 5.88 35400 124000 (2020) 43000 (2017) 74000 44100 45900 54400 112000 119000
2020-12-09 18:00 5.88 35400 124000 (2020) 43000 (2017) 74000 44100 45900 54400 112000 119000
2020-12-09 17:00 5.84 35200 124000 (2020) 43000 (2017) 74000 44100 45900 54400 112000 119000
2020-12-09 16:00 5.85 35300 124000 (2020) 43000 (2017) 74000 44100 45900 54400 112000 119000
2020-12-09 15:00 5.89 35400 124000 (2020) 43000 (2017) 74000 44100 45900 54400 112000 119000
2020-12-09 14:00 5.89 35400 124000 (2020) 43000 (2017) 74000 44100 45900 54400 112000 119000
2020-12-09 13:00 5.86 35300 124000 (2020) 43000 (2017) 74000 44100 45900 54400 112000 119000
2020-12-09 12:00 5.89 35400 124000 (2020) 43000 (2017) 74000 44100 45900 54400 112000 119000
2020-12-09 11:00 5.90 35500 124000 (2020) 43000 (2017) 74000 44100 45900 54400 112000 119000
2020-12-09 10:00 5.90 35500 124000 (2020) 43000 (2017) 74000 44100 45900 54400 112000 119000
2020-12-09 09:00 5.89 35400 124000 (2020) 43000 (2017) 74000 44100 45900 54400 112000 119000
2020-12-09 08:00 5.87 35400 124000 (2020) 43000 (2017) 74000 44100 45900 54400 112000 119000
2020-12-09 07:00 5.86 35300 124000 (2020) 43000 (2017) 74000 44100 45900 54400 112000 119000
2020-12-09 06:00 5.87 35400 124000 (2020) 43000 (2017) 74000 44100 45900 54400 112000 119000
2020-12-09 05:00 5.89 35400 124000 (2020) 43000 (2017) 74000 44100 45900 54400 112000 119000
2020-12-09 04:00 5.88 35400 124000 (2020) 43000 (2017) 74000 44100 45900 54400 112000 119000
2020-12-09 03:00 5.88 35400 124000 (2020) 43000 (2017) 74000 44100 45900 54400 112000 119000
2020-12-09 02:00 5.88 35400 124000 (2020) 43000 (2017) 74000 44100 45900 54400 112000 119000
2020-12-09 01:00 5.88 35400 124000 (2020) 43000 (2017) 74000 44100 45900 54400 112000 119000
2020-12-09 00:00 5.90 35500 124000 (2020) 43000 (2017) 74000 44100 45900 54400 112000 119000
2020-12-08 23:00 5.91 35500 129000 (2020) 43400 (2017) 75200 44300 45700 54600 115000 123000
2020-12-08 22:00 5.92 35600 129000 (2020) 43400 (2017) 75200 44300 45700 54600 115000 123000
2020-12-08 21:00 5.90 35500 129000 (2020) 43400 (2017) 75200 44300 45700 54600 115000 123000
2020-12-08 20:00 5.91 35500 129000 (2020) 43400 (2017) 75200 44300 45700 54600 115000 123000
2020-12-08 19:00 5.92 35600 129000 (2020) 43400 (2017) 75200 44300 45700 54600 115000 123000
2020-12-08 18:00 5.93 35600 129000 (2020) 43400 (2017) 75200 44300 45700 54600 115000 123000
2020-12-08 17:00 5.95 35700 129000 (2020) 43400 (2017) 75200 44300 45700 54600 115000 123000
2020-12-08 16:00 5.91 35500 129000 (2020) 43400 (2017) 75200 44300 45700 54600 115000 123000
2020-12-08 15:00 5.92 35600 129000 (2020) 43400 (2017) 75200 44300 45700 54600 115000 123000
2020-12-08 14:00 5.93 35600 129000 (2020) 43400 (2017) 75200 44300 45700 54600 115000 123000
2020-12-08 13:00 5.93 35600 129000 (2020) 43400 (2017) 75200 44300 45700 54600 115000 123000
2020-12-08 12:00 5.96 35800 129000 (2020) 43400 (2017) 75200 44300 45700 54600 115000 123000
2020-12-08 11:00 5.98 35900 129000 (2020) 43400 (2017) 75200 44300 45700 54600 115000 123000
2020-12-08 10:00 5.95 35700 129000 (2020) 43400 (2017) 75200 44300 45700 54600 115000 123000
2020-12-08 09:00 5.94 35700 129000 (2020) 43400 (2017) 75200 44300 45700 54600 115000 123000
2020-12-08 08:00 5.95 35700 129000 (2020) 43400 (2017) 75200 44300 45700 54600 115000 123000
2020-12-08 07:00 5.95 35700 129000 (2020) 43400 (2017) 75200 44300 45700 54600 115000 123000
2020-12-08 06:00 5.97 35800 129000 (2020) 43400 (2017) 75200 44300 45700 54600 115000 123000
2020-12-08 05:00 5.94 35700 129000 (2020) 43400 (2017) 75200 44300 45700 54600 115000 123000
2020-12-08 04:00 5.95 35700 129000 (2020) 43400 (2017) 75200 44300 45700 54600 115000 123000
2020-12-08 03:00 5.95 35700 129000 (2020) 43400 (2017) 75200 44300 45700 54600 115000 123000
2020-12-08 02:00 5.96 35800 129000 (2020) 43400 (2017) 75200 44300 45700 54600 115000 123000
2020-12-08 01:00 5.96 35800 129000 (2020) 43400 (2017) 75200 44300 45700 54600 115000 123000
2020-12-08 00:00 5.96 35800 129000 (2020) 43400 (2017) 75200 44300 45700 54600 115000 123000
2020-12-07 23:00 5.97 35800 133000 (2020) 44500 (2017) 77000 45100 46000 56000 118000 127000
2020-12-07 22:00 6.01 36000 133000 (2020) 44500 (2017) 77000 45100 46000 56000 118000 127000
2020-12-07 21:00 6.00 35900 133000 (2020) 44500 (2017) 77000 45100 46000 56000 118000 127000
2020-12-07 20:00 6.00 35900 133000 (2020) 44500 (2017) 77000 45100 46000 56000 118000 127000
2020-12-07 19:00 6.01 36000 133000 (2020) 44500 (2017) 77000 45100 46000 56000 118000 127000
2020-12-07 18:00 5.99 35900 133000 (2020) 44500 (2017) 77000 45100 46000 56000 118000 127000
2020-12-07 17:00 6.00 35900 133000 (2020) 44500 (2017) 77000 45100 46000 56000 118000 127000
2020-12-07 16:00 5.98 35900 133000 (2020) 44500 (2017) 77000 45100 46000 56000 118000 127000
2020-12-07 15:00 6.00 35900 133000 (2020) 44500 (2017) 77000 45100 46000 56000 118000 127000
2020-12-07 14:00 5.99 35900 133000 (2020) 44500 (2017) 77000 45100 46000 56000 118000 127000
2020-12-07 13:00 6.01 36000 133000 (2020) 44500 (2017) 77000 45100 46000 56000 118000 127000
2020-12-07 12:00 6.03 36100 133000 (2020) 44500 (2017) 77000 45100 46000 56000 118000 127000
2020-12-07 11:00 6.00 35900 133000 (2020) 44500 (2017) 77000 45100 46000 56000 118000 127000
2020-12-07 10:00 6.03 36100 133000 (2020) 44500 (2017) 77000 45100 46000 56000 118000 127000
2020-12-07 09:00 6.07 36300 133000 (2020) 44500 (2017) 77000 45100 46000 56000 118000 127000
2020-12-07 08:00 6.00 35900 133000 (2020) 44500 (2017) 77000 45100 46000 56000 118000 127000
2020-12-07 07:00 6.02 36000 133000 (2020) 44500 (2017) 77000 45100 46000 56000 118000 127000
2020-12-07 06:00 6.00 35900 133000 (2020) 44500 (2017) 77000 45100 46000 56000 118000 127000
2020-12-07 05:00 6.00 35900 133000 (2020) 44500 (2017) 77000 45100 46000 56000 118000 127000
2020-12-07 04:00 6.00 35900 133000 (2020) 44500 (2017) 77000 45100 46000 56000 118000 127000
2020-12-07 03:00 6.03 36100 133000 (2020) 44500 (2017) 77000 45100 46000 56000 118000 127000
2020-12-07 02:00 6.05 36200 133000 (2020) 44500 (2017) 77000 45100 46000 56000 118000 127000
2020-12-07 01:00 6.01 36000 133000 (2020) 44500 (2017) 77000 45100 46000 56000 118000 127000
2020-12-07 00:00 6.01 36000 133000 (2020) 44500 (2017) 77000 45100 46000 56000 118000 127000
2020-12-06 23:00 6.05 36200 136000 (2020) 45100 (2017) 79200 45600 46400 58300 122000 131000
2020-12-06 22:00 6.03 36100 136000 (2020) 45100 (2017) 79200 45600 46400 58300 122000 131000
2020-12-06 21:00 6.04 36100 136000 (2020) 45100 (2017) 79200 45600 46400 58300 122000 131000
2020-12-06 20:00 6.02 36000 136000 (2020) 45100 (2017) 79200 45600 46400 58300 122000 131000
2020-12-06 19:00 6.06 36200 136000 (2020) 45100 (2017) 79200 45600 46400 58300 122000 131000
2020-12-06 18:00 6.06 36200 136000 (2020) 45100 (2017) 79200 45600 46400 58300 122000 131000
2020-12-06 17:00 6.05 36200 136000 (2020) 45100 (2017) 79200 45600 46400 58300 122000 131000
2020-12-06 16:00 6.08 36300 136000 (2020) 45100 (2017) 79200 45600 46400 58300 122000 131000
2020-12-06 15:00 6.10 36400 136000 (2020) 45100 (2017) 79200 45600 46400 58300 122000 131000
2020-12-06 14:00 6.10 36400 136000 (2020) 45100 (2017) 79200 45600 46400 58300 122000 131000
2020-12-06 13:00 6.09 36400 136000 (2020) 45100 (2017) 79200 45600 46400 58300 122000 131000
2020-12-06 12:00 6.11 36400 136000 (2020) 45100 (2017) 79200 45600 46400 58300 122000 131000
2020-12-06 11:00 6.11 36400 136000 (2020) 45100 (2017) 79200 45600 46400 58300 122000 131000
2020-12-06 10:00 6.13 36500 136000 (2020) 45100 (2017) 79200 45600 46400 58300 122000 131000
2020-12-06 09:00 6.14 36600 136000 (2020) 45100 (2017) 79200 45600 46400 58300 122000 131000
2020-12-06 08:00 6.13 36500 136000 (2020) 45100 (2017) 79200 45600 46400 58300 122000 131000
2020-12-06 07:00 6.12 36500 136000 (2020) 45100 (2017) 79200 45600 46400 58300 122000 131000
2020-12-06 06:00 6.13 36500 136000 (2020) 45100 (2017) 79200 45600 46400 58300 122000 131000
2020-12-06 05:00 6.13 36500 136000 (2020) 45100 (2017) 79200 45600 46400 58300 122000 131000
2020-12-06 04:00 6.12 36500 136000 (2020) 45100 (2017) 79200 45600 46400 58300 122000 131000
2020-12-06 03:00 6.15 36600 136000 (2020) 45100 (2017) 79200 45600 46400 58300 122000 131000
2020-12-06 02:00 6.16 36700 136000 (2020) 45100 (2017) 79200 45600 46400 58300 122000 131000
2020-12-06 01:00 6.15 36600 136000 (2020) 45100 (2017) 79200 45600 46400 58300 122000 131000
2020-12-06 00:00 6.19 36800 136000 (2020) 45100 (2017) 79200 45600 46400 58300 122000 131000
2020-12-05 23:00 6.16 36700 137000 (2020) 45000 (2017) 82500 45500 46300 60900 130000 134000
2020-12-05 22:00 6.18 36800 137000 (2020) 45000 (2017) 82500 45500 46300 60900 130000 134000
2020-12-05 21:00 6.20 36900 137000 (2020) 45000 (2017) 82500 45500 46300 60900 130000 134000
2020-12-05 20:00 6.23 37000 137000 (2020) 45000 (2017) 82500 45500 46300 60900 130000 134000
2020-12-05 19:00 6.21 36900 137000 (2020) 45000 (2017) 82500 45500 46300 60900 130000 134000
2020-12-05 18:00 6.22 37000 137000 (2020) 45000 (2017) 82500 45500 46300 60900 130000 134000
2020-12-05 17:00 6.25 37100 137000 (2020) 45000 (2017) 82500 45500 46300 60900 130000 134000
2020-12-05 16:00 6.24 37000 137000 (2020) 45000 (2017) 82500 45500 46300 60900 130000 134000
2020-12-05 15:00 6.27 37200 137000 (2020) 45000 (2017) 82500 45500 46300 60900 130000 134000
2020-12-05 14:00 6.28 37200 137000 (2020) 45000 (2017) 82500 45500 46300 60900 130000 134000
2020-12-05 13:00 6.27 37200 137000 (2020) 45000 (2017) 82500 45500 46300 60900 130000 134000
2020-12-05 12:00 6.28 37200 137000 (2020) 45000 (2017) 82500 45500 46300 60900 130000 134000
2020-12-05 11:00 6.28 37200 137000 (2020) 45000 (2017) 82500 45500 46300 60900 130000 134000
2020-12-05 10:00 6.29 37300 137000 (2020) 45000 (2017) 82500 45500 46300 60900 130000 134000
2020-12-05 09:00 6.30 37300 137000 (2020) 45000 (2017) 82500 45500 46300 60900 130000 134000
2020-12-05 08:00 6.30 37300 137000 (2020) 45000 (2017) 82500 45500 46300 60900 130000 134000
2020-12-05 07:00 6.31 37400 137000 (2020) 45000 (2017) 82500 45500 46300 60900 130000 134000
2020-12-05 06:00 6.32 37400 137000 (2020) 45000 (2017) 82500 45500 46300 60900 130000 134000
2020-12-05 05:00 6.35 37600 137000 (2020) 45000 (2017) 82500 45500 46300 60900 130000 134000
2020-12-05 04:00 6.33 37500 137000 (2020) 45000 (2017) 82500 45500 46300 60900 130000 134000
2020-12-05 03:00 6.34 37500 137000 (2020) 45000 (2017) 82500 45500 46300 60900 130000 134000
2020-12-05 02:00 6.38 37700 137000 (2020) 45000 (2017) 82500 45500 46300 60900 130000 134000
2020-12-05 01:00 6.39 37700 137000 (2020) 45000 (2017) 82500 45500 46300 60900 130000 134000
2020-12-05 00:00 6.39 37700 137000 (2020) 45000 (2017) 82500 45500 46300 60900 130000 134000
2020-12-04 23:00 6.38 37700 139000 (2020) 44500 (2017) 87000 45200 46200 65500 139000 139000
2020-12-04 22:00 6.40 37800 139000 (2020) 44500 (2017) 87000 45200 46200 65500 139000 139000
2020-12-04 21:00 6.44 38000 139000 (2020) 44500 (2017) 87000 45200 46200 65500 139000 139000
2020-12-04 20:00 6.45 38000 139000 (2020) 44500 (2017) 87000 45200 46200 65500 139000 139000
2020-12-04 19:00 6.47 38100 139000 (2020) 44500 (2017) 87000 45200 46200 65500 139000 139000
2020-12-04 18:00 6.49 38200 139000 (2020) 44500 (2017) 87000 45200 46200 65500 139000 139000
2020-12-04 17:00 6.47 38100 139000 (2020) 44500 (2017) 87000 45200 46200 65500 139000 139000
2020-12-04 16:00 6.50 38300 139000 (2020) 44500 (2017) 87000 45200 46200 65500 139000 139000
2020-12-04 15:00 6.51 38300 139000 (2020) 44500 (2017) 87000 45200 46200 65500 139000 139000
2020-12-04 14:00 6.57 38600 139000 (2020) 44500 (2017) 87000 45200 46200 65500 139000 139000
2020-12-04 13:00 6.54 38500 139000 (2020) 44500 (2017) 87000 45200 46200 65500 139000 139000
2020-12-04 12:00 6.59 38700 139000 (2020) 44500 (2017) 87000 45200 46200 65500 139000 139000
2020-12-04 11:00 6.62 139000 (2020) 44500 (2017) 87000 45200 46200 65500 139000 139000
2020-12-04 10:00 139000 (2020) 44500 (2017) 87000 45200 46200 65500 139000 139000
2020-12-04 09:00 139000 (2020) 44500 (2017) 87000 45200 46200 65500 139000 139000
2020-12-04 08:00 6.69 39200 139000 (2020) 44500 (2017) 87000 45200 46200 65500 139000 139000
2020-12-04 07:00 6.69 39200 139000 (2020) 44500 (2017) 87000 45200 46200 65500 139000 139000
2020-12-04 06:00 6.69 39200 139000 (2020) 44500 (2017) 87000 45200 46200 65500 139000 139000
2020-12-04 05:00 6.69 39200 139000 (2020) 44500 (2017) 87000 45200 46200 65500 139000 139000
2020-12-04 04:00 6.69 39200 139000 (2020) 44500 (2017) 87000 45200 46200 65500 139000 139000
2020-12-04 03:00 6.72 39300 139000 (2020) 44500 (2017) 87000 45200 46200 65500 139000 139000
2020-12-04 02:00 6.71 39300 139000 (2020) 44500 (2017) 87000 45200 46200 65500 139000 139000
2020-12-04 01:00 6.73 39400 139000 (2020) 44500 (2017) 87000 45200 46200 65500 139000 139000
2020-12-04 00:00 6.74 39400 139000 (2020) 44500 (2017) 87000 45200 46200 65500 139000 139000
2020-12-03 23:00 6.75 39500 152000 (2019) 44300 (2017) 91000 45000 46000 73000 145000 149000
2020-12-03 22:00 6.77 39600 152000 (2019) 44300 (2017) 91000 45000 46000 73000 145000 149000
2020-12-03 21:00 6.80 39700 152000 (2019) 44300 (2017) 91000 45000 46000 73000 145000 149000
2020-12-03 20:00 6.83 39900 152000 (2019) 44300 (2017) 91000 45000 46000 73000 145000 149000
2020-12-03 19:00 6.83 39900 152000 (2019) 44300 (2017) 91000 45000 46000 73000 145000 149000
2020-12-03 18:00 6.87 40100 152000 (2019) 44300 (2017) 91000 45000 46000 73000 145000 149000
2020-12-03 17:00 6.85 40000 152000 (2019) 44300 (2017) 91000 45000 46000 73000 145000 149000
2020-12-03 16:00 6.88 40100 152000 (2019) 44300 (2017) 91000 45000 46000 73000 145000 149000
2020-12-03 15:00 6.89 40100 152000 (2019) 44300 (2017) 91000 45000 46000 73000 145000 149000
2020-12-03 14:00 6.92 40300 152000 (2019) 44300 (2017) 91000 45000 46000 73000 145000 149000
2020-12-03 13:00 6.92 40300 152000 (2019) 44300 (2017) 91000 45000 46000 73000 145000 149000
2020-12-03 12:00 6.94 40400 152000 (2019) 44300 (2017) 91000 45000 46000 73000 145000 149000
2020-12-03 11:00 6.94 40400 152000 (2019) 44300 (2017) 91000 45000 46000 73000 145000 149000
2020-12-03 10:00 6.95 40400 152000 (2019) 44300 (2017) 91000 45000 46000 73000 145000 149000
2020-12-03 09:00 6.96 40500 152000 (2019) 44300 (2017) 91000 45000 46000 73000 145000 149000
2020-12-03 08:00 6.99 40600 152000 (2019) 44300 (2017) 91000 45000 46000 73000 145000 149000
2020-12-03 07:00 7.02 40800 152000 (2019) 44300 (2017) 91000 45000 46000 73000 145000 149000
2020-12-03 06:00 7.02 40800 152000 (2019) 44300 (2017) 91000 45000 46000 73000 145000 149000
2020-12-03 05:00 7.03 40800 152000 (2019) 44300 (2017) 91000 45000 46000 73000 145000 149000
2020-12-03 04:00 7.07 41000 152000 (2019) 44300 (2017) 91000 45000 46000 73000 145000 149000
2020-12-03 03:00 7.11 41200 152000 (2019) 44300 (2017) 91000 45000 46000 73000 145000 149000
2020-12-03 02:00 7.09 41100 152000 (2019) 44300 (2017) 91000 45000 46000 73000 145000 149000
2020-12-03 01:00 7.14 41400 152000 (2019) 44300 (2017) 91000 45000 46000 73000 145000 149000
2020-12-03 00:00 7.15 41400 152000 (2019) 44300 (2017) 91000 45000 46000 73000 145000 149000
2020-12-02 23:00 7.15 41400 137000 (2020) 44300 (2017) 84300 45000 46100 74100 128000 133000
2020-12-02 22:00 7.16 41500 137000 (2020) 44300 (2017) 84300 45000 46100 74100 128000 133000
2020-12-02 21:00 7.17 41500 137000 (2020) 44300 (2017) 84300 45000 46100 74100 128000 133000
2020-12-02 20:00 7.18 41600 137000 (2020) 44300 (2017) 84300 45000 46100 74100 128000 133000
2020-12-02 19:00 7.18 41600 137000 (2020) 44300 (2017) 84300 45000 46100 74100 128000 133000
2020-12-02 18:00 7.19 41600 137000 (2020) 44300 (2017) 84300 45000 46100 74100 128000 133000
2020-12-02 17:00 7.20 41700 137000 (2020) 44300 (2017) 84300 45000 46100 74100 128000 133000
2020-12-02 16:00 7.23 41800 137000 (2020) 44300 (2017) 84300 45000 46100 74100 128000 133000
2020-12-02 15:00 7.23 41800 137000 (2020) 44300 (2017) 84300 45000 46100 74100 128000 133000
2020-12-02 14:00 7.24 41900 137000 (2020) 44300 (2017) 84300 45000 46100 74100 128000 133000
2020-12-02 13:00 7.26 42000 137000 (2020) 44300 (2017) 84300 45000 46100 74100 128000 133000
2020-12-02 12:00 7.26 42000 137000 (2020) 44300 (2017) 84300 45000 46100 74100 128000 133000
2020-12-02 11:00 7.28 42100 137000 (2020) 44300 (2017) 84300 45000 46100 74100 128000 133000
2020-12-02 10:00 7.30 42200 137000 (2020) 44300 (2017) 84300 45000 46100 74100 128000 133000
2020-12-02 09:00 7.31 42200 137000 (2020) 44300 (2017) 84300 45000 46100 74100 128000 133000
2020-12-02 08:00 7.33 42300 137000 (2020) 44300 (2017) 84300 45000 46100 74100 128000 133000
2020-12-02 07:00 7.35 42400 137000 (2020) 44300 (2017) 84300 45000 46100 74100 128000 133000
2020-12-02 06:00 7.37 42600 137000 (2020) 44300 (2017) 84300 45000 46100 74100 128000 133000
2020-12-02 05:00 7.38 42600 137000 (2020) 44300 (2017) 84300 45000 46100 74100 128000 133000
2020-12-02 04:00 7.38 42600 137000 (2020) 44300 (2017) 84300 45000 46100 74100 128000 133000
2020-12-02 03:00 7.40 42700 137000 (2020) 44300 (2017) 84300 45000 46100 74100 128000 133000
2020-12-02 02:00 7.43 42900 137000 (2020) 44300 (2017) 84300 45000 46100 74100 128000 133000
2020-12-02 01:00 7.44 42900 137000 (2020) 44300 (2017) 84300 45000 46100 74100 128000 133000
2020-12-02 00:00 7.45 43000 137000 (2020) 44300 (2017) 84300 45000 46100 74100 128000 133000
2020-12-01 23:00 7.48 43100 140000 (2020) 44100 (2017) 81600 44900 46200 72900 121000 133000
2020-12-01 22:00 7.48 43100 140000 (2020) 44100 (2017) 81600 44900 46200 72900 121000 133000
2020-12-01 21:00 7.51 43300 140000 (2020) 44100 (2017) 81600 44900 46200 72900 121000 133000
2020-12-01 20:00 7.50 43200 140000 (2020) 44100 (2017) 81600 44900 46200 72900 121000 133000
2020-12-01 19:00 7.51 43300 140000 (2020) 44100 (2017) 81600 44900 46200 72900 121000 133000
2020-12-01 18:00 7.50 43200 140000 (2020) 44100 (2017) 81600 44900 46200 72900 121000 133000
2020-12-01 17:00 7.53 43400 140000 (2020) 44100 (2017) 81600 44900 46200 72900 121000 133000
2020-12-01 16:00 7.53 43400 140000 (2020) 44100 (2017) 81600 44900 46200 72900 121000 133000
2020-12-01 15:00 7.54 43400 140000 (2020) 44100 (2017) 81600 44900 46200 72900 121000 133000
2020-12-01 14:00 7.53 43400 140000 (2020) 44100 (2017) 81600 44900 46200 72900 121000 133000
2020-12-01 13:00 7.54 43400 140000 (2020) 44100 (2017) 81600 44900 46200 72900 121000 133000
2020-12-01 12:00 7.57 43600 140000 (2020) 44100 (2017) 81600 44900 46200 72900 121000 133000
2020-12-01 11:00 7.60 43700 140000 (2020) 44100 (2017) 81600 44900 46200 72900 121000 133000
2020-12-01 10:00 7.63 43900 140000 (2020) 44100 (2017) 81600 44900 46200 72900 121000 133000
2020-12-01 09:00 7.62 43800 140000 (2020) 44100 (2017) 81600 44900 46200 72900 121000 133000
2020-12-01 08:00 7.62 43800 140000 (2020) 44100 (2017) 81600 44900 46200 72900 121000 133000
2020-12-01 07:00 7.65 44000 140000 (2020) 44100 (2017) 81600 44900 46200 72900 121000 133000
2020-12-01 06:00 7.65 44000 140000 (2020) 44100 (2017) 81600 44900 46200 72900 121000 133000
2020-12-01 05:00 7.68 44200 140000 (2020) 44100 (2017) 81600 44900 46200 72900 121000 133000
2020-12-01 04:00 7.66 44000 140000 (2020) 44100 (2017) 81600 44900 46200 72900 121000 133000
2020-12-01 03:00 7.71 44300 140000 (2020) 44100 (2017) 81600 44900 46200 72900 121000 133000
2020-12-01 02:00 7.74 44500 140000 (2020) 44100 (2017) 81600 44900 46200 72900 121000 133000
2020-12-01 01:00 7.71 44300 140000 (2020) 44100 (2017) 81600 44900 46200 72900 121000 133000
2020-12-01 00:00 7.71 44300 140000 (2020) 44100 (2017) 81600 44900 46200 72900 121000 133000
2020-11-30 23:00 7.77 44600 143000 (2020) 44400 (2017) 81400 45100 46100 74000 121000 134000
2020-11-30 22:00 7.76 44600 143000 (2020) 44400 (2017) 81400 45100 46100 74000 121000 134000
2020-11-30 21:00 7.77 44600 143000 (2020) 44400 (2017) 81400 45100 46100 74000 121000 134000
2020-11-30 20:00 7.78 44700 143000 (2020) 44400 (2017) 81400 45100 46100 74000 121000 134000
2020-11-30 19:00 7.80 44800 143000 (2020) 44400 (2017) 81400 45100 46100 74000 121000 134000
2020-11-30 18:00 7.80 44800 143000 (2020) 44400 (2017) 81400 45100 46100 74000 121000 134000
2020-11-30 17:00 7.83 44900 143000 (2020) 44400 (2017) 81400 45100 46100 74000 121000 134000
2020-11-30 16:00 7.84 45000 143000 (2020) 44400 (2017) 81400 45100 46100 74000 121000 134000
2020-11-30 15:00 7.85 45100 143000 (2020) 44400 (2017) 81400 45100 46100 74000 121000 134000
2020-11-30 14:00 7.88 45200 143000 (2020) 44400 (2017) 81400 45100 46100 74000 121000 134000
2020-11-30 13:00 7.87 45200 143000 (2020) 44400 (2017) 81400 45100 46100 74000 121000 134000
2020-11-30 12:00 7.94 45500 143000 (2020) 44400 (2017) 81400 45100 46100 74000 121000 134000
2020-11-30 11:00 7.95 45600 143000 (2020) 44400 (2017) 81400 45100 46100 74000 121000 134000
2020-11-30 10:00 7.93 45500 143000 (2020) 44400 (2017) 81400 45100 46100 74000 121000 134000
2020-11-30 09:00 7.99 45800 143000 (2020) 44400 (2017) 81400 45100 46100 74000 121000 134000
2020-11-30 08:00 7.98 45700 143000 (2020) 44400 (2017) 81400 45100 46100 74000 121000 134000
2020-11-30 07:00 7.99 45800 143000 (2020) 44400 (2017) 81400 45100 46100 74000 121000 134000
2020-11-30 06:00 8.02 46000 143000 (2020) 44400 (2017) 81400 45100 46100 74000 121000 134000
2020-11-30 05:00 8.03 46000 143000 (2020) 44400 (2017) 81400 45100 46100 74000 121000 134000
2020-11-30 04:00 8.08 46300 143000 (2020) 44400 (2017) 81400 45100 46100 74000 121000 134000
2020-11-30 03:00 8.06 46200 143000 (2020) 44400 (2017) 81400 45100 46100 74000 121000 134000
2020-11-30 02:00 8.10 46400 143000 (2020) 44400 (2017) 81400 45100 46100 74000 121000 134000
2020-11-30 01:00 8.11 46400 143000 (2020) 44400 (2017) 81400 45100 46100 74000 121000 134000
2020-11-30 00:00 8.13 46600 143000 (2020) 44400 (2017) 81400 45100 46100 74000 121000 134000
2020-11-29 23:00 8.15 46700 141000 (2020) 44800 (2017) 81800 45200 45900 73300 122000 133000
2020-11-29 22:00 8.16 46700 141000 (2020) 44800 (2017) 81800 45200 45900 73300 122000 133000
2020-11-29 21:00 8.17 46800 141000 (2020) 44800 (2017) 81800 45200 45900 73300 122000 133000
2020-11-29 20:00 8.19 46900 141000 (2020) 44800 (2017) 81800 45200 45900 73300 122000 133000
2020-11-29 19:00 8.22 47000 141000 (2020) 44800 (2017) 81800 45200 45900 73300 122000 133000
2020-11-29 18:00 8.21 47000 141000 (2020) 44800 (2017) 81800 45200 45900 73300 122000 133000
2020-11-29 17:00 8.24 47200 141000 (2020) 44800 (2017) 81800 45200 45900 73300 122000 133000
2020-11-29 16:00 8.25 47200 141000 (2020) 44800 (2017) 81800 45200 45900 73300 122000 133000
2020-11-29 15:00 8.28 47400 141000 (2020) 44800 (2017) 81800 45200 45900 73300 122000 133000
2020-11-29 14:00 8.26 47300 141000 (2020) 44800 (2017) 81800 45200 45900 73300 122000 133000
2020-11-29 13:00 8.30 47500 141000 (2020) 44800 (2017) 81800 45200 45900 73300 122000 133000
2020-11-29 12:00 8.30 47500 141000 (2020) 44800 (2017) 81800 45200 45900 73300 122000 133000
2020-11-29 11:00 8.36 47800 141000 (2020) 44800 (2017) 81800 45200 45900 73300 122000 133000
2020-11-29 10:00 8.37 47900 141000 (2020) 44800 (2017) 81800 45200 45900 73300 122000 133000
2020-11-29 09:00 8.37 47900 141000 (2020) 44800 (2017) 81800 45200 45900 73300 122000 133000
2020-11-29 08:00 8.40 48000 141000 (2020) 44800 (2017) 81800 45200 45900 73300 122000 133000
2020-11-29 07:00 8.40 48000 141000 (2020) 44800 (2017) 81800 45200 45900 73300 122000 133000
2020-11-29 06:00 8.41 48100 141000 (2020) 44800 (2017) 81800 45200 45900 73300 122000 133000
2020-11-29 05:00 8.42 48100 141000 (2020) 44800 (2017) 81800 45200 45900 73300 122000 133000
2020-11-29 04:00 8.43 48200 141000 (2020) 44800 (2017) 81800 45200 45900 73300 122000 133000
2020-11-29 03:00 8.44 48300 141000 (2020) 44800 (2017) 81800 45200 45900 73300 122000 133000
2020-11-29 02:00 8.43 48200 141000 (2020) 44800 (2017) 81800 45200 45900 73300 122000 133000
2020-11-29 01:00 8.47 48400 141000 (2020) 44800 (2017) 81800 45200 45900 73300 122000 133000
2020-11-29 00:00 8.43 48200 141000 (2020) 44800 (2017) 81800 45200 45900 73300 122000 133000
2020-11-28 23:00 8.46 48400 142000 (2020) 46100 (2017) 82500 46300 46600 72400 123000 135000
2020-11-28 22:00 8.49 48500 142000 (2020) 46100 (2017) 82500 46300 46600 72400 123000 135000
2020-11-28 21:00 8.50 48600 142000 (2020) 46100 (2017) 82500 46300 46600 72400 123000 135000
2020-11-28 20:00 8.53 48800 142000 (2020) 46100 (2017) 82500 46300 46600 72400 123000 135000
2020-11-28 19:00 8.53 48800 142000 (2020) 46100 (2017) 82500 46300 46600 72400 123000 135000
2020-11-28 18:00 8.53 48800 142000 (2020) 46100 (2017) 82500 46300 46600 72400 123000 135000
2020-11-28 17:00 8.56 48900 142000 (2020) 46100 (2017) 82500 46300 46600 72400 123000 135000
2020-11-28 16:00 8.56 48900 142000 (2020) 46100 (2017) 82500 46300 46600 72400 123000 135000
2020-11-28 15:00 8.55 48900 142000 (2020) 46100 (2017) 82500 46300 46600 72400 123000 135000
2020-11-28 14:00 8.53 48800 142000 (2020) 46100 (2017) 82500 46300 46600 72400 123000 135000
2020-11-28 13:00 8.57 49000 142000 (2020) 46100 (2017) 82500 46300 46600 72400 123000 135000
2020-11-28 12:00 8.55 48900 142000 (2020) 46100 (2017) 82500 46300 46600 72400 123000 135000
2020-11-28 11:00 8.55 48900 142000 (2020) 46100 (2017) 82500 46300 46600 72400 123000 135000
2020-11-28 10:00 8.58 49000 142000 (2020) 46100 (2017) 82500 46300 46600 72400 123000 135000
2020-11-28 09:00 8.58 49000 142000 (2020) 46100 (2017) 82500 46300 46600 72400 123000 135000
2020-11-28 08:00 8.58 49000 142000 (2020) 46100 (2017) 82500 46300 46600 72400 123000 135000
2020-11-28 07:00 8.61 49200 142000 (2020) 46100 (2017) 82500 46300 46600 72400 123000 135000
2020-11-28 06:00 8.60 49200 142000 (2020) 46100 (2017) 82500 46300 46600 72400 123000 135000
2020-11-28 05:00 8.58 49000 142000 (2020) 46100 (2017) 82500 46300 46600 72400 123000 135000
2020-11-28 04:00 8.62 49300 142000 (2020) 46100 (2017) 82500 46300 46600 72400 123000 135000
2020-11-28 03:00 8.62 49300 142000 (2020) 46100 (2017) 82500 46300 46600 72400 123000 135000
2020-11-28 02:00 8.62 49300 142000 (2020) 46100 (2017) 82500 46300 46600 72400 123000 135000
2020-11-28 01:00 8.61 49200 142000 (2020) 46100 (2017) 82500 46300 46600 72400 123000 135000
2020-11-28 00:00 8.61 49200 142000 (2020) 46100 (2017) 82500 46300 46600 72400 123000 135000
2020-11-27 23:00 8.62 49300 141000 (2020) 47400 (2017) 83700 47400 47500 76500 123000 134000
2020-11-27 22:00 8.65 49400 141000 (2020) 47400 (2017) 83700 47400 47500 76500 123000 134000
2020-11-27 21:00 8.63 49300 141000 (2020) 47400 (2017) 83700 47400 47500 76500 123000 134000
2020-11-27 20:00 8.63 49300 141000 (2020) 47400 (2017) 83700 47400 47500 76500 123000 134000
2020-11-27 19:00 8.66 49500 141000 (2020) 47400 (2017) 83700 47400 47500 76500 123000 134000
2020-11-27 18:00 8.65 49400 141000 (2020) 47400 (2017) 83700 47400 47500 76500 123000 134000
2020-11-27 17:00 8.64 49400 141000 (2020) 47400 (2017) 83700 47400 47500 76500 123000 134000
2020-11-27 16:00 8.64 49400 141000 (2020) 47400 (2017) 83700 47400 47500 76500 123000 134000
2020-11-27 15:00 8.66 49500 141000 (2020) 47400 (2017) 83700 47400 47500 76500 123000 134000
2020-11-27 14:00 8.65 49400 141000 (2020) 47400 (2017) 83700 47400 47500 76500 123000 134000
2020-11-27 13:00 8.64 49400 141000 (2020) 47400 (2017) 83700 47400 47500 76500 123000 134000
2020-11-27 12:00 8.66 49500 141000 (2020) 47400 (2017) 83700 47400 47500 76500 123000 134000
2020-11-27 11:00 8.64 49400 141000 (2020) 47400 (2017) 83700 47400 47500 76500 123000 134000
2020-11-27 10:00 8.66 49500 141000 (2020) 47400 (2017) 83700 47400 47500 76500 123000 134000
2020-11-27 09:00 8.65 49400 141000 (2020) 47400 (2017) 83700 47400 47500 76500 123000 134000
2020-11-27 08:00 8.64 49400 141000 (2020) 47400 (2017) 83700 47400 47500 76500 123000 134000
2020-11-27 07:00 8.64 49400 141000 (2020) 47400 (2017) 83700 47400 47500 76500 123000 134000
2020-11-27 06:00 8.62 49300 141000 (2020) 47400 (2017) 83700 47400 47500 76500 123000 134000
2020-11-27 05:00 8.62 49300 141000 (2020) 47400 (2017) 83700 47400 47500 76500 123000 134000
2020-11-27 04:00 8.61 49200 141000 (2020) 47400 (2017) 83700 47400 47500 76500 123000 134000
2020-11-27 03:00 8.63 49300 141000 (2020) 47400 (2017) 83700 47400 47500 76500 123000 134000
2020-11-27 02:00 8.62 49300 141000 (2020) 47400 (2017) 83700 47400 47500 76500 123000 134000
2020-11-27 01:00 8.61 49200 141000 (2020) 47400 (2017) 83700 47400 47500 76500 123000 134000
2020-11-27 00:00 8.59 49100 141000 (2020) 47400 (2017) 83700 47400 47500 76500 123000 134000
2020-11-26 23:00 8.57 49000 142000 (2020) 47800 (2017) 81000 47800 47900 61400 124000 135000
2020-11-26 22:00 8.57 49000 142000 (2020) 47800 (2017) 81000 47800 47900 61400 124000 135000
2020-11-26 21:00 8.56 48900 142000 (2020) 47800 (2017) 81000 47800 47900 61400 124000 135000
2020-11-26 20:00 8.57 49000 142000 (2020) 47800 (2017) 81000 47800 47900 61400 124000 135000
2020-11-26 19:00 8.54 48800 142000 (2020) 47800 (2017) 81000 47800 47900 61400 124000 135000
2020-11-26 18:00 8.54 48800 142000 (2020) 47800 (2017) 81000 47800 47900 61400 124000 135000
2020-11-26 17:00 8.52 48700 142000 (2020) 47800 (2017) 81000 47800 47900 61400 124000 135000
2020-11-26 16:00 8.52 48700 142000 (2020) 47800 (2017) 81000 47800 47900 61400 124000 135000
2020-11-26 15:00 8.51 48600 142000 (2020) 47800 (2017) 81000 47800 47900 61400 124000 135000
2020-11-26 14:00 8.52 48700 142000 (2020) 47800 (2017) 81000 47800 47900 61400 124000 135000
2020-11-26 13:00 8.49 48500 142000 (2020) 47800 (2017) 81000 47800 47900 61400 124000 135000
2020-11-26 12:00 8.49 48500 142000 (2020) 47800 (2017) 81000 47800 47900 61400 124000 135000
2020-11-26 11:00 8.51 48600 142000 (2020) 47800 (2017) 81000 47800 47900 61400 124000 135000
2020-11-26 10:00 8.47 48400 142000 (2020) 47800 (2017) 81000 47800 47900 61400 124000 135000
2020-11-26 09:00 8.49 48500 142000 (2020) 47800 (2017) 81000 47800 47900 61400 124000 135000
2020-11-26 08:00 8.49 48500 142000 (2020) 47800 (2017) 81000 47800 47900 61400 124000 135000
2020-11-26 07:00 8.46 48400 142000 (2020) 47800 (2017) 81000 47800 47900 61400 124000 135000
2020-11-26 06:00 8.45 48300 142000 (2020) 47800 (2017) 81000 47800 47900 61400 124000 135000
2020-11-26 05:00 8.45 48300 142000 (2020) 47800 (2017) 81000 47800 47900 61400 124000 135000
2020-11-26 04:00 8.46 48400 142000 (2020) 47800 (2017) 81000 47800 47900 61400 124000 135000
2020-11-26 03:00 8.45 48300 142000 (2020) 47800 (2017) 81000 47800 47900 61400 124000 135000
2020-11-26 02:00 8.42 48100 142000 (2020) 47800 (2017) 81000 47800 47900 61400 124000 135000
2020-11-26 01:00 8.44 48300 142000 (2020) 47800 (2017) 81000 47800 47900 61400 124000 135000
2020-11-26 00:00 8.42 48100 142000 (2020) 47800 (2017) 81000 47800 47900 61400 124000 135000
2020-11-25 23:00 8.41 48100 141000 (2020) 48200 (2017) 81700 48200 48300 63800 124000 134000
2020-11-25 22:00 8.40 48000 141000 (2020) 48200 (2017) 81700 48200 48300 63800 124000 134000
2020-11-25 21:00 8.38 47900 141000 (2020) 48200 (2017) 81700 48200 48300 63800 124000 134000
2020-11-25 20:00 8.35 47800 141000 (2020) 48200 (2017) 81700 48200 48300 63800 124000 134000
2020-11-25 19:00 8.36 47800 141000 (2020) 48200 (2017) 81700 48200 48300 63800 124000 134000
2020-11-25 18:00 8.33 47600 141000 (2020) 48200 (2017) 81700 48200 48300 63800 124000 134000
2020-11-25 17:00 8.32 47600 141000 (2020) 48200 (2017) 81700 48200 48300 63800 124000 134000
2020-11-25 16:00 8.31 47500 141000 (2020) 48200 (2017) 81700 48200 48300 63800 124000 134000
2020-11-25 15:00 8.30 47500 141000 (2020) 48200 (2017) 81700 48200 48300 63800 124000 134000
2020-11-25 14:00 8.29 47400 141000 (2020) 48200 (2017) 81700 48200 48300 63800 124000 134000
2020-11-25 13:00 8.24 47200 141000 (2020) 48200 (2017) 81700 48200 48300 63800 124000 134000
2020-11-25 12:00 8.23 47100 141000 (2020) 48200 (2017) 81700 48200 48300 63800 124000 134000
2020-11-25 11:00 8.22 47000 141000 (2020) 48200 (2017) 81700 48200 48300 63800 124000 134000
2020-11-25 10:00 8.23 47100 141000 (2020) 48200 (2017) 81700 48200 48300 63800 124000 134000
2020-11-25 09:00 8.18 46800 141000 (2020) 48200 (2017) 81700 48200 48300 63800 124000 134000
2020-11-25 08:00 8.20 46900 141000 (2020) 48200 (2017) 81700 48200 48300 63800 124000 134000
2020-11-25 07:00 8.14 46600 141000 (2020) 48200 (2017) 81700 48200 48300 63800 124000 134000
2020-11-25 06:00 8.11 46400 141000 (2020) 48200 (2017) 81700 48200 48300 63800 124000 134000
2020-11-25 05:00 8.10 46400 141000 (2020) 48200 (2017) 81700 48200 48300 63800 124000 134000
2020-11-25 04:00 8.09 46300 141000 (2020) 48200 (2017) 81700 48200 48300 63800 124000 134000
2020-11-25 03:00 8.08 46300 141000 (2020) 48200 (2017) 81700 48200 48300 63800 124000 134000
2020-11-25 02:00 8.04 46100 141000 (2020) 48200 (2017) 81700 48200 48300 63800 124000 134000
2020-11-25 01:00 8.03 46000 141000 (2020) 48200 (2017) 81700 48200 48300 63800 124000 134000
2020-11-25 00:00 8.01 45900 141000 (2020) 48200 (2017) 81700 48200 48300 63800 124000 134000
2020-11-24 23:00 7.99 45800 140000 (2020) 47900 (2017) 81500 48000 48200 65900 122000 133000
2020-11-24 22:00 7.99 45800 140000 (2020) 47900 (2017) 81500 48000 48200 65900 122000 133000
2020-11-24 21:00 7.96 45600 140000 (2020) 47900 (2017) 81500 48000 48200 65900 122000 133000
2020-11-24 20:00 7.97 45700 140000 (2020) 47900 (2017) 81500 48000 48200 65900 122000 133000
2020-11-24 19:00 7.97 45700 140000 (2020) 47900 (2017) 81500 48000 48200 65900 122000 133000
2020-11-24 18:00 7.97 45700 140000 (2020) 47900 (2017) 81500 48000 48200 65900 122000 133000
2020-11-24 17:00 7.97 45700 140000 (2020) 47900 (2017) 81500 48000 48200 65900 122000 133000
2020-11-24 16:00 7.96 45600 140000 (2020) 47900 (2017) 81500 48000 48200 65900 122000 133000
2020-11-24 15:00 7.96 45600 140000 (2020) 47900 (2017) 81500 48000 48200 65900 122000 133000
2020-11-24 14:00 7.95 45600 140000 (2020) 47900 (2017) 81500 48000 48200 65900 122000 133000
2020-11-24 13:00 7.96 45600 140000 (2020) 47900 (2017) 81500 48000 48200 65900 122000 133000
2020-11-24 12:00 7.96 45600 140000 (2020) 47900 (2017) 81500 48000 48200 65900 122000 133000
2020-11-24 11:00 7.95 45600 140000 (2020) 47900 (2017) 81500 48000 48200 65900 122000 133000
2020-11-24 10:00 7.98 45700 140000 (2020) 47900 (2017) 81500 48000 48200 65900 122000 133000
2020-11-24 09:00 7.93 45500 140000 (2020) 47900 (2017) 81500 48000 48200 65900 122000 133000
2020-11-24 08:00 7.96 45600 140000 (2020) 47900 (2017) 81500 48000 48200 65900 122000 133000
2020-11-24 07:00 7.96 45600 140000 (2020) 47900 (2017) 81500 48000 48200 65900 1